GFSMW_con_3kmhel_000.txt.gz
Helicity
11 8 19 41 53 51 43 50 78 70 83 114 131 126 121 106 116 123 114 126 135 132 145 151 145 170 224 215 190 177 165 165 159 157 123 92 69 74 85 74 79 92 112
42 25 17 17 46 87 100 69 66 45 81 103 124 128 98 79 105 116 115 124 128 144 170 166 168 182 209 196 201 190 191 164 179 212 175 171 132 116 103 111 118 102 134
97 79 58 24 1 17 23 42 52 47 53 75 109 116 106 106 112 131 131 119 106 116 136 158 179 191 216 235 229 229 229 213 181 194 236 246 203 191 121 132 136 140 137
139 135 124 100 59 26 11 7 18 27 39 43 86 107 127 109 104 94 97 106 94 96 108 122 141 168 217 230 251 265 259 239 258 289 252 240 214 211 135 95 110 122 125
184 225 186 145 111 66 25 8 14 30 46 66 78 99 90 88 84 93 90 98 104 95 107 116 132 159 206 214 210 250 265 290 311 320 321 236 259 241 233 134 122 96 109
216 217 192 153 136 90 66 56 42 35 37 47 71 99 105 90 90 83 101 107 123 119 109 130 153 153 182 199 230 241 268 317 336 326 335 345 318 301 321 255 133 134 120
128 136 154 150 144 150 136 118 106 114 106 101 83 66 59 64 73 86 109 110 125 130 127 137 158 185 180 169 191 230 293 349 374 352 355 343 331 291 303 250 199 166 131
82 77 79 93 107 124 138 134 126 113 94 75 64 61 66 86 81 81 84 80 77 72 70 97 123 139 155 165 182 235 283 316 357 347 363 364 349 313 312 320 249 225 189
24 36 69 41 42 81 91 95 107 113 110 89 70 65 56 57 67 59 68 77 68 80 83 98 123 133 151 165 209 277 249 262 305 356 356 372 357 334 314 317 305 289 225
-86 -56 -2 41 30 16 21 50 54 65 72 81 77 70 59 49 48 56 62 59 61 66 74 83 102 123 143 162 180 239 242 259 314 356 339 357 362 351 333 331 321 317 294
-75 -74 -73 -62 -36 -0 7 9 34 43 45 34 47 67 84 80 74 90 96 92 67 70 70 73 86 107 134 177 199 214 224 249 274 313 340 336 342 359 345 348 346 345 352
-27 -1 6 -0 -2 -22 -7 1 21 25 18 5 15 17 41 73 87 89 107 111 129 104 83 90 103 108 136 156 185 190 253 267 294 298 314 338 368 334 317 344 318 333 321
91 99 92 76 50 54 61 55 37 28 28 26 28 44 59 78 105 119 121 123 116 111 108 97 96 98 99 129 144 180 209 256 255 271 298 300 328 349 337 342 313 310 323
86 90 87 60 48 57 54 35 10 -10 -3 11 21 33 36 23 28 58 90 116 127 125 112 100 89 84 91 106 132 140 170 208 223 239 256 288 328 339 346 361 306 313 328
132 120 102 107 105 85 72 67 60 56 38 9 -4 9 29 36 37 47 65 70 76 77 91 98 90 84 85 120 97 122 144 170 178 219 239 279 311 310 356 398 295 306 313
127 112 116 100 94 101 90 65 62 62 51 69 87 83 55 46 38 46 64 61 68 74 77 72 78 80 89 107 123 91 111 97 126 146 216 239 250 297 362 384 276 255 314
150 126 118 103 104 94 95 84 72 69 69 69 73 70 56 50 55 66 63 61 86 97 94 101 100 96 93 114 121 140 118 145 222 173 173 191 253 261 312 318 274 241 187
136 107 83 88 99 126 147 137 129 111 91 73 74 56 39 38 36 36 44 66 71 68 55 53 89 123 103 124 139 150 122 137 152 144 150 195 197 257 308 363 304 333 429
97 111 114 107 109 139 147 122 107 99 81 79 67 52 36 23 16 17 14 2 4 19 28 34 29 34 72 135 138 164 133 159 115 123 160 180 191 208 317 354 481 519 502
63 68 80 94 146 169 140 113 95 78 77 73 64 78 86 52 20 8 9 24 37 38 35 16 14 37 32 67 120 79 105 163 162 119 113 124 145 218 323 353 443 470 480
62 102 132 144 158 162 139 119 107 91 96 93 106 110 95 66 46 32 37 33 30 44 53 53 56 51 41 18 92 110 47 92 146 101 69 104 144 242 327 346 381 450 555
162 176 147 136 128 115 116 103 88 103 104 106 109 106 90 77 62 55 48 53 53 50 48 56 53 49 57 45 67 130 95 76 61 95 109 142 174 219 279 371 375 429 497
110 110 118 107 116 126 120 107 107 105 105 115 123 124 116 83 70 70 58 46 53 49 36 28 23 24 14 29 98 51 115 119 89 75 72 186 198 184 251 387 423 468 491
100 103 108 112 115 112 99 101 103 106 118 128 123 104 97 91 77 74 65 58 61 76 55 34 9 14 26 1 21 47 64 112 108 51 78 149 203 258 367 456 472 449 454
113 106 91 90 91 89 90 100 103 117 133 131 121 105 81 67 51 48 55 73 79 80 69 70 34 -2 16 15 31 47 50 77 114 41 127 221 395 436 440 543 482 468 473
87 79 77 85 86 89 99 106 112 130 145 143 126 104 78 60 35 15 -2 4 22 55 79 58 37 32 4 -1 40 37 49 31 38 53 235 277 319 347 405 391 422 397 465

GFSMW_con_3kmhel_003.txt.gz
Helicity
79 58 61 60 37 53 67 67 96 136 134 167 189 179 186 165 167 171 120 132 171 183 210 229 192 197 219 222 237 243 244 254 246 218 225 225 209 178 193 194 186 178 170
110 88 59 43 38 34 58 82 92 85 125 130 133 137 136 149 170 165 149 137 155 176 213 228 233 222 248 237 239 253 298 281 253 267 230 234 192 209 200 211 216 176 196
131 108 84 65 55 40 35 75 101 135 126 124 121 116 120 153 164 164 182 186 156 163 176 192 218 231 244 275 267 273 287 300 281 292 339 347 312 176 231 274 232 175 185
108 111 119 122 102 82 52 39 45 70 74 92 98 94 154 172 171 156 148 143 137 153 164 162 196 218 247 241 257 262 265 293 314 320 350 333 292 331 290 239 180 166 174
79 111 123 108 92 78 66 53 52 52 45 62 60 94 100 116 115 123 113 134 137 139 143 160 186 206 230 214 220 227 231 262 318 316 388 406 380 311 312 288 261 260 245
93 87 71 81 96 99 103 87 82 74 63 57 61 73 78 84 98 94 110 109 115 113 114 141 160 172 185 185 211 222 237 264 283 328 353 524 519 467 425 364 280 253 227
81 55 54 75 98 111 116 103 103 110 97 93 82 63 51 53 65 82 102 105 124 130 151 169 164 171 174 182 227 256 273 292 331 342 399 454 443 441 448 409 321 267 226
69 30 35 55 75 85 101 110 125 122 106 96 90 77 75 77 75 69 75 92 107 121 114 128 131 125 148 180 215 283 291 307 324 329 383 428 440 439 468 469 429 330 253
40 -20 -32 13 49 68 68 67 74 80 81 77 68 63 60 62 64 76 83 91 81 90 90 100 117 128 139 154 207 289 297 315 340 384 360 406 405 434 451 469 493 454 330
26 -47 -56 -23 23 50 52 58 58 59 62 64 68 65 71 78 79 77 87 92 92 93 92 90 95 109 124 135 139 206 238 265 336 391 370 386 397 389 439 443 447 436 398
33 -10 9 33 70 83 75 76 79 84 70 51 44 46 42 45 57 67 75 75 80 87 104 111 135 128 124 118 138 146 175 227 260 286 345 352 376 381 385 407 455 461 478
-8 2 62 72 71 51 38 45 54 55 47 35 35 40 29 40 46 39 48 59 79 71 65 77 90 107 110 104 101 118 161 193 223 243 283 328 367 349 327 352 390 443 471
52 121 108 93 79 49 60 78 74 55 44 50 38 34 44 63 61 60 65 69 77 73 65 62 63 62 72 76 79 85 111 157 164 190 211 246 277 324 364 321 370 430 471
119 112 103 124 106 108 134 99 80 73 77 66 59 54 51 31 26 29 33 33 35 51 73 75 61 51 49 54 69 82 101 123 148 172 171 171 219 241 282 308 311 290 403
168 170 154 134 121 113 131 93 92 107 108 98 83 67 57 54 42 18 -4 -15 -2 18 26 44 57 53 64 60 65 62 71 87 87 99 134 165 134 191 253 325 315 349 378
166 154 143 136 130 136 113 98 101 91 61 49 45 50 54 57 41 31 21 13 11 12 20 32 42 59 61 66 49 23 48 76 82 100 100 142 156 162 219 254 271 289 404
215 214 191 163 153 130 101 73 80 76 83 68 53 53 44 39 31 26 17 13 6 -0 1 6 19 40 49 51 73 68 39 57 95 95 90 122 162 174 225 217 239 248 331
239 202 176 171 107 61 69 59 72 93 103 80 87 65 41 32 21 18 17 16 4 3 9 10 16 22 30 39 41 67 32 53 61 108 109 95 107 106 152 209 220 224 284
214 169 118 84 50 46 80 89 107 129 101 106 91 53 37 29 26 28 30 22 22 13 7 10 11 12 23 38 47 46 43 52 63 39 116 89 99 117 83 168 231 232 349
147 89 55 31 54 115 146 134 124 98 75 74 43 42 50 55 59 62 58 54 54 51 40 28 26 36 55 55 55 59 50 50 72 30 18 55 83 80 90 112 243 388 419
94 84 45 43 82 112 104 94 88 83 90 78 70 67 70 75 81 87 93 98 91 81 66 54 56 60 58 58 65 72 66 62 63 60 -45 -3 89 65 106 115 211 357 587
150 157 138 131 109 91 80 73 69 82 77 81 85 89 95 108 107 115 123 102 93 83 76 72 55 46 52 65 59 49 73 86 60 45 28 -1 -5 53 45 182 211 378 601
187 154 140 109 97 94 81 67 68 72 75 83 88 106 110 113 118 119 106 100 76 63 88 69 55 34 34 66 53 27 51 71 64 39 46 40 29 28 32 81 362 486 608
142 121 102 93 90 79 71 71 79 95 115 121 128 119 114 115 113 127 89 86 86 79 52 57 54 50 49 53 53 21 -2 24 42 44 45 21 -7 25 32 205 349 537 512
96 98 102 98 76 70 70 73 77 99 109 109 108 108 110 107 92 92 81 78 86 81 57 54 54 42 34 49 56 28 -8 -7 18 31 -3 30 45 153 186 317 472 457 388
118 111 82 75 75 74 76 66 92 125 134 133 136 117 105 95 85 71 70 63 55 25 15 31 59 65 35 17 25 26 38 27 48 -39 -15 30 105 137 212 397 444 403 343

GFSMW_con_3kmhel_006.txt.gz
Helicity
166 157 116 105 103 153 164 121 202 235 304 351 334 315 305 270 267 292 278 285 289 284 317 340 324 318 311 285 292 300 298 279 303 280 264 226 230 285 309 303 279 291 305
101 96 77 63 77 60 63 136 133 145 218 322 328 310 281 231 237 244 251 266 276 282 322 349 360 343 322 301 317 328 330 294 324 303 306 259 232 277 267 260 281 271 279
93 86 72 64 71 83 68 77 135 207 123 192 254 204 185 202 189 190 197 181 182 189 221 240 289 301 306 282 303 336 332 317 308 323 305 298 289 234 208 193 198 218 315
66 62 65 73 77 72 48 45 54 100 186 159 151 132 155 158 152 151 168 165 184 220 232 245 257 285 318 292 293 327 351 313 298 321 321 299 332 313 264 278 297 295 289
75 73 58 40 23 32 38 54 49 79 72 84 100 96 94 132 126 132 135 139 166 201 235 250 238 227 267 281 293 280 295 310 314 315 329 317 309 303 337 310 336 406 433
94 91 51 23 22 36 51 65 71 81 81 84 87 86 75 73 79 82 99 109 117 148 201 234 241 225 220 235 242 243 265 323 339 343 360 393 437 389 378 371 323 365 370
112 72 49 43 53 82 103 98 112 129 123 110 102 94 90 83 78 76 82 85 98 105 106 162 217 242 230 214 209 208 226 281 339 359 403 397 423 399 400 398 365 348 374
94 64 37 10 19 58 103 122 121 118 119 116 119 113 112 99 93 90 86 74 69 74 94 101 119 179 193 171 176 202 210 230 276 296 351 392 392 365 385 429 378 349 334
115 63 16 3 -10 13 33 64 97 109 120 126 130 136 134 134 121 119 107 102 86 85 84 79 94 105 108 127 153 193 192 215 243 264 292 337 334 351 410 405 404 387 309
123 74 33 -2 -44 -24 39 80 90 94 88 91 87 82 83 93 98 96 96 92 96 101 111 115 114 103 95 103 112 129 146 164 205 255 264 289 297 311 378 422 378 382 386
108 53 22 15 -8 53 106 83 72 71 73 60 57 62 58 61 58 65 72 79 84 82 85 85 93 103 121 130 138 122 109 121 135 162 193 212 228 278 311 351 349 354 363
130 89 23 7 99 87 82 115 106 84 62 54 44 35 35 33 34 29 41 49 54 55 59 72 91 95 93 84 95 119 127 132 143 126 129 135 168 188 253 315 355 372 353
108 94 106 126 135 162 165 132 105 86 79 63 54 56 48 39 33 28 23 20 21 33 39 46 59 69 73 76 76 78 95 99 91 107 125 118 117 141 181 269 331 397 371
169 134 195 259 209 199 190 143 109 102 88 82 78 77 69 60 58 49 35 20 10 8 19 42 56 64 72 83 90 101 81 71 88 105 121 119 113 106 111 145 198 311 330
184 295 300 239 197 213 183 156 127 112 104 86 74 91 88 79 68 54 44 40 39 35 23 14 18 27 44 63 73 65 86 94 93 77 82 117 122 109 94 120 124 164 289
293 290 260 253 251 215 173 131 125 106 96 87 84 92 102 91 64 49 38 39 48 49 48 53 51 52 51 70 84 115 76 39 27 38 67 93 95 77 60 68 78 108 164
387 351 341 268 203 170 155 141 121 109 102 90 94 125 100 86 71 58 43 35 34 32 31 29 27 38 51 65 100 73 40 37 31 44 56 71 98 103 82 33 52 78 129
590 537 319 234 203 173 160 139 103 96 100 92 112 96 81 63 42 27 22 23 22 23 29 29 41 44 50 45 83 79 55 56 52 50 41 61 71 81 77 89 56 84 89
439 374 270 198 165 164 138 104 90 81 76 91 80 55 33 23 14 17 25 35 34 48 42 44 40 51 72 93 91 94 68 56 60 60 59 63 64 41 68 90 111 70 110
376 311 212 157 151 140 131 102 62 56 67 70 53 31 20 16 23 30 42 48 64 73 72 89 67 54 87 77 87 94 55 56 48 55 39 40 55 64 50 76 76 -7 140
341 253 168 129 114 122 105 88 74 54 58 50 30 24 24 35 33 45 48 59 62 73 87 92 105 128 79 66 80 101 75 46 60 57 45 39 61 62 72 54 -21 16 104
213 163 136 145 132 120 125 103 85 69 55 42 40 35 28 22 20 15 39 53 71 74 91 107 125 94 79 63 78 95 82 95 64 63 65 58 59 73 63 40 9 18 9
213 189 185 165 152 136 116 97 79 65 53 58 47 33 23 23 35 57 68 69 60 65 55 77 84 79 60 64 68 57 73 67 55 56 54 59 53 61 58 40 29 15 170
195 179 164 148 124 104 95 76 68 68 72 68 50 35 35 46 86 100 94 104 78 66 75 71 64 63 73 78 63 37 41 44 28 29 50 -1 -18 -32 14 45 66 122 279
173 147 140 128 113 100 88 73 75 80 81 73 63 65 84 95 107 119 111 87 82 86 83 84 79 68 65 68 59 32 21 19 16 13 -30 -73 -72 -82 -40 -2 104 172 299
151 132 115 103 102 98 92 86 93 96 95 91 96 114 126 133 137 122 112 72 52 32 36 36 47 65 25 16 27 18 56 75 47 -25 -60 -72 -78 -58 -52 -55 27 123 241

GFSMW_con_3kmhel_009.txt.gz
Helicity
133 114 93 66 106 176 218 256 236 183 352 441 377 287 262 266 263 261 233 237 248 278 298 287 301 340 336 318 335 303 286 259 333 272 228 202 202 223 254 253 264 268 298
144 131 123 109 106 101 115 150 196 236 209 269 358 361 320 227 234 213 212 230 253 289 307 297 321 367 359 341 359 353 310 292 357 321 315 231 164 241 242 242 249 254 289
87 80 84 89 105 147 145 114 102 150 200 182 208 273 280 208 159 167 170 161 193 236 273 270 299 321 385 345 342 336 320 290 282 337 339 333 277 198 154 150 170 177 203
52 53 76 99 109 104 77 76 83 112 150 160 174 156 129 113 94 108 121 113 146 183 210 228 287 305 338 311 318 339 339 309 274 321 361 322 338 280 199 170 199 200 215
75 89 98 104 78 67 54 57 79 114 112 107 99 94 104 83 68 90 99 98 92 101 119 166 240 294 301 292 296 284 265 268 269 279 303 319 312 272 309 282 146 232 259
113 110 100 77 72 57 48 64 103 140 160 167 171 163 153 137 125 126 117 111 99 97 120 140 172 216 233 270 295 284 250 230 247 259 257 306 365 293 316 333 267 227 195
147 135 115 93 78 73 51 44 90 139 171 188 198 194 191 189 182 179 173 183 174 158 172 150 128 102 103 152 180 199 217 216 223 226 247 272 312 291 284 308 278 249 239
146 113 77 63 57 48 48 61 93 137 179 167 164 152 146 129 123 127 118 132 136 144 148 177 185 184 155 112 106 145 183 196 184 171 220 262 255 285 309 299 262 239 260
106 88 64 43 21 21 44 60 82 130 155 139 124 122 109 102 104 94 76 82 88 102 115 112 126 143 153 160 165 152 146 141 120 115 129 160 190 226 253 263 295 304 326
95 98 68 27 5 2 25 101 120 126 103 88 75 71 67 59 55 52 71 73 86 92 110 119 121 123 125 129 142 144 141 153 142 130 128 128 142 152 190 226 271 327 335
123 80 39 15 19 11 130 149 141 105 97 78 59 71 60 45 47 51 59 64 63 67 70 76 84 100 112 123 134 146 159 179 195 190 183 181 155 144 145 152 186 252 298
106 72 81 106 125 190 217 188 139 97 82 65 70 71 61 46 49 57 46 34 17 12 12 23 43 67 80 91 108 118 148 166 182 197 199 183 165 165 154 172 182 207 241
148 175 186 213 261 273 269 204 129 110 97 107 89 94 94 72 65 57 59 41 36 34 25 23 24 31 51 66 67 104 94 76 82 92 106 111 114 124 139 150 158 157 158
169 188 263 301 323 298 236 167 137 104 113 116 91 107 108 80 71 52 40 46 57 62 58 59 70 65 50 58 71 96 118 119 105 94 89 85 91 106 123 135 140 138 132
173 233 295 332 317 259 208 173 145 124 109 107 97 106 93 88 61 61 65 65 66 67 67 72 67 69 72 57 82 107 74 77 70 53 48 61 81 90 100 136 134 148 159
221 317 371 350 269 220 178 147 113 92 97 104 128 118 99 71 70 69 67 62 56 50 54 60 62 74 80 94 136 144 66 54 15 22 30 47 44 46 100 110 116 124 152
302 371 406 341 284 249 200 161 123 90 123 141 129 105 76 66 58 51 48 44 40 44 57 69 73 88 96 86 150 148 72 40 54 48 47 33 47 70 70 77 93 94 97
271 348 359 335 312 270 201 134 111 164 178 138 109 79 68 58 45 36 37 35 39 47 57 64 70 91 111 109 186 189 84 103 93 88 78 77 80 85 82 73 71 60 62
267 325 230 158 123 130 95 149 201 189 155 133 105 76 62 57 47 40 33 40 45 44 41 40 57 74 129 195 238 165 134 133 125 110 85 98 95 79 90 69 71 67 54
310 280 176 150 165 223 233 211 180 149 124 108 85 65 56 46 43 42 44 47 50 41 35 45 68 72 110 117 117 111 122 133 127 102 77 74 70 64 84 79 73 80 58
222 186 188 198 254 210 178 170 132 120 103 85 73 67 66 66 63 68 67 58 41 43 61 62 66 83 93 86 68 97 113 124 118 73 60 70 75 80 89 103 109 99 72
214 217 211 229 197 187 170 139 130 106 89 78 72 70 80 88 79 69 70 57 56 65 71 70 93 100 80 53 48 50 72 109 82 73 63 75 75 80 83 80 52 54 54
240 252 243 208 182 167 128 125 106 88 79 77 72 84 95 90 66 73 65 70 82 88 87 104 110 94 77 71 42 35 48 44 46 64 60 63 64 43 55 49 63 34 -10
259 249 205 175 173 136 105 87 79 77 72 71 83 94 93 67 80 74 71 92 90 100 107 103 92 83 80 71 64 46 24 -20 10 39 44 41 43 37 31 -3 -12 1 -20
238 210 178 157 135 110 90 77 67 70 77 88 98 103 101 94 99 95 96 98 104 93 97 91 87 84 80 59 28 41 4 5 0 13 -24 -11 3 29 22 -16 -37 -2 -14
170 146 134 128 116 100 82 79 86 94 111 118 120 114 106 106 102 93 103 79 61 44 37 34 50 74 41 20 26 31 21 28 48 -24 -37 -20 16 43 13 2 -7 -3 -21

GFSMW_con_3kmhel_012.txt.gz
Helicity
145 146 149 147 147 152 153 157 170 159 248 316 296 263 256 273 241 220 203 200 213 215 233 231 245 297 281 250 265 282 253 252 297 256 184 181 184 188 214 217 216 219 235
139 150 136 127 131 114 119 127 155 166 126 180 228 237 202 192 205 184 145 141 159 181 199 216 229 273 289 267 275 316 280 284 310 293 242 218 124 169 189 212 206 199 223
131 144 149 143 140 158 130 105 90 110 112 97 123 153 162 146 121 94 71 65 75 102 143 174 224 246 317 288 293 327 328 278 237 285 262 254 267 205 126 107 89 108 152
96 95 107 131 144 143 114 90 78 80 103 124 136 155 142 131 127 100 91 93 101 107 113 126 148 180 218 250 266 284 318 297 257 225 282 254 276 269 206 156 125 128 154
86 98 109 107 112 114 104 88 91 127 128 141 135 140 156 128 109 129 151 162 163 179 187 186 166 148 155 174 202 205 248 273 268 252 247 270 275 275 312 261 158 142 181
85 85 89 99 94 80 82 74 88 146 196 227 249 241 228 202 195 188 178 170 169 163 181 199 175 155 149 151 160 162 189 212 222 268 285 272 280 240 252 280 270 229 147
100 96 95 74 59 58 51 43 84 134 170 188 203 176 156 147 138 125 106 106 110 110 146 146 159 154 164 174 187 178 151 134 146 144 172 177 220 242 271 245 263 276 269
113 83 53 43 54 59 57 83 106 146 166 150 128 105 106 85 84 85 77 86 92 95 105 119 128 149 167 175 166 153 162 168 171 165 128 111 113 138 160 202 241 269 246
80 67 52 70 75 88 117 90 92 111 121 128 119 119 102 98 85 77 65 70 80 92 104 97 103 114 128 144 151 148 164 173 171 179 168 182 178 162 146 144 163 158 163
84 78 66 72 84 150 156 164 136 109 116 120 99 80 75 76 74 66 67 69 68 70 67 68 73 81 91 104 121 132 141 164 171 172 189 174 158 156 149 153 160 166 179
85 73 87 131 221 224 213 180 134 124 126 106 86 88 68 61 50 38 34 38 37 37 34 38 49 60 70 82 97 112 130 159 156 141 134 156 158 155 143 139 144 156 157
117 121 161 208 256 256 240 200 169 146 119 96 91 82 79 73 68 79 88 89 86 82 81 79 72 70 62 65 80 99 91 115 105 116 130 137 123 118 95 82 100 111 125
200 228 267 283 278 261 244 205 167 135 122 112 109 110 107 100 104 99 98 99 93 88 78 76 84 82 72 82 76 58 78 92 101 103 91 87 77 74 80 92 93 90 96
217 238 290 284 279 254 242 203 180 157 141 138 137 120 102 114 124 117 113 98 81 71 65 66 66 62 64 73 74 102 99 74 66 84 82 44 51 71 83 89 91 98 110
175 249 288 285 237 223 257 219 179 169 149 132 138 127 130 146 121 113 94 80 75 69 61 58 59 56 66 75 100 116 118 98 91 71 42 34 59 55 24 75 87 85 83
228 295 295 252 213 209 237 212 193 154 118 111 132 127 152 136 119 98 92 86 84 74 68 67 68 72 83 71 108 170 147 128 113 72 44 51 45 42 127 109 100 97 100
255 267 261 233 235 221 181 155 127 117 146 172 161 166 149 131 107 84 75 68 55 49 52 56 68 71 74 69 107 157 135 121 117 95 83 73 88 72 66 87 85 73 78
264 266 254 242 216 201 194 109 168 217 244 183 164 147 128 117 81 67 59 54 57 58 64 71 75 75 77 60 103 114 92 78 94 120 98 132 125 51 73 83 67 64 50
167 225 200 202 180 101 115 156 236 259 207 191 155 137 114 89 76 74 72 82 83 87 83 72 68 69 81 63 79 109 116 120 126 104 110 128 101 50 81 73 62 63 86
214 237 267 168 97 136 196 295 258 209 185 149 126 114 94 84 77 75 79 80 92 97 96 95 85 61 85 85 86 105 123 123 113 93 82 40 49 69 69 62 61 76 74
284 237 158 72 132 224 226 235 201 176 144 121 106 91 79 72 60 76 87 96 102 94 101 104 96 80 95 96 75 81 103 106 95 77 67 66 43 50 59 64 56 61 40
315 252 232 214 235 241 214 189 168 140 126 112 96 80 73 74 76 88 108 106 105 103 103 83 81 101 96 72 68 63 72 81 79 72 68 70 29 49 45 40 46 60 49
309 259 219 226 225 213 180 161 140 122 108 96 83 82 89 98 90 108 108 108 91 92 86 88 97 105 101 100 51 49 53 58 54 60 39 18 29 37 25 38 63 50 47
241 200 223 205 184 155 137 126 117 108 102 99 96 101 100 89 113 109 100 106 98 95 98 108 116 110 98 83 66 65 34 30 30 16 16 13 13 16 25 24 15 26 55
193 194 169 156 145 131 126 122 115 107 108 110 112 116 123 122 116 111 113 103 107 97 120 123 117 101 90 74 41 40 41 26 -0 -24 8 -11 -22 -10 21 20 3 22 16
183 170 146 133 123 116 106 114 115 111 111 117 134 149 148 126 124 124 129 85 81 81 72 56 71 89 56 41 29 39 17 14 4 -34 -16 -33 -32 -8 12 14 25 25 4

GFSMW_con_3kmhel_015.txt.gz
Helicity
141 162 158 162 161 146 105 90 96 82 82 164 201 203 207 177 152 138 126 121 117 116 144 161 172 204 228 217 236 282 250 254 279 229 203 186 175 192 212 189 194 188 210
151 171 170 158 141 115 115 122 113 105 60 42 52 73 62 77 76 79 78 86 84 75 82 111 124 137 174 176 185 221 210 242 285 275 221 187 134 154 153 154 152 149 158
128 136 126 137 134 146 135 122 126 103 83 47 35 62 86 130 145 147 156 155 153 153 143 135 119 113 135 133 125 158 202 183 192 250 252 254 210 204 181 186 196 174 197
98 94 117 130 126 100 75 76 85 86 89 87 118 143 144 134 123 104 107 150 164 160 161 156 154 142 123 117 115 126 172 206 206 186 224 216 228 243 201 203 224 209 232
76 84 91 83 69 63 54 41 58 83 80 108 113 119 141 120 122 140 156 157 152 139 142 152 145 149 139 148 152 151 137 144 160 163 184 184 249 234 293 188 177 191 225
70 75 79 71 69 53 66 62 65 84 115 142 163 161 160 148 146 144 134 126 114 105 127 137 129 122 134 150 151 162 170 171 165 166 160 164 180 179 216 243 223 276 266
74 72 71 63 63 79 64 54 77 108 113 125 118 104 94 91 81 65 46 49 46 44 66 63 75 78 94 109 122 139 157 175 190 188 177 166 167 153 145 131 118 130 171
65 59 59 58 81 76 71 86 97 113 105 85 82 87 89 59 55 62 59 59 63 62 72 87 84 87 93 103 115 122 143 152 183 195 203 196 180 176 181 183 175 149 132
62 72 72 85 94 97 107 103 106 99 99 92 87 88 80 75 66 70 62 59 60 72 82 76 69 70 73 85 94 93 104 127 139 161 171 182 157 149 163 182 192 206 185
93 94 89 113 121 144 157 161 132 109 95 90 84 80 90 92 77 63 65 70 75 82 76 70 71 71 73 76 86 89 101 115 112 117 128 135 131 123 87 79 83 103 146
89 104 133 176 199 201 188 174 156 133 114 108 107 110 98 88 79 67 58 61 77 76 79 83 78 79 77 69 87 91 85 98 87 90 94 110 97 88 78 64 66 75 87
110 151 212 220 232 237 225 194 163 143 132 127 120 107 86 71 80 99 99 106 97 88 79 66 64 58 64 66 82 90 93 86 75 76 85 88 99 77 62 54 72 87 100
192 254 279 278 261 248 225 193 172 148 141 129 119 101 102 112 115 113 113 111 97 84 68 63 57 52 44 49 58 69 74 72 81 80 73 76 56 35 30 50 65 69 104
232 296 305 280 266 261 231 210 210 189 162 146 133 143 162 153 169 132 119 111 91 72 62 56 48 44 44 46 47 74 80 77 79 75 67 46 40 45 41 42 51 96 59
251 244 263 264 269 238 227 241 229 202 170 161 143 148 130 153 119 106 99 83 74 74 74 75 78 79 80 73 90 91 102 97 76 66 56 45 52 36 53 85 127 112 84
194 235 260 261 232 258 274 234 210 171 127 165 133 132 181 136 125 123 116 104 88 76 71 73 72 75 78 61 85 114 118 112 80 64 50 63 62 56 93 117 116 105 123
204 243 233 252 301 299 256 226 176 149 155 152 157 189 131 127 122 114 102 97 80 66 75 78 83 85 89 59 84 108 127 107 97 96 91 92 92 102 89 80 94 79 75
185 218 249 274 286 252 233 208 160 142 114 175 191 147 143 140 128 111 95 84 83 82 84 77 78 85 81 66 94 113 119 119 109 105 105 95 80 71 72 75 71 62 44
110 181 210 224 234 229 162 142 98 86 159 178 145 137 137 132 121 115 104 92 85 76 71 74 89 86 80 56 84 120 118 107 107 98 91 69 62 40 36 52 62 61 84
162 208 261 275 230 134 82 112 144 163 160 135 126 125 124 126 118 103 86 77 84 93 105 103 83 58 71 43 68 93 111 106 107 100 63 27 41 26 28 47 60 68 39
268 277 252 204 155 120 118 133 178 176 130 126 121 121 115 115 99 99 96 106 114 109 102 101 91 77 77 91 74 77 96 104 103 77 60 60 10 14 23 28 33 46 29
238 230 220 208 182 153 153 193 182 136 126 122 120 115 115 108 98 109 127 123 119 115 110 96 100 105 108 78 74 61 65 73 102 93 92 61 9 11 12 28 27 34 27
234 243 230 192 154 170 187 177 138 128 118 114 113 119 115 117 112 149 145 135 113 115 111 106 113 130 121 117 54 45 52 57 84 118 51 13 -1 9 10 13 25 25 7
219 212 195 201 200 177 163 135 116 110 113 117 119 126 137 127 159 162 135 136 136 127 115 117 145 159 139 120 121 122 114 81 101 83 16 -6 1 17 -17 -9 7 7 -10
209 216 216 183 158 135 121 122 123 122 123 126 133 140 152 160 160 149 150 140 139 115 126 147 155 147 133 122 74 86 106 116 97 3 18 -1 20 9 -19 -12 15 30 -10
201 199 175 158 139 124 123 130 125 126 132 139 146 152 161 170 162 161 159 103 79 57 57 71 91 112 71 51 65 59 50 64 49 48 34 29 -27 -53 -22 16 50 31 4

GFSMW_con_3kmhel_018.txt.gz
Helicity
120 149 138 133 119 123 99 87 87 87 51 61 77 65 48 38 32 36 50 54 67 81 86 89 77 77 91 89 88 101 119 124 128 144 132 134 140 179 208 195 209 180 195
136 168 172 169 137 93 95 111 115 97 51 14 17 36 54 88 97 129 174 171 158 158 139 126 112 105 85 83 95 114 112 122 136 161 140 133 117 146 140 169 214 199 205
111 124 139 124 120 135 122 110 101 95 65 25 19 58 101 156 180 178 169 168 139 133 121 105 88 86 82 75 76 79 74 80 94 118 153 163 165 128 154 187 198 200 225
83 71 94 116 110 90 65 62 61 56 61 60 90 120 100 101 72 59 63 82 92 93 103 96 94 82 76 92 93 101 101 116 109 114 119 141 171 173 130 136 164 215 207
53 63 79 85 70 49 39 34 53 63 53 63 43 44 61 30 34 54 75 83 77 68 73 74 66 72 69 80 90 109 117 108 135 143 155 165 175 183 208 180 191 206 189
63 72 80 70 60 46 57 47 45 42 63 79 81 69 63 63 68 72 65 55 40 33 49 52 48 49 61 73 75 84 93 105 121 139 157 174 185 178 183 181 150 142 120
63 73 74 65 61 63 44 35 37 54 60 65 68 64 61 66 62 55 44 42 32 18 35 27 37 40 50 55 56 62 72 85 107 124 137 146 164 168 169 186 171 151 111
61 65 59 70 70 59 45 49 61 68 72 73 75 67 72 52 51 57 49 42 35 30 52 63 67 66 61 61 60 57 69 75 103 111 122 133 146 151 149 174 172 126 78
59 63 80 84 71 71 72 78 86 92 96 76 67 75 74 78 67 64 46 48 63 82 88 72 72 67 64 58 50 55 63 73 82 95 101 117 126 149 169 189 217 217 192
87 74 99 108 112 132 128 138 131 126 106 99 90 86 88 85 80 81 89 84 77 94 79 75 68 67 58 61 50 60 60 65 82 72 79 88 104 122 167 138 124 131 144
67 83 128 150 177 172 187 180 169 153 142 117 106 112 117 118 91 77 98 106 116 105 79 62 57 45 39 45 46 61 50 77 72 69 76 83 85 96 78 78 80 89 98
74 123 172 215 214 225 234 208 182 170 148 129 139 141 113 93 95 100 109 110 94 62 58 50 47 45 44 35 42 35 39 58 50 45 71 55 53 50 46 47 54 49 40
150 195 240 253 271 261 245 233 214 200 182 160 154 121 101 100 112 107 104 116 87 87 77 64 46 34 30 44 36 43 60 62 66 80 64 47 41 24 12 24 9 1 13
183 241 304 327 285 270 273 246 235 213 183 185 156 150 102 97 102 118 123 100 92 73 61 56 53 56 63 60 75 108 121 124 121 116 84 58 37 47 47 37 38 34 72
248 279 308 288 274 285 271 261 252 237 204 185 149 110 110 103 98 126 102 82 73 71 67 67 63 57 64 74 118 127 133 134 142 112 85 63 56 58 73 85 67 80 84
171 214 252 260 280 281 281 281 260 198 153 127 102 107 116 126 135 97 80 75 82 80 70 68 69 85 99 101 121 137 145 144 132 109 86 80 60 62 79 71 81 88 107
151 207 220 252 273 277 264 236 164 109 72 65 107 165 159 116 77 81 92 96 80 68 74 89 105 112 120 83 98 102 132 130 119 110 109 101 104 72 44 30 40 49 49
150 198 260 282 278 261 227 166 130 90 100 49 93 124 108 92 99 94 81 76 75 96 114 111 114 125 118 65 79 89 117 113 108 113 113 108 93 71 52 43 41 43 28
143 205 234 259 257 213 160 140 140 110 79 108 114 107 104 96 88 88 92 104 116 117 122 116 117 114 110 59 69 92 117 123 120 115 115 90 88 55 19 55 44 50 50
187 223 250 244 226 203 144 146 156 144 126 115 108 103 97 97 106 106 110 127 125 127 131 135 110 85 113 60 67 98 132 123 118 125 105 54 69 22 32 44 59 42 17
190 215 226 218 192 162 162 165 119 119 108 98 100 106 111 111 102 125 135 128 133 130 135 138 134 114 91 88 59 63 94 103 123 128 123 147 52 36 26 15 69 60 -32
189 205 206 198 180 176 152 125 123 110 102 108 112 109 111 113 120 128 130 137 141 143 146 151 143 118 99 67 58 36 41 48 104 112 139 176 94 39 25 52 -1 -15 -16
197 210 207 192 174 162 155 140 119 111 115 116 119 125 115 122 116 124 130 150 141 159 169 154 146 147 140 129 51 34 36 48 84 120 104 90 50 34 59 33 -6 -14 -34
189 191 181 188 175 150 130 124 123 122 127 122 118 121 125 102 127 135 150 169 171 178 145 141 156 158 149 131 122 116 103 85 120 114 131 95 66 51 60 83 84 13 5
182 195 193 175 151 143 149 144 136 133 132 126 122 118 120 123 130 145 162 165 171 133 133 148 149 143 141 132 77 89 109 118 112 83 128 109 100 109 117 71 37 59 38
178 166 164 164 152 147 139 141 141 135 125 119 111 111 117 138 144 161 166 109 67 58 53 52 90 122 85 59 63 56 50 63 60 105 126 112 115 55 -10 39 84 106 73

GFSMW_con_3kmhel_021.txt.gz
Helicity
94 90 93 107 121 153 153 134 119 113 51 40 59 80 104 108 127 135 152 149 136 133 120 100 105 98 80 72 70 64 61 56 48 67 55 54 57 41 50 100 114 106 106
136 143 163 166 167 145 139 143 126 92 59 25 19 41 73 111 115 130 156 147 140 134 114 102 89 92 82 97 94 88 59 56 69 58 66 27 50 24 58 76 91 87 99
130 136 156 190 167 152 136 112 94 64 33 3 18 43 73 97 132 144 122 128 120 113 99 87 72 70 61 57 56 59 60 36 44 77 64 67 114 106 114 114 112 97 103
122 113 131 138 123 99 68 62 67 64 59 57 91 128 110 114 92 90 80 78 89 87 82 71 61 53 40 58 54 65 70 87 112 107 130 146 157 163 80 135 190 143 191
91 114 100 86 74 48 44 41 57 76 82 96 84 78 88 62 54 56 74 74 60 58 59 44 35 37 30 50 69 85 90 75 81 86 92 103 123 118 185 122 161 118 97
94 100 79 65 62 53 65 58 69 69 79 99 100 90 76 69 73 82 74 60 36 20 21 8 14 21 34 47 55 61 71 74 77 85 97 118 143 143 166 177 142 121 103
84 78 68 64 66 77 62 55 67 82 90 105 98 86 78 76 78 67 56 64 46 27 43 53 62 69 76 75 70 72 78 74 78 87 110 122 124 131 142 151 143 131 133
72 78 68 67 77 86 71 76 95 102 108 114 103 98 96 72 66 73 60 50 46 43 68 71 87 82 80 78 70 58 57 49 51 73 82 83 91 98 120 131 175 176 138
76 77 78 84 105 99 106 124 133 137 141 128 120 124 115 111 79 71 56 51 55 65 99 111 93 85 79 71 59 43 27 17 33 45 42 52 58 72 90 149 146 172 148
95 90 103 116 127 139 159 189 195 192 163 152 137 125 116 103 80 66 73 78 96 122 110 90 82 70 52 35 28 32 36 57 75 74 76 76 103 103 118 120 126 136 157
76 103 131 150 179 195 216 227 233 201 180 161 148 147 124 103 64 77 91 101 101 118 103 79 62 54 51 51 49 49 49 69 73 76 80 93 100 98 97 81 62 68 105
98 136 168 206 227 257 263 261 235 214 177 167 167 151 129 104 124 130 122 129 119 104 74 63 62 60 51 39 40 56 80 94 103 118 114 115 108 88 66 55 55 48 27
170 189 227 248 260 285 278 255 237 218 185 172 156 158 142 149 139 151 143 124 106 88 80 73 61 45 41 54 63 82 105 127 132 128 124 119 111 102 95 83 75 60 77
181 234 278 272 290 288 257 252 235 191 160 151 150 134 120 116 124 120 126 115 97 73 66 53 43 47 55 59 91 116 129 132 124 119 124 111 100 90 86 88 86 90 86
219 259 279 277 282 270 268 239 220 193 155 135 109 96 84 101 122 138 110 89 71 58 43 42 50 53 69 96 116 123 133 135 130 123 109 104 95 81 95 121 110 104 117
203 227 220 230 255 261 251 246 205 151 115 105 99 72 50 115 122 104 91 76 57 49 47 52 55 75 96 96 112 130 137 121 116 107 96 110 95 82 53 51 42 57 105
171 160 175 219 240 267 250 222 170 116 128 117 67 58 109 113 102 90 77 68 55 51 53 59 76 94 104 88 85 87 115 125 105 97 108 117 99 63 84 53 29 74 44
133 167 211 243 270 254 227 182 141 135 149 122 111 104 111 118 105 86 66 61 53 50 61 78 84 89 93 62 70 87 129 124 105 97 86 86 92 82 58 73 108 64 75
118 160 208 242 244 219 181 158 122 113 134 128 108 123 120 101 84 77 67 48 52 70 80 78 78 86 99 64 83 101 124 122 103 98 88 83 88 50 24 69 74 56 81
148 195 219 237 227 208 179 153 154 145 131 123 119 111 91 83 75 62 48 56 76 86 94 94 94 71 90 60 64 91 125 110 118 99 93 57 52 17 38 65 71 97 104
187 212 220 221 209 184 171 169 145 138 129 117 102 88 84 79 57 60 57 71 80 83 95 101 102 84 78 83 61 63 100 111 123 116 116 126 38 43 30 19 77 89 63
181 199 216 213 192 201 160 155 151 137 115 93 87 90 85 78 73 66 78 86 87 94 97 111 123 119 91 78 69 47 43 41 103 110 138 131 42 18 14 32 20 12 30
166 177 194 198 190 174 177 168 137 106 90 97 99 94 89 80 64 78 83 94 94 109 119 128 159 151 134 123 59 34 38 54 95 130 99 53 35 30 43 21 13 2 -10
168 182 187 172 168 176 168 126 96 94 102 97 98 98 82 67 81 92 95 106 106 108 116 142 162 161 140 134 129 132 132 100 117 107 108 69 52 45 52 74 69 28 14
179 183 182 174 151 129 110 107 107 102 105 105 97 82 81 79 87 96 99 98 95 99 121 133 150 156 153 137 83 96 121 122 106 77 121 105 84 96 97 72 53 67 44
185 186 163 131 117 118 121 107 97 105 109 103 91 85 85 100 100 103 111 79 57 41 37 48 92 133 96 67 72 55 49 60 50 104 111 95 90 28 42 62 104 115 67

GFSMW_con_3kmhel_024.txt.gz
Helicity
92 105 117 108 112 140 161 178 167 99 64 62 85 109 132 132 157 171 181 174 160 157 143 113 112 109 97 91 85 82 77 72 82 75 78 65 -6 12 44 93 102 68 76
107 122 137 150 170 197 210 171 137 106 73 60 74 87 118 143 149 151 167 161 152 141 115 104 94 94 78 79 75 71 59 60 73 53 44 12 35 55 216 117 81 84 98
116 120 142 189 210 218 167 131 103 89 67 60 62 81 99 116 136 142 131 129 117 111 99 87 72 67 58 59 57 60 53 54 61 88 72 74 95 89 45 112 60 129 160
147 139 169 211 198 153 119 100 79 69 63 58 67 81 81 102 109 103 92 84 95 95 85 72 59 49 37 48 44 57 68 88 98 95 97 110 117 116 70 115 142 31 150
159 156 178 170 136 115 99 73 74 87 83 87 89 96 112 92 79 72 76 78 73 74 66 46 35 34 30 50 61 72 75 65 73 73 75 79 80 85 120 122 143 118 121
125 139 149 119 112 92 81 74 88 95 97 115 131 128 117 97 84 91 82 66 50 43 60 42 37 40 65 81 70 63 76 76 75 73 75 89 107 96 107 127 121 99 75
88 110 112 107 104 97 86 87 97 110 106 122 127 116 97 88 97 85 71 59 62 67 61 50 59 92 91 85 79 75 78 74 83 75 91 84 70 66 84 94 120 132 129
76 87 99 108 101 102 108 111 111 113 117 130 132 104 94 87 84 83 65 67 64 62 66 86 99 103 89 79 80 66 76 67 56 44 45 54 66 79 91 134 164 171 152
78 96 111 110 116 127 137 133 137 149 156 157 133 132 128 128 114 96 61 47 75 86 100 107 107 101 94 84 71 67 59 61 62 72 83 98 111 116 166 167 194 218 257
97 110 118 124 136 157 172 161 160 188 190 185 163 151 145 149 148 115 97 93 109 122 122 119 110 97 85 73 66 64 70 75 94 106 111 122 135 167 178 180 189 195 208
94 111 122 134 166 184 173 166 180 208 217 200 168 147 143 140 142 118 118 132 138 138 123 105 95 84 69 61 62 72 80 101 103 105 121 128 133 170 174 175 172 172 167
104 119 143 175 184 187 190 187 206 219 208 190 173 163 143 119 113 124 131 153 156 118 107 95 80 62 57 63 74 82 89 97 101 108 123 140 162 161 157 159 149 162 157
151 182 187 179 188 202 203 203 221 226 211 194 173 141 113 101 109 117 156 158 121 105 87 78 67 60 63 61 62 83 94 105 117 127 146 145 151 150 155 149 160 157 156
175 180 186 190 203 212 218 234 258 234 214 188 149 127 108 73 52 112 133 114 93 83 81 71 59 51 50 58 83 94 103 125 139 144 151 143 148 142 130 133 114 122 137
170 167 188 205 221 242 256 274 264 244 205 168 139 124 62 26 93 126 109 93 88 79 65 55 49 54 68 78 105 105 119 138 142 134 129 127 105 71 75 119 112 115 128
149 181 200 205 242 253 260 272 262 222 161 141 132 81 68 80 125 111 98 89 74 64 60 63 58 61 77 86 85 108 131 124 128 134 111 101 74 90 74 58 57 62 102
160 190 199 221 218 240 262 264 221 172 144 130 95 91 113 128 108 99 90 87 78 69 69 58 60 69 73 77 79 86 116 131 136 117 109 103 111 103 96 70 46 57 47
188 172 192 199 243 267 261 233 196 163 122 65 85 127 126 117 112 101 91 87 82 75 65 68 71 73 74 74 92 94 112 139 121 99 108 99 92 80 74 84 105 113 85
163 145 163 220 250 242 235 215 186 112 70 130 147 136 125 119 102 97 94 87 94 73 69 73 74 73 71 93 86 88 129 124 95 104 102 90 85 54 35 78 71 58 58
113 153 209 228 225 229 208 194 168 125 147 150 140 127 112 92 94 95 96 91 78 73 85 82 93 86 73 58 57 89 127 116 126 103 97 70 68 36 40 68 74 77 82
139 182 183 201 217 206 181 184 165 159 150 127 126 105 96 98 91 95 87 82 79 86 84 88 97 79 62 58 76 78 116 123 126 135 124 116 47 39 26 25 72 78 58
147 144 184 217 216 191 163 176 174 154 128 122 111 107 100 100 96 94 91 92 85 86 86 88 85 91 86 78 81 69 74 69 126 122 130 110 50 27 24 38 28 0 -31
127 161 198 232 206 172 166 170 164 133 128 122 113 97 92 98 92 94 84 88 93 100 89 89 92 110 117 104 80 67 62 66 111 126 99 55 42 36 45 24 -9 -23 -35
164 187 213 201 178 170 161 153 135 130 126 108 94 98 96 93 86 97 101 104 91 87 83 91 122 137 130 121 120 119 126 98 116 111 118 78 61 42 31 -2 -5 -13 3
180 180 169 159 176 157 144 144 140 123 97 88 93 90 94 90 91 97 102 94 80 91 100 113 133 147 145 132 81 84 121 126 114 98 104 101 64 31 8 9 26 63 24
162 166 168 168 164 165 166 141 111 94 91 88 101 105 95 98 102 96 94 83 71 69 65 53 92 122 88 65 48 49 56 59 63 98 100 19 -35 1 19 42 89 85 68

GFSMW_con_3kmhel_027.txt.gz
Helicity
78 81 96 103 125 138 147 147 146 136 117 100 119 151 152 166 179 185 201 200 192 199 195 159 144 133 123 122 112 97 90 79 90 77 84 82 59 72 200 232 125 102 148
81 109 119 132 150 159 171 186 180 127 109 107 112 110 118 137 155 168 184 180 173 166 150 145 131 128 107 108 93 78 59 66 86 78 72 46 27 126 142 126 129 107 127
108 122 151 182 202 227 225 212 161 129 110 92 87 98 105 119 134 136 138 151 150 144 128 114 95 83 66 63 62 69 74 66 70 95 74 54 87 86 54 87 55 136 103
142 158 171 198 217 232 191 150 128 115 101 89 102 120 115 118 115 116 111 100 104 98 82 71 73 77 64 68 49 71 76 92 78 79 81 95 102 112 102 121 143 54 145
178 178 190 209 232 192 151 124 117 121 111 101 85 76 95 100 90 77 66 61 58 57 58 51 66 65 54 53 62 79 76 81 93 92 87 84 96 110 152 147 138 139 122
189 188 183 205 207 154 128 113 114 120 113 105 107 111 111 102 86 82 75 60 44 28 65 59 62 63 68 68 75 84 87 97 93 90 86 107 142 128 130 137 129 127 111
159 153 167 181 152 130 116 114 120 135 122 121 126 140 142 124 121 104 90 72 44 60 76 66 65 77 86 92 97 100 77 91 94 79 82 105 104 100 122 132 161 173 200
106 102 127 134 132 124 122 126 130 134 125 136 162 168 156 126 116 117 116 98 83 77 68 76 94 109 105 101 95 82 89 75 94 74 92 104 121 131 156 151 178 178 171
98 103 114 121 132 133 136 136 139 143 149 165 180 187 162 151 133 129 118 111 110 79 102 116 118 110 96 90 86 90 76 93 89 96 99 113 138 146 177 199 264 269 212
117 124 122 128 135 145 151 159 160 163 168 188 204 200 174 153 136 128 128 126 115 115 129 132 112 100 96 92 90 87 90 92 104 104 111 120 154 177 207 221 254 272 279
123 132 129 132 148 147 158 172 168 177 187 210 216 199 179 161 133 125 120 108 111 123 128 121 109 104 96 92 95 85 81 98 97 98 121 140 151 189 215 237 236 238 233
118 112 132 152 147 147 163 173 184 201 213 221 214 203 182 156 138 110 75 75 105 122 124 119 109 98 91 88 81 80 86 106 103 114 133 144 178 184 198 210 200 203 179
111 127 177 174 147 158 169 188 213 228 231 228 209 192 176 143 110 66 42 87 120 125 120 111 98 88 87 84 75 72 122 109 116 126 141 143 160 182 184 183 191 175 172
113 173 186 160 165 169 191 220 245 253 247 229 211 200 170 147 99 46 60 110 119 111 102 96 90 82 81 81 72 135 122 118 119 126 129 129 162 156 172 164 155 163 160
144 168 172 166 184 209 224 239 267 258 235 228 213 196 154 113 52 61 99 111 105 99 93 93 84 83 92 86 140 124 123 113 110 100 102 133 131 89 98 160 164 135 161
165 166 150 164 203 219 223 270 260 250 230 221 197 150 114 54 72 98 105 110 107 92 91 85 92 100 115 89 85 114 115 102 85 87 110 140 112 125 105 95 63 82 137
134 150 161 176 224 215 242 237 251 249 247 209 163 102 50 79 104 116 115 103 88 88 97 102 110 119 119 73 83 88 108 88 97 97 140 154 159 134 125 89 79 106 75
160 161 170 224 218 239 239 283 280 259 214 179 104 47 73 115 125 111 97 99 109 105 112 117 124 117 114 72 79 74 94 100 101 128 140 137 140 123 99 118 121 130 109
194 189 200 203 224 236 267 266 246 210 190 141 87 95 120 126 113 107 113 104 115 120 122 118 107 105 122 80 68 78 97 115 123 142 137 115 119 86 62 104 116 98 109
198 193 195 188 219 249 234 231 222 202 187 116 103 107 113 113 110 108 99 116 116 116 118 103 109 97 115 69 56 74 128 134 153 152 131 81 97 68 56 92 98 103 102
165 154 163 202 227 217 216 229 202 190 127 102 113 119 104 107 98 101 107 112 112 110 109 107 111 103 90 99 80 68 118 143 159 161 148 142 72 52 44 37 89 87 -22
144 147 203 203 205 219 218 209 164 127 126 134 135 116 99 98 111 114 113 107 100 110 111 109 118 118 117 114 86 77 89 85 153 146 150 144 59 48 32 52 20 -19 -46
140 152 173 203 206 191 143 148 168 145 141 131 108 95 102 110 112 112 108 114 112 118 129 129 132 144 157 135 91 95 76 87 118 137 105 60 39 41 62 27 -12 -29 55
132 153 164 173 177 142 151 175 155 136 119 102 105 112 110 103 90 117 121 126 136 145 134 135 148 152 148 139 133 128 126 97 120 111 110 73 56 47 -8 -14 17 100 49
123 133 158 161 166 171 176 151 124 113 114 118 114 103 109 101 97 113 125 134 125 147 139 134 148 155 157 141 73 87 123 126 104 62 109 111 83 15 -3 53 99 43 21
142 169 176 191 188 162 139 124 113 125 124 116 113 109 111 107 117 129 140 111 95 97 102 75 98 138 85 49 50 57 55 44 24 92 113 -15 -40 4 32 49 62 92 95

GFSMW_con_3kmhel_030.txt.gz
Helicity
252 105 68 77 114 138 126 93 117 155 207 274 344 363 315 286 269 239 233 235 229 210 217 188 167 154 139 113 106 73 70 75 81 60 52 75 77 83 96 88 72 64 92
239 115 91 103 114 143 176 211 247 268 264 262 258 209 173 165 175 180 190 199 192 178 143 128 100 96 93 96 88 70 32 35 57 29 34 -1 14 57 50 75 78 75 74
280 155 172 178 195 227 234 247 260 252 229 230 203 152 112 109 122 134 141 128 123 99 73 71 72 71 72 65 70 68 74 48 54 84 55 43 45 46 19 73 36 69 74
321 205 200 213 242 252 256 245 189 130 101 80 58 80 106 115 105 96 65 61 59 66 51 28 30 43 59 75 66 76 71 82 84 73 95 101 117 99 73 69 112 58 109
340 270 226 228 238 257 258 243 228 210 180 175 151 130 123 111 101 93 89 68 50 42 17 7 26 48 49 64 73 78 84 77 88 90 96 97 101 118 146 106 127 129 105
353 322 285 270 269 261 233 207 211 214 205 199 181 157 138 135 140 125 91 71 60 43 39 39 45 53 60 63 62 73 79 74 88 98 102 109 123 122 134 136 130 123 125
360 309 260 247 244 220 180 169 177 192 185 190 183 174 176 169 158 121 100 97 73 50 54 59 57 58 69 76 79 78 75 82 97 98 110 120 121 129 138 146 152 150 144
280 208 207 230 227 183 163 168 173 178 171 171 179 179 184 158 139 130 108 89 78 70 89 93 91 86 84 82 84 83 90 91 101 101 111 122 128 133 139 148 157 155 155
187 158 198 214 192 177 165 166 170 169 169 173 175 182 188 185 160 149 125 104 96 94 103 101 92 88 89 92 91 90 91 105 111 118 124 136 138 143 152 166 173 178 163
158 177 196 197 181 178 176 171 167 177 189 191 191 198 197 192 161 140 126 107 86 91 89 92 90 86 89 94 101 105 111 124 130 123 123 123 133 142 156 176 193 224 244
179 217 210 191 215 206 187 208 192 195 203 211 224 219 207 191 162 136 112 89 72 84 89 84 84 89 94 101 113 121 122 125 127 120 125 126 125 144 165 177 206 221 233
202 218 230 254 234 199 211 188 188 214 218 226 229 223 210 178 152 132 107 61 71 84 83 89 92 97 106 117 125 130 123 143 145 126 123 120 136 132 155 188 186 217 211
221 198 239 250 205 206 209 207 222 222 234 238 235 228 196 170 154 123 79 67 80 82 85 95 99 107 115 124 127 123 155 141 129 127 121 114 113 125 161 177 192 192 194
207 201 247 241 206 220 235 238 249 253 260 273 256 211 183 158 121 96 83 77 77 78 86 91 105 116 125 125 112 139 139 143 142 120 111 100 112 136 139 151 154 179 199
183 213 263 215 243 258 248 267 278 257 262 266 229 206 168 128 101 81 71 71 77 78 84 107 120 118 117 115 123 133 148 143 140 109 99 111 99 67 86 153 172 167 174
219 276 245 234 271 272 260 314 305 278 271 237 226 186 148 102 64 65 77 66 65 86 108 110 112 128 136 100 75 98 140 145 124 112 118 127 97 108 106 107 71 87 152
233 257 230 268 299 270 319 337 286 270 260 251 200 157 120 72 68 63 59 71 94 101 100 112 135 145 140 63 57 69 129 145 138 127 133 137 150 121 139 93 67 116 82
245 258 300 334 332 341 344 328 292 268 238 192 164 141 94 71 63 67 83 93 98 100 122 135 134 138 121 44 54 58 135 148 147 144 141 136 139 121 91 97 122 132 136
348 334 359 383 386 387 376 308 268 215 182 178 168 105 82 79 76 85 86 85 105 125 143 136 126 122 106 66 53 72 132 148 152 154 153 135 123 76 42 81 119 116 131
392 388 379 370 366 317 271 249 194 164 190 167 111 93 85 68 74 85 87 108 120 126 128 115 112 85 111 75 59 112 160 166 169 163 151 89 97 41 28 78 95 106 94
316 305 288 287 250 221 214 186 176 205 158 121 100 79 64 70 81 89 104 116 116 122 120 111 117 122 116 123 111 104 148 164 161 160 153 146 50 36 33 21 80 49 -35
221 220 255 227 194 173 194 189 200 148 126 102 78 65 80 90 85 99 113 104 112 113 112 121 131 137 139 118 102 90 99 87 137 135 149 141 44 24 18 36 9 -11 -41
179 194 199 210 185 180 155 186 144 129 105 80 94 104 89 77 95 108 105 118 105 114 128 139 146 152 154 152 70 56 60 77 93 123 95 47 39 31 53 25 0 -4 45
154 157 162 162 162 163 195 156 121 101 100 117 111 81 83 99 110 110 111 117 114 124 130 136 151 167 173 150 139 118 108 87 101 107 110 79 49 44 9 49 85 63 59
130 133 133 134 142 133 134 121 114 121 130 116 80 88 110 114 106 106 110 112 111 115 113 135 165 178 173 144 63 78 106 104 90 49 99 83 71 18 61 102 75 107 115
116 127 128 155 130 120 118 118 127 133 118 90 100 108 111 111 113 121 126 93 77 59 63 65 101 147 98 52 50 53 43 42 41 86 22 -31 6 28 45 68 150 160 134

GFSMW_con_3kmhel_033.txt.gz
Helicity
226 201 133 115 118 122 114 113 157 204 365 444 493 502 479 427 379 306 262 245 215 199 163 132 128 114 100 94 96 76 83 74 79 35 30 18 30 82 88 70 94 72 97
290 217 163 161 155 144 136 166 220 302 385 404 382 333 316 284 238 219 218 190 171 140 113 86 73 70 65 86 87 72 34 15 23 -9 -21 -29 2 85 56 77 76 85 72
304 294 252 222 216 220 209 213 234 291 307 286 276 253 243 222 201 178 163 142 124 103 78 56 39 44 48 61 57 60 62 34 46 73 37 38 57 47 36 54 67 61 76
346 379 338 310 263 222 227 240 262 279 249 184 184 161 132 125 96 105 99 107 99 84 64 51 42 37 36 59 51 67 67 74 75 54 97 90 112 80 63 160 93 66 98
405 410 372 348 296 269 291 286 278 242 194 179 161 146 137 117 123 121 119 96 94 81 63 50 43 45 45 52 70 77 86 67 63 69 77 81 96 97 140 115 153 118 112
416 401 376 386 354 324 332 326 311 276 246 210 186 167 161 153 166 154 137 97 73 65 62 61 66 67 63 62 63 65 72 63 70 83 96 113 122 121 126 131 134 146 143
441 416 385 393 339 321 313 319 297 276 259 250 219 192 181 180 170 153 124 105 74 57 54 56 71 62 63 69 68 68 68 69 84 93 111 135 145 147 173 193 183 175 171
369 324 311 335 294 276 293 286 263 255 245 235 218 197 190 175 165 150 122 99 82 68 65 74 78 75 75 76 78 71 78 90 101 110 131 144 133 145 176 196 200 195 183
313 270 280 259 259 266 258 234 228 225 210 206 210 201 187 182 157 151 130 100 86 73 78 82 80 81 84 85 84 84 88 102 111 129 143 141 134 148 161 178 184 202 202
257 236 234 229 234 240 225 220 206 197 191 202 203 193 182 177 171 156 129 106 84 73 80 82 86 84 84 84 87 93 105 116 131 147 148 144 154 152 152 168 180 182 198
224 220 208 208 231 236 218 214 212 215 216 213 206 204 200 193 171 145 114 99 83 82 84 78 78 77 76 77 97 111 110 135 147 129 158 142 134 143 154 154 166 185 199
231 233 216 238 249 235 226 222 225 231 207 204 218 212 208 185 167 134 113 94 84 77 73 75 74 75 86 94 106 122 136 165 162 150 153 140 138 137 135 156 163 179 182
254 248 238 249 246 235 236 246 242 234 217 229 224 229 202 176 145 119 96 83 79 75 71 74 78 83 90 102 117 130 138 156 151 144 141 130 124 128 143 155 155 155 157
267 263 246 232 226 234 252 264 261 247 239 236 240 210 183 154 121 100 83 81 75 69 72 75 79 87 100 111 109 127 158 159 154 139 134 124 123 133 124 127 143 164 168
274 269 262 230 235 266 282 292 282 267 252 248 219 189 160 134 112 93 85 74 66 70 71 76 86 99 105 105 126 143 157 157 147 144 145 133 93 71 91 136 146 135 152
251 285 273 237 248 291 315 304 266 240 244 222 200 171 149 129 101 84 73 72 74 70 71 91 109 114 108 82 105 126 142 149 157 153 144 152 97 88 63 71 51 66 125
293 294 282 255 279 312 331 302 255 234 228 214 181 162 136 107 87 82 85 75 65 71 90 102 110 128 142 101 94 91 127 148 170 161 160 147 131 101 124 76 54 80 78
292 316 308 313 352 365 355 323 252 234 216 181 165 135 117 100 91 86 72 67 74 94 106 110 125 143 130 85 85 84 144 165 173 172 153 130 130 107 82 100 106 130 100
323 342 349 420 412 387 329 270 243 216 192 166 138 122 108 99 82 78 70 65 94 109 124 129 134 139 118 88 98 136 166 183 184 156 140 113 104 66 23 78 86 88 86
445 447 445 448 428 319 265 252 209 188 163 134 121 111 97 81 79 63 58 84 101 114 131 125 123 94 114 102 116 159 183 181 169 147 112 68 71 22 30 68 82 66 -49
457 428 403 366 284 248 239 225 184 154 131 126 116 98 85 69 46 53 81 97 112 124 127 129 122 114 113 126 109 122 156 139 143 141 134 133 50 35 20 -7 29 -5 -41
337 311 310 258 211 211 223 186 161 126 127 118 104 89 69 50 62 84 89 104 120 123 131 139 136 126 119 80 90 84 82 56 120 129 136 134 54 -9 -19 -39 3 -10 -36
238 215 233 230 200 179 158 162 119 121 118 114 109 80 57 71 83 85 100 112 113 123 119 127 121 119 129 154 78 68 45 76 99 120 83 71 28 -17 -30 6 -1 -17 36
177 192 206 198 171 132 138 132 117 120 123 113 82 72 93 92 81 92 102 110 121 124 112 110 123 138 153 143 142 120 105 91 98 81 100 55 -20 -13 12 33 31 75 82
140 144 134 129 132 143 145 127 125 119 113 89 89 100 86 78 85 95 98 112 99 103 110 124 144 158 158 138 88 86 97 98 85 70 103 -12 -3 38 59 61 95 95 93
104 104 103 120 116 131 137 123 107 98 94 109 109 88 81 87 95 101 103 85 78 70 74 92 132 149 95 66 65 54 50 42 30 97 -27 -1 33 38 50 100 133 123 113

GFSMW_con_3kmhel_036.txt.gz
Helicity
155 173 159 158 162 157 174 213 296 321 404 490 537 565 527 442 402 316 270 228 204 187 160 135 122 102 93 84 93 75 96 93 80 55 61 62 89 96 131 87 135 78 108
185 178 169 170 150 163 184 215 284 353 437 488 506 499 454 421 331 277 268 244 208 166 144 115 96 85 71 89 94 85 62 51 55 22 3 4 34 89 39 84 60 92 70
215 222 210 196 194 193 182 210 236 282 347 415 474 455 396 322 282 282 265 217 175 144 119 96 73 68 64 68 63 71 68 50 40 45 42 29 58 43 35 41 76 61 76
253 295 293 260 240 228 236 230 242 267 283 287 297 250 237 247 203 194 172 180 151 126 99 77 66 57 46 69 64 75 68 67 68 47 84 68 86 70 70 102 63 62 82
340 345 334 303 291 264 290 288 295 274 236 210 199 216 243 210 176 157 168 158 131 102 85 73 69 70 69 77 91 94 98 73 62 65 62 68 89 97 150 121 123 114 116
380 453 438 396 363 330 342 315 300 275 244 218 209 209 197 162 153 128 136 122 101 93 89 84 83 82 94 98 93 88 87 75 72 75 88 103 108 128 143 156 168 185 188
449 475 444 390 366 341 357 340 319 290 247 236 208 183 167 150 141 121 111 111 100 90 86 84 100 102 106 110 96 85 79 72 81 89 107 136 158 185 206 219 217 252 253
467 427 423 405 384 360 390 360 329 292 255 244 225 200 183 168 152 135 133 122 105 83 74 95 113 124 120 105 93 77 78 87 99 111 133 153 164 178 201 233 265 268 286
448 444 397 382 385 363 359 333 313 279 254 242 228 214 194 185 169 164 155 132 111 93 109 118 127 126 114 99 89 87 90 98 102 114 142 158 161 179 211 225 241 274 315
406 364 334 350 341 318 313 304 266 235 230 239 226 214 206 191 174 166 151 138 114 109 131 133 134 122 105 92 91 96 101 109 124 130 145 162 193 199 194 205 205 210 230
299 303 309 309 295 292 270 277 266 255 244 239 235 226 205 192 179 164 146 125 115 135 135 132 124 103 89 89 98 103 103 124 123 138 162 173 169 174 181 175 179 190 192
264 254 263 261 253 252 250 247 238 237 227 232 234 217 206 188 177 160 138 122 138 130 129 117 102 92 90 94 105 109 111 126 156 161 169 169 166 161 145 165 172 185 185
214 219 241 225 227 232 229 235 234 243 233 239 233 228 199 184 171 152 142 139 128 120 119 111 102 95 95 96 99 102 120 149 165 165 171 170 175 160 158 172 176 177 167
202 213 214 194 197 221 244 248 247 241 244 239 234 209 189 174 163 146 130 124 118 123 117 105 90 90 91 90 98 121 146 159 162 173 185 179 169 159 155 157 153 170 169
183 198 195 202 230 245 249 258 266 254 232 238 218 198 179 176 152 132 127 118 128 119 101 92 94 95 94 98 108 131 156 164 180 189 179 160 135 120 142 163 167 138 150
177 188 205 225 226 258 279 278 256 234 226 216 201 180 179 157 138 130 127 133 124 100 91 101 95 90 106 91 109 155 173 173 177 166 161 186 139 132 108 91 62 68 112
195 212 214 220 242 261 280 263 237 212 203 199 185 173 159 145 145 136 133 118 97 90 94 90 96 112 119 113 144 150 169 172 160 180 195 195 172 115 121 80 49 81 68
198 224 241 260 267 290 295 275 222 205 201 187 174 162 154 151 135 130 115 97 89 91 92 93 107 106 109 143 152 139 165 161 171 190 195 175 122 115 86 104 132 151 76
227 274 289 332 316 308 282 250 213 197 185 183 169 156 145 140 128 120 107 85 91 93 99 106 99 116 127 127 130 138 150 152 170 184 167 105 106 69 34 99 97 81 93
347 375 336 340 346 289 262 244 202 192 182 161 159 147 136 131 124 102 93 85 84 81 104 108 120 123 141 94 105 112 146 157 179 157 106 67 75 32 53 72 80 -79 12
362 355 338 339 310 275 254 230 197 185 173 165 149 143 135 125 100 88 81 77 81 99 114 121 129 126 113 113 63 102 163 162 168 132 131 117 45 42 27 -25 53 57 -14
375 362 377 324 264 244 244 207 195 171 168 158 151 146 129 108 102 99 81 89 103 110 119 129 129 113 108 65 93 119 111 107 139 135 132 120 47 25 -9 -23 20 -12 -27
339 293 315 290 223 195 198 213 164 158 158 155 164 148 119 117 99 86 88 102 108 121 127 126 130 121 117 143 94 91 86 92 117 132 82 62 50 1 29 35 -12 -11 18
273 250 256 217 191 182 185 173 148 146 157 172 155 142 129 106 91 92 95 100 112 122 122 130 133 132 140 148 149 135 121 107 113 83 108 74 23 45 48 17 45 50 28
171 167 180 188 173 164 173 151 147 153 172 163 150 128 103 96 95 99 89 102 101 112 132 138 144 150 151 143 114 106 118 112 91 66 100 91 91 89 74 70 91 91 77
154 182 167 167 147 159 160 151 142 144 159 154 125 104 103 98 100 107 114 101 107 109 116 121 144 165 124 90 81 76 80 52 47 85 86 92 92 77 66 96 124 131 106

GFSMW_con_3kmhel_039.txt.gz
Helicity
47 59 105 139 129 146 176 223 276 357 446 483 496 489 468 464 435 374 313 281 229 196 180 152 136 108 93 80 85 66 96 91 80 47 66 91 111 110 124 71 109 106 75
27 78 120 171 137 139 172 239 286 345 446 501 507 539 495 461 421 352 309 231 218 198 172 138 117 106 84 96 87 82 63 67 61 36 22 36 55 98 63 96 103 116 67
38 117 141 152 165 154 180 232 283 367 410 476 551 599 557 453 395 330 277 266 224 189 157 129 101 93 78 71 66 69 71 64 56 60 59 46 67 53 39 113 115 69 76
90 137 207 226 193 169 201 259 282 321 366 413 467 412 395 356 258 242 241 244 206 172 139 118 102 86 69 83 68 85 73 67 69 54 88 72 84 80 92 95 89 58 59
138 166 230 252 229 220 235 269 277 278 301 320 343 378 392 334 279 261 253 210 182 152 129 107 93 86 80 92 107 109 113 83 75 66 62 66 83 87 139 128 108 77 77
159 213 337 343 306 292 288 299 296 280 275 285 281 283 307 254 240 208 193 166 147 136 125 109 99 105 115 117 113 113 110 91 83 76 73 73 76 97 113 142 134 127 115
256 292 350 362 307 278 312 317 320 294 265 264 252 244 228 196 180 158 144 132 125 120 128 115 119 115 116 121 118 110 99 84 81 80 89 108 125 150 163 166 155 172 180
279 320 366 388 340 323 345 346 337 319 278 265 251 232 220 199 185 154 145 143 134 126 124 128 128 135 135 128 114 93 83 83 83 89 97 118 135 151 181 191 189 172 204
309 379 451 421 387 366 344 345 367 331 296 278 267 252 218 201 177 172 160 147 140 130 140 134 141 135 131 119 103 94 93 93 92 92 103 133 135 155 184 199 211 241 243
348 459 481 430 395 369 371 370 335 308 291 283 257 231 221 205 184 173 167 163 154 145 149 148 149 136 126 115 108 98 91 92 98 109 132 145 164 169 175 192 194 203 227
411 523 490 404 399 388 357 360 335 315 294 273 260 252 230 213 200 192 174 161 156 157 160 152 142 137 125 113 104 95 83 102 112 125 139 143 154 184 189 193 192 200 203
363 387 362 359 361 357 338 327 313 300 266 258 262 245 225 213 210 191 169 155 165 155 146 144 143 133 118 107 103 93 97 107 113 117 143 153 167 188 190 200 182 201 217
302 309 301 298 312 319 297 284 273 282 263 260 253 245 232 219 199 176 166 164 160 158 161 149 141 122 111 102 89 92 101 104 120 136 156 165 185 193 193 200 194 157 171
237 245 246 255 260 250 256 268 275 256 250 255 254 246 221 197 178 168 163 168 161 165 146 136 122 114 99 85 86 101 105 117 127 147 164 175 190 199 183 162 186 184 180
173 187 214 218 226 239 247 253 255 249 244 256 250 230 207 190 178 173 173 167 162 142 134 129 118 104 86 87 92 106 108 124 144 156 162 182 187 144 166 192 168 150 165
142 160 192 212 209 222 243 248 244 236 237 241 237 212 198 187 175 170 173 165 144 139 134 122 99 91 95 90 101 107 141 153 155 170 186 206 142 147 106 88 76 72 116
146 167 179 189 201 219 239 231 228 227 235 230 206 195 183 178 172 177 162 144 142 131 115 100 96 100 103 77 95 110 149 160 172 188 189 180 162 112 138 104 62 87 98
139 155 184 203 216 233 239 243 217 210 210 205 199 187 178 184 179 159 152 144 123 108 100 99 102 106 104 87 94 104 159 179 180 175 159 151 128 118 87 108 134 95 95
174 190 204 235 240 238 233 250 222 211 206 192 189 184 188 168 160 164 152 118 108 108 102 100 103 108 101 81 101 140 168 159 157 149 137 99 107 68 40 105 106 93 103
230 276 245 246 259 225 254 258 219 207 191 175 186 178 167 172 168 150 126 101 100 93 97 102 108 89 110 91 122 137 151 148 153 152 111 88 81 36 48 75 78 96 103
253 252 240 244 237 262 279 255 204 171 178 194 184 188 184 174 154 130 109 108 96 101 111 103 100 100 110 123 105 116 145 149 158 140 126 115 44 36 10 -14 80 87 22
251 258 318 292 264 266 258 214 192 186 196 196 203 200 183 162 141 139 108 100 105 100 98 107 114 118 114 88 102 110 114 117 140 134 123 114 37 2 -15 39 34 9 8
273 262 323 309 250 217 208 227 180 196 216 220 204 187 173 153 135 119 113 104 99 96 101 111 125 127 113 120 75 92 91 94 113 134 81 46 40 6 48 36 -11 8 94
257 248 291 285 248 213 218 221 202 201 203 213 208 188 163 138 125 116 102 90 90 102 109 120 130 134 121 123 139 134 125 110 112 94 103 70 52 43 53 68 74 102 97
229 241 259 239 223 222 233 199 186 193 223 211 181 161 144 138 127 109 87 95 88 101 124 129 137 133 132 128 120 119 122 116 99 78 102 88 79 83 79 82 101 113 108
194 232 225 230 205 215 206 183 177 179 185 180 161 146 140 129 114 108 107 95 101 99 100 109 123 146 123 111 105 79 85 62 65 92 89 94 92 89 84 108 127 139 100

GFSMW_con_3kmhel_042.txt.gz
Helicity
105 96 66 89 127 144 130 130 170 254 379 448 472 443 441 407 431 420 347 316 240 187 194 169 154 121 103 81 80 47 81 77 73 43 74 95 120 116 129 98 63 101 56
104 90 83 96 149 131 129 152 184 262 336 413 470 494 483 462 445 418 373 226 245 206 199 164 144 114 88 87 74 77 44 38 36 22 8 51 70 122 72 55 98 87 57
78 49 59 95 125 115 130 165 202 275 361 458 552 609 554 492 466 437 382 323 242 237 191 162 124 104 75 66 60 54 66 56 45 53 37 30 51 69 27 104 68 95 51
123 83 76 128 107 125 141 180 232 281 309 370 441 472 479 442 348 357 304 262 223 214 176 140 113 103 86 83 60 66 44 33 55 43 69 58 69 72 77 71 94 47 50
129 141 126 130 138 173 191 200 250 283 320 343 376 476 513 447 435 363 293 254 238 196 159 128 118 112 87 75 90 85 83 64 60 54 55 65 76 92 119 129 91 64 61
132 144 185 246 262 222 232 229 260 282 312 340 369 380 434 399 330 249 262 238 193 168 146 132 115 104 93 96 96 96 106 88 82 71 72 64 73 80 82 112 97 78 60
158 191 221 283 314 225 233 233 244 272 300 326 322 305 325 290 250 215 191 166 154 145 134 116 112 107 112 118 113 109 101 93 87 82 81 87 100 121 131 140 116 113 102
127 178 225 269 289 257 249 249 260 301 304 295 292 300 283 262 235 187 173 168 151 128 108 117 127 135 126 119 107 99 92 95 91 89 90 109 115 134 145 151 123 82 120
131 145 236 297 321 304 308 289 319 324 315 300 310 317 289 254 222 213 193 171 135 115 124 137 143 134 133 123 113 103 94 91 92 95 100 122 121 139 153 172 190 185 172
148 202 268 314 346 370 382 338 317 322 334 342 337 315 281 247 222 206 193 164 141 129 136 145 143 137 132 120 113 99 95 104 104 106 108 113 143 160 182 197 206 219 216
151 220 293 374 369 406 359 385 367 384 389 355 351 327 283 258 234 205 170 151 135 135 141 141 141 136 127 121 110 98 91 106 103 102 108 123 149 177 191 209 213 223 233
244 294 342 401 357 361 351 373 383 409 364 327 337 306 274 243 219 191 164 139 143 138 139 145 143 133 123 111 109 104 100 98 98 103 126 130 150 163 173 193 201 211 208
232 260 320 338 346 337 344 389 382 388 339 323 317 290 248 221 203 177 154 149 143 143 148 145 139 131 118 113 103 92 91 90 95 109 129 133 148 145 157 183 197 213 191
179 231 268 283 290 303 345 383 385 330 304 311 287 249 219 203 179 160 158 155 141 141 136 134 134 123 109 92 85 90 88 95 120 131 131 132 132 133 155 185 195 184 179
138 157 212 240 272 310 344 344 320 292 280 285 260 231 206 186 177 174 163 146 141 133 133 137 131 111 90 84 80 83 99 123 129 124 126 127 119 128 175 189 181 153 146
82 127 193 224 243 270 281 274 265 265 253 248 233 203 192 191 183 169 149 137 139 134 134 132 110 92 87 68 69 97 131 127 128 125 131 170 140 160 111 97 85 74 94
69 113 154 177 195 213 227 236 230 229 238 231 204 200 198 196 178 152 141 149 142 133 125 101 88 88 85 66 81 91 134 136 127 134 165 181 175 126 151 106 56 67 63
91 118 154 187 202 216 221 222 210 213 221 218 209 196 193 181 162 149 158 152 133 122 93 84 84 87 88 83 87 93 133 129 141 172 163 159 144 126 83 100 122 95 98
89 113 152 197 205 199 202 238 223 224 226 203 190 175 170 166 158 166 165 131 118 101 95 84 83 88 84 91 93 92 124 147 152 158 133 125 117 63 23 99 99 76 94
141 173 182 201 217 188 221 245 222 208 188 172 178 180 173 174 167 152 131 108 98 95 86 84 78 77 107 83 75 81 142 153 158 139 140 97 81 24 49 83 80 78 89
178 186 176 183 191 213 236 231 195 176 176 199 203 203 177 172 146 129 114 111 98 93 85 80 100 101 96 96 67 103 141 148 158 145 135 128 37 33 37 28 77 82 29
178 194 237 218 202 213 239 224 193 187 218 223 205 188 168 152 140 141 114 99 96 84 87 98 103 111 105 72 94 96 113 109 146 128 127 113 36 31 26 40 25 5 20
194 192 238 245 210 195 201 222 193 227 227 219 192 171 165 150 130 120 106 91 81 90 94 101 111 113 106 122 73 79 76 80 104 123 71 45 44 37 48 28 10 21 86
198 203 258 261 273 224 220 243 209 213 219 205 186 171 161 144 121 102 87 84 89 96 98 102 108 125 124 116 116 122 124 94 106 92 106 74 60 42 46 54 68 94 86
197 204 231 253 246 244 265 220 203 203 203 189 177 159 140 126 109 93 79 91 87 84 93 105 125 131 128 113 97 113 113 124 100 86 112 93 76 75 73 88 102 109 112
184 242 266 284 255 267 240 197 166 170 180 173 148 132 124 114 106 101 101 98 83 77 88 101 117 127 98 98 99 77 91 79 69 98 94 90 86 81 92 103 124 147 123

GFSMW_con_3kmhel_045.txt.gz
Helicity
134 186 166 165 113 95 102 101 138 135 203 247 312 343 394 406 360 335 350 354 282 240 170 172 134 133 130 105 83 60 78 69 58 44 61 73 91 97 114 102 98 121 104
71 122 152 163 168 138 129 132 145 149 184 233 311 409 502 469 452 408 381 368 300 239 174 148 154 132 101 106 104 70 34 33 41 18 -1 51 74 106 82 86 118 103 117
98 90 90 143 189 149 140 156 141 157 217 313 458 519 558 499 451 434 421 373 289 221 213 169 149 123 97 85 76 74 57 43 43 63 40 25 60 89 79 127 102 124 87
117 99 101 121 149 154 172 161 144 168 204 257 345 417 474 456 382 410 404 375 308 244 217 144 138 114 83 83 82 64 56 40 56 42 70 76 89 78 60 68 82 66 39
105 106 85 109 147 173 167 180 166 162 177 218 293 408 509 444 434 436 400 328 277 205 154 131 121 106 94 94 82 71 71 59 43 54 67 81 84 89 98 99 69 47 29
104 110 113 86 165 199 199 206 199 184 196 240 299 389 477 421 402 373 349 259 234 183 155 136 117 105 96 84 77 76 76 67 70 71 71 69 80 84 81 95 70 59 16
141 94 154 149 164 208 212 236 213 207 221 259 299 320 403 385 358 305 266 220 184 165 136 113 100 96 87 85 86 86 84 90 89 86 83 69 67 73 76 80 82 98 84
91 128 117 169 170 232 235 234 233 242 236 269 308 351 371 387 326 249 211 185 155 132 105 107 104 96 95 96 94 96 94 94 89 85 72 76 81 96 100 105 98 83 84
136 120 113 131 201 229 249 269 288 279 260 288 344 362 355 354 279 228 197 161 141 115 108 104 102 96 104 109 109 103 101 98 97 86 83 87 98 112 119 131 137 136 137
157 142 127 137 195 236 288 305 282 310 295 315 341 379 361 318 251 211 176 148 132 116 112 105 100 102 109 118 115 111 107 101 93 91 96 102 119 127 139 147 161 184 185
203 145 127 195 232 286 308 327 350 364 351 354 390 408 345 283 244 208 164 139 127 119 112 105 107 108 113 123 116 109 94 95 96 103 112 118 127 136 149 169 185 192 182
281 166 190 237 266 320 308 336 364 374 358 393 419 387 334 280 232 185 155 135 135 118 114 111 112 109 121 110 104 99 92 92 100 114 128 122 135 130 146 168 159 155 153
199 173 188 219 292 325 338 357 340 403 394 408 411 359 302 248 198 171 153 139 123 120 119 116 112 115 106 94 85 78 84 98 112 117 113 112 124 135 145 136 132 130 141
125 168 187 225 306 333 326 344 375 378 374 382 348 304 248 204 176 157 143 129 119 122 120 108 107 99 89 81 77 78 92 107 108 107 108 119 130 132 114 95 110 163 174
109 143 197 263 308 319 321 347 377 354 331 338 302 261 226 197 170 151 137 133 134 122 100 100 100 90 80 80 79 82 96 104 108 107 115 123 115 61 96 159 183 162 148
80 112 176 232 253 261 288 323 328 306 284 282 259 227 207 175 153 144 144 146 118 98 105 107 93 92 79 64 75 90 104 114 113 112 114 116 75 86 100 122 99 92 101
23 52 107 164 187 222 253 281 276 254 253 247 217 196 172 162 155 148 149 117 100 103 102 91 85 77 67 67 82 89 115 119 110 114 111 99 113 116 132 96 70 60 61
10 51 104 149 183 211 244 256 216 212 223 214 194 172 166 172 164 158 124 98 101 98 83 78 68 67 70 80 86 87 105 115 116 97 83 105 113 110 88 106 127 80 76
10 63 93 139 163 186 197 218 201 205 206 182 168 166 168 164 146 131 108 102 90 88 79 63 67 72 84 84 75 91 119 116 87 85 86 108 106 75 47 101 97 73 67
47 103 108 140 171 150 169 201 191 191 180 173 174 166 160 144 122 104 106 94 90 81 66 67 76 77 74 73 84 98 110 102 115 103 114 94 92 41 41 78 83 83 64
91 94 114 134 133 144 188 212 186 192 189 200 185 159 133 136 121 112 98 92 88 75 82 84 78 75 84 95 95 92 111 118 132 139 122 117 44 28 34 28 74 74 55
95 113 157 147 130 147 200 204 206 184 187 176 166 154 140 123 113 115 96 88 91 92 82 77 86 93 95 98 91 83 94 98 143 118 111 93 32 28 29 48 35 13 27
136 119 175 190 154 154 188 227 175 184 185 184 173 149 137 129 106 102 103 93 83 76 74 77 86 95 100 100 70 69 79 88 105 117 64 41 40 37 54 34 14 30 67
156 165 214 226 215 184 206 241 182 184 188 182 147 132 133 121 111 102 86 82 71 70 77 87 92 95 93 87 83 98 113 93 108 90 102 73 63 50 46 47 59 66 73
170 173 221 252 243 221 235 193 173 176 185 160 145 140 129 118 103 93 76 66 54 57 81 87 89 88 83 90 88 110 117 132 108 97 109 86 66 57 53 62 73 79 83
182 234 253 263 229 249 223 179 155 155 163 158 134 121 114 106 99 86 78 68 93 99 94 90 101 104 83 87 103 89 86 81 77 107 88 71 66 61 64 74 90 98 93

GFSMW_con_3kmhel_048.txt.gz
Helicity
97 136 210 220 176 181 163 114 97 70 96 127 144 154 245 349 375 352 322 238 221 235 260 202 144 142 104 86 64 58 60 56 54 37 53 64 84 87 94 90 117 107 102
66 82 112 191 204 194 187 156 131 106 111 150 162 160 282 402 451 465 332 333 300 256 240 199 172 130 107 89 85 68 45 53 61 47 31 59 69 89 88 114 121 123 120
71 73 84 115 176 187 218 168 147 145 151 178 251 315 360 477 557 482 391 343 300 297 250 188 155 148 109 82 81 75 67 59 67 84 61 48 88 101 105 108 104 113 117
66 79 86 98 120 167 197 201 174 172 186 249 197 184 252 425 478 484 390 371 330 320 254 173 129 115 98 81 81 80 80 73 86 62 82 95 104 83 77 91 51 116 49
50 83 93 96 124 131 167 193 182 178 191 181 141 156 232 404 550 498 399 368 354 280 171 182 121 117 91 90 80 78 90 100 91 88 77 74 79 93 109 91 94 78 62
103 110 104 127 115 118 167 178 184 179 174 162 136 174 280 431 512 446 398 345 317 201 183 153 125 103 88 79 80 89 101 105 95 81 79 83 101 111 110 109 95 86 57
78 108 129 113 140 118 145 176 181 181 167 159 163 180 208 308 406 352 365 320 243 209 166 126 106 97 90 84 86 96 98 99 89 84 95 91 92 97 91 100 96 103 93
64 61 103 80 92 126 105 160 173 176 163 183 180 186 246 360 398 357 309 253 201 184 129 117 109 98 84 85 95 98 90 96 89 93 99 100 93 96 103 107 106 100 100
64 82 87 88 62 111 110 156 158 170 171 201 212 212 259 358 399 354 297 249 197 150 125 109 103 90 95 104 95 85 86 96 105 102 100 97 106 111 112 122 128 123 117
35 44 56 92 109 103 109 152 151 185 198 216 205 234 287 346 354 347 236 198 177 139 120 109 93 97 101 95 76 83 108 109 106 101 102 106 113 115 126 133 146 157 162
90 120 112 86 74 89 127 165 175 202 206 222 242 287 312 376 357 278 216 186 149 131 114 99 96 96 95 84 89 112 112 99 103 108 110 106 116 125 133 148 165 184 199
62 -0 122 118 79 90 133 166 193 212 226 245 298 372 403 364 285 239 209 162 149 124 109 98 100 102 97 99 110 107 96 92 101 114 108 110 130 130 144 166 183 204 191
127 225 189 146 138 87 139 178 212 234 240 275 396 433 362 268 251 224 191 158 136 118 104 102 103 104 105 100 101 90 83 91 103 101 110 125 132 133 163 177 197 199 179
61 113 153 134 136 79 142 206 250 255 291 350 405 361 278 245 229 203 174 146 119 112 111 109 110 101 92 95 85 80 87 95 95 110 116 124 129 145 165 177 168 173 155
71 98 123 99 162 160 204 240 311 320 351 377 339 298 272 234 211 187 161 135 128 120 108 104 94 96 93 91 88 86 89 92 102 105 115 127 143 128 152 185 156 148 156
47 60 63 109 139 163 246 292 311 321 322 333 293 277 237 206 190 165 144 135 121 103 97 91 97 90 88 96 82 89 91 95 99 107 120 136 142 152 129 121 94 102 120
-6 21 52 123 143 201 250 267 274 276 289 270 256 225 195 187 168 151 137 122 108 90 93 98 93 86 82 90 89 87 91 107 110 110 134 163 167 130 135 107 66 89 59
31 72 131 147 176 208 236 258 251 217 227 232 216 191 174 168 149 133 124 122 84 97 100 91 82 76 86 80 82 85 85 103 105 125 138 133 122 118 102 110 129 100 77
-6 50 69 93 125 157 180 205 190 200 202 195 186 160 145 136 120 125 121 85 92 97 87 76 74 77 72 88 86 85 95 110 117 117 102 109 89 88 76 109 103 77 58
-44 -16 17 59 98 109 146 214 180 179 185 167 154 135 123 127 129 109 83 104 95 89 76 71 64 73 78 80 71 90 111 123 134 118 111 93 102 75 61 85 83 77 54
6 13 32 72 91 103 128 175 177 169 155 151 145 138 128 125 112 105 102 98 94 79 77 69 72 81 90 84 82 95 122 140 144 132 117 104 81 48 42 35 66 74 52
21 36 91 103 97 111 166 166 157 142 148 145 139 131 123 113 100 105 101 95 91 82 72 74 83 89 83 90 101 114 121 123 143 113 95 100 51 39 31 46 43 25 36
63 49 80 101 75 71 101 165 142 152 157 154 145 127 107 115 104 105 105 95 82 77 84 83 73 77 96 108 108 98 112 95 101 103 76 35 48 34 48 40 24 43 76
55 90 119 129 126 107 145 188 141 133 146 151 120 110 110 110 108 101 95 82 85 84 71 70 77 84 96 109 133 132 109 81 101 94 89 66 51 43 43 48 62 77 79
95 97 135 150 136 148 174 145 121 125 149 137 114 117 116 115 111 98 87 89 86 67 67 77 85 98 104 128 115 105 107 115 98 87 92 82 64 62 58 63 63 69 70
123 148 161 173 173 179 173 140 121 127 132 126 119 118 117 111 102 94 85 78 59 56 71 85 101 111 109 117 118 94 75 79 68 95 91 72 65 63 61 59 60 73 75

GFSMW_con_3kmhel_051.txt.gz
Helicity
76 109 140 193 195 191 171 164 174 135 149 151 114 99 130 295 377 330 364 288 234 235 225 206 206 161 158 120 93 76 66 60 42 20 44 64 79 83 96 94 99 127 95
59 70 101 131 195 218 229 239 195 171 155 166 138 131 288 466 484 544 537 476 450 337 250 228 234 202 153 122 102 80 55 54 53 37 15 47 84 76 81 119 119 112 125
72 65 69 96 131 184 215 231 242 194 180 173 185 325 506 525 490 477 491 447 395 369 353 303 299 210 128 108 104 89 71 49 49 75 69 55 95 117 115 125 104 115 139
46 62 87 98 124 130 171 228 225 242 203 206 232 313 409 429 396 439 483 472 429 400 353 306 234 256 140 99 90 73 70 60 73 51 102 122 138 123 115 143 89 135 117
102 129 83 108 139 136 150 176 244 269 252 231 302 310 273 292 417 481 496 465 427 385 355 321 266 185 185 115 100 80 85 83 87 91 95 103 95 99 120 108 117 133 126
62 75 114 118 141 182 239 201 201 228 282 335 265 208 278 373 442 470 487 470 428 391 326 303 231 162 139 108 94 91 86 91 95 98 115 117 121 139 141 132 120 113 96
99 68 85 109 84 134 212 220 195 203 280 261 244 203 318 231 265 377 449 423 381 333 248 207 189 149 139 104 92 84 77 90 94 107 117 116 110 121 124 130 127 140 137
90 103 75 97 132 64 120 156 150 193 208 234 227 328 238 225 301 346 417 390 355 284 228 210 178 126 110 90 80 72 82 92 88 112 119 113 111 125 127 138 144 133 142
63 88 100 109 105 87 68 99 131 176 179 216 337 271 235 239 356 401 387 360 305 258 193 182 175 113 96 86 65 83 80 89 111 104 97 104 119 129 129 143 149 156 167
88 45 32 57 93 74 57 73 106 164 178 238 247 242 215 275 382 447 432 381 298 264 203 166 116 98 85 71 73 82 103 105 101 108 115 128 133 134 145 149 154 175 188
50 49 84 81 44 69 81 116 134 190 203 219 215 210 243 300 382 397 337 259 226 169 170 129 104 87 78 82 90 107 109 91 100 115 124 121 115 137 147 152 173 196 206
65 104 93 71 52 102 118 148 202 184 216 237 227 234 272 343 405 386 306 233 172 176 164 120 105 91 91 99 106 108 90 95 114 124 118 110 128 138 136 165 187 211 210
91 64 39 68 144 226 141 156 265 225 235 243 248 264 319 371 395 353 288 194 198 186 140 115 101 101 103 107 114 98 97 111 107 104 111 116 123 133 165 191 209 211 232
67 127 255 254 229 241 202 169 296 249 227 253 274 314 356 396 358 294 234 215 186 148 127 114 108 106 109 116 95 91 100 95 88 96 107 114 135 153 188 212 209 221 231
109 35 83 121 152 174 199 232 270 249 219 302 338 374 394 367 310 258 235 202 159 134 121 107 104 106 117 102 100 106 95 81 85 98 111 137 166 150 151 198 198 186 194
56 35 56 80 125 187 161 230 275 266 261 319 377 385 347 298 267 235 191 173 143 121 105 103 104 117 81 117 104 91 81 76 89 118 135 145 150 174 179 152 133 119 133
23 25 41 87 100 117 124 208 287 292 323 380 334 302 276 258 224 191 168 145 122 104 93 102 105 78 98 113 89 76 69 83 100 114 136 159 171 168 191 157 111 105 48
-4 -7 17 55 82 129 152 248 305 350 342 306 274 247 230 218 184 159 148 131 106 89 99 102 82 86 96 97 73 77 71 88 98 118 127 147 159 163 152 165 141 129 96
-23 -27 -8 29 110 180 235 316 342 314 286 240 214 195 179 165 144 139 130 119 101 102 90 86 84 75 65 110 90 84 78 95 99 116 137 156 156 120 116 135 137 105 91
-31 -4 56 138 171 224 284 318 275 252 184 155 168 157 150 141 141 142 127 110 103 94 87 79 61 83 69 98 95 81 90 107 133 150 134 110 127 126 96 114 110 101 87
6 -2 38 84 163 166 165 144 99 120 130 140 165 170 168 165 149 127 96 87 96 78 68 59 61 70 78 76 89 93 100 124 140 140 146 156 94 81 54 61 84 90 77
7 20 45 47 38 51 94 121 123 126 158 197 195 174 169 147 102 94 93 94 81 74 76 83 71 79 90 96 96 91 71 72 136 142 143 126 54 41 41 51 45 38 47
22 50 90 97 80 79 95 163 156 151 151 175 185 168 131 92 90 90 91 88 80 79 80 83 78 85 102 100 98 96 98 107 135 138 92 38 34 36 52 41 35 50 92
23 34 70 103 115 107 102 123 117 144 172 175 153 106 91 93 95 91 83 81 77 77 76 80 89 92 92 106 143 138 139 115 124 105 93 69 40 41 48 58 71 86 91
39 43 78 96 96 116 143 125 124 143 169 144 108 105 87 98 98 91 83 80 96 90 86 94 91 88 99 121 117 115 124 119 111 86 112 97 78 68 65 72 79 86 99
79 92 115 128 151 170 173 155 144 149 138 130 103 96 99 97 86 75 76 78 87 86 77 74 81 94 89 103 105 92 70 85 69 117 105 89 67 60 66 74 84 106 97

GFSMW_con_3kmhel_054.txt.gz
Helicity
100 113 105 122 172 172 219 195 218 259 251 266 237 263 148 318 339 244 248 378 383 335 341 321 317 260 209 172 146 121 130 94 61 45 47 48 59 63 72 93 82 110 91
97 78 125 104 136 213 240 280 314 329 282 259 277 278 367 456 467 484 495 532 557 471 389 387 399 334 294 282 241 176 65 55 64 46 29 43 50 53 66 101 126 112 125
105 100 99 133 131 131 215 280 322 316 319 295 415 552 552 577 583 650 656 639 608 487 426 457 419 344 275 241 173 211 111 61 64 67 34 54 47 65 115 122 127 111 131
69 83 103 113 148 162 142 195 272 277 313 336 451 443 508 539 507 595 704 683 555 438 428 419 340 280 248 215 241 181 123 68 45 63 83 94 103 98 107 146 151 160 157
80 105 120 79 124 159 174 158 184 191 267 319 483 568 583 589 600 576 625 592 503 443 426 372 331 324 259 244 195 125 106 94 86 86 86 95 98 117 148 122 134 117 104
142 154 144 131 139 133 179 237 182 228 217 322 487 567 637 576 549 515 568 566 480 468 430 402 376 332 293 280 216 167 128 119 106 98 96 103 112 142 165 173 152 123 102
87 65 68 114 129 143 166 198 264 245 276 376 499 524 545 476 469 494 519 504 461 442 421 385 341 292 268 224 196 133 105 104 101 108 113 122 127 156 162 165 147 155 142
96 84 154 172 69 82 103 147 235 292 318 429 416 485 430 423 416 409 431 422 418 391 352 297 302 266 216 197 150 109 90 96 90 99 115 123 136 152 155 158 157 132 157
109 133 120 94 153 193 107 79 165 281 311 348 448 437 410 371 384 417 423 413 430 390 335 293 267 197 215 162 113 87 85 85 90 97 111 125 138 145 148 156 159 173 181
149 119 88 89 103 96 111 112 102 171 323 365 396 469 456 418 388 401 411 390 382 324 268 269 229 208 185 128 96 91 93 93 96 109 127 144 140 147 145 147 157 180 205
66 40 39 69 145 131 136 119 186 180 293 534 527 498 431 377 372 393 370 383 351 306 283 228 219 163 136 108 106 100 90 93 107 128 135 127 130 133 143 150 163 188 205
70 65 11 24 63 243 191 212 199 296 436 540 505 382 306 324 378 401 401 358 349 301 232 201 198 176 135 113 105 93 105 109 121 129 124 118 143 143 144 159 169 193 205
44 26 62 61 55 134 168 293 356 586 469 436 380 278 259 288 336 369 345 332 301 286 250 235 175 147 117 109 110 120 120 125 121 102 110 123 129 140 153 169 196 197 204
56 65 75 78 43 73 247 417 487 570 539 321 280 260 270 333 371 381 361 321 285 285 245 185 162 125 108 109 123 126 132 127 106 103 117 123 129 139 157 164 183 191 208
56 73 60 171 244 338 445 536 558 531 435 275 262 315 320 373 395 373 298 302 251 227 171 172 126 113 104 129 130 138 132 111 105 104 113 131 135 119 135 188 214 207 207
58 73 51 139 236 362 432 451 423 358 307 279 303 375 395 394 366 341 280 275 224 172 138 112 101 106 115 126 133 121 105 94 97 100 105 119 125 140 148 159 155 149 170
69 74 132 163 203 295 341 326 277 269 279 285 320 376 359 348 312 271 249 183 164 125 109 96 94 103 120 131 112 94 90 87 87 85 106 131 147 140 181 172 140 143 90
90 97 110 147 177 193 208 218 212 228 258 282 343 329 331 320 263 182 180 145 119 100 90 89 105 110 102 107 97 87 86 82 77 95 113 131 145 161 171 190 197 172 148
71 97 56 106 138 129 159 209 221 246 264 326 338 305 242 168 167 156 141 127 121 104 99 104 103 107 109 85 94 95 85 88 96 108 118 124 160 145 108 177 165 142 128
82 66 52 117 103 91 96 197 294 345 298 285 239 165 133 141 157 147 126 116 112 100 91 97 77 81 68 79 85 76 94 101 104 107 129 92 117 104 92 131 134 125 82
81 44 31 80 193 266 309 272 197 173 164 177 165 129 145 158 134 120 105 97 90 91 84 73 65 57 61 69 73 81 95 95 104 125 127 139 80 71 64 65 103 81 69
-3 17 17 39 24 28 20 38 64 71 83 99 135 153 138 120 108 111 91 96 96 85 77 92 83 81 96 95 82 67 72 73 121 127 144 134 70 63 54 68 41 31 44
21 -9 -10 -28 -41 -20 -11 48 59 76 99 142 164 169 130 96 86 86 89 83 74 78 86 84 88 94 96 97 115 131 103 104 130 142 98 72 65 61 71 45 37 48 78
54 32 41 59 69 65 84 85 68 100 163 184 138 89 96 97 106 91 75 72 84 87 89 98 98 87 90 103 114 112 126 115 132 110 121 88 71 65 57 54 61 81 92
47 62 86 112 104 108 122 112 124 136 148 112 90 81 89 80 80 75 73 85 82 82 85 82 87 89 90 91 84 97 113 123 110 99 124 110 107 74 61 65 78 94 106
103 158 126 109 99 123 123 110 97 113 123 107 93 81 76 71 69 75 76 71 70 67 71 76 88 94 79 74 77 75 68 81 90 126 124 108 84 64 60 68 85 109 107

GFSMW_con_3kmhel_057.txt.gz
Helicity
70 71 67 23 29 -3 78 168 212 261 421 395 335 256 204 218 246 296 216 257 320 341 326 319 309 291 281 237 188 168 168 178 151 112 68 60 60 54 54 70 94 91 88
8 -8 47 83 88 70 87 117 216 262 344 403 361 326 339 330 330 404 400 404 463 440 375 353 348 337 331 272 188 181 180 175 149 100 106 57 62 56 48 70 80 100 112
61 55 66 65 83 80 93 130 138 236 349 444 621 596 548 514 439 494 563 491 511 520 453 421 407 379 337 277 233 217 177 158 174 113 74 61 31 46 75 86 105 143 148
116 113 104 88 102 86 90 97 149 160 220 425 566 538 505 493 474 625 584 597 598 605 556 470 399 367 327 299 227 217 186 170 133 87 105 86 85 76 82 110 155 184 180
67 77 98 115 91 122 121 93 128 170 155 302 394 514 582 570 626 670 643 640 612 598 556 465 383 384 323 284 249 277 241 139 141 79 75 101 114 133 131 106 138 156 124
90 55 72 87 94 111 128 157 149 119 206 221 368 493 602 623 607 604 637 646 610 568 518 482 442 415 372 327 286 255 251 210 140 111 111 104 106 117 137 138 138 120 94
127 132 133 98 103 107 110 132 155 160 134 269 387 508 581 576 546 567 601 622 603 518 536 478 439 414 351 276 254 286 198 200 143 123 117 121 126 141 163 170 142 155 123
164 60 5 46 76 78 104 120 120 161 201 328 454 525 582 601 597 583 580 527 502 470 465 470 425 382 324 256 280 227 220 161 127 117 116 121 143 158 160 159 170 146 148
188 206 219 150 92 91 92 94 109 147 297 418 510 524 541 501 478 456 459 452 449 441 486 441 382 353 283 225 256 210 190 112 107 109 124 139 143 161 170 182 177 163 153
137 109 81 118 109 130 119 108 106 108 246 434 475 538 489 461 423 388 390 388 408 453 444 384 325 214 273 271 162 211 148 117 110 115 131 129 144 161 167 164 161 174 193
3 -6 32 42 43 111 166 195 161 185 292 419 518 497 445 408 406 384 331 337 403 388 347 323 306 231 265 189 184 161 123 107 121 125 120 131 151 156 158 152 153 166 195
43 51 35 25 47 92 172 233 255 416 446 406 423 464 433 395 368 317 299 363 375 352 300 296 249 253 227 212 135 108 118 118 121 114 129 137 140 138 134 147 153 178 186
-17 -34 -28 34 75 71 97 168 394 620 551 459 472 467 408 305 267 310 350 374 364 334 246 293 287 230 243 147 134 115 126 120 114 120 133 117 126 128 141 151 162 184 182
28 13 56 58 10 36 116 214 458 593 515 506 470 416 299 260 288 341 349 338 336 326 308 291 257 185 159 159 141 146 139 131 141 146 134 119 120 126 132 147 156 165 178
24 44 54 106 181 178 289 458 420 468 507 476 388 309 236 252 312 369 393 375 263 286 260 206 235 188 166 112 131 138 126 145 140 133 124 123 118 110 123 160 173 182 207
42 63 74 108 197 254 360 376 411 432 407 373 300 248 292 349 349 390 363 317 299 228 256 242 130 144 106 134 145 133 146 129 118 115 118 118 111 110 109 123 131 154 180
99 102 92 93 132 134 202 250 280 307 327 269 296 306 391 438 444 354 331 214 211 177 178 144 105 100 110 120 143 142 122 111 108 109 110 114 125 143 157 151 136 141 134
120 124 102 109 104 136 194 240 244 240 206 231 296 399 482 372 321 218 199 260 146 115 97 105 107 98 95 130 124 121 107 106 103 98 102 116 122 143 160 192 213 195 159
105 122 116 150 168 169 140 158 158 180 188 262 314 349 349 133 225 210 125 81 83 121 100 76 94 114 86 81 89 99 101 107 90 89 109 124 144 136 121 172 194 169 151
105 147 163 152 184 186 249 265 225 273 248 213 243 221 86 116 94 55 94 93 104 80 81 101 84 62 64 52 66 82 89 84 102 112 116 104 135 124 111 153 157 149 114
99 136 142 171 166 175 209 156 92 194 232 236 131 115 56 44 24 106 105 79 81 100 84 85 80 73 69 73 71 66 81 83 89 89 106 132 105 103 107 104 138 118 82
59 47 79 81 94 21 144 85 43 53 48 48 110 105 56 48 60 73 65 90 79 82 79 82 93 96 99 101 94 111 115 103 112 107 124 138 88 105 93 112 84 62 71
9 -7 -5 -16 4 -38 6 -18 -10 -6 -5 6 0 -5 25 38 39 81 77 79 73 76 81 86 90 89 88 91 102 105 106 104 119 131 93 98 105 103 109 73 57 62 84
61 12 -2 -9 -12 -22 -25 -11 -16 -36 -20 47 58 48 46 79 85 75 63 70 73 78 78 83 84 77 81 85 90 89 101 106 131 108 114 102 105 89 69 61 76 98 92
19 46 15 11 -9 -18 4 -10 8 34 69 43 31 56 75 76 78 71 64 68 62 61 65 64 65 74 80 77 82 86 95 112 106 111 119 106 103 92 65 68 76 89 98
73 63 66 48 31 22 22 16 19 44 46 66 76 61 58 56 62 64 70 83 69 73 70 71 72 67 62 66 87 87 91 122 117 133 112 97 86 64 59 59 70 102 93

GFSMW_con_3kmhel_060.txt.gz
Helicity
26 57 111 128 129 50 67 156 194 242 315 301 351 345 237 230 279 205 221 189 222 253 284 313 310 293 280 234 221 222 175 163 146 151 166 140 96 58 43 68 76 75 89
35 56 59 82 91 98 88 109 156 206 291 315 334 370 334 329 330 282 220 230 305 307 339 369 336 305 317 272 231 220 203 174 175 155 159 142 95 67 114 94 92 101 127
4 25 48 58 73 88 95 96 132 157 243 278 469 587 538 438 430 338 324 325 399 401 343 395 387 361 351 294 253 243 197 176 202 197 151 148 82 75 108 112 140 150 160
116 108 75 47 50 56 86 111 114 124 189 318 372 449 438 429 376 434 441 467 467 446 403 426 470 433 378 349 289 243 198 200 194 202 177 180 84 58 56 95 136 178 178
106 124 136 139 124 127 125 125 117 123 149 216 304 369 440 508 509 529 508 501 523 503 476 482 488 467 415 361 322 263 229 206 191 199 198 133 127 119 119 112 136 159 163
110 68 52 50 60 77 109 155 130 126 146 183 255 290 429 505 560 544 544 560 524 528 491 499 489 448 442 404 351 313 280 234 212 221 190 136 99 108 140 144 136 133 133
169 189 213 170 104 79 78 95 115 133 106 134 221 301 413 469 482 517 568 584 533 500 493 526 490 471 446 409 370 337 304 227 216 199 241 128 126 133 151 159 146 152 134
214 242 247 236 204 182 123 92 101 108 109 106 184 316 391 456 504 536 563 565 576 534 524 487 464 425 446 427 390 335 324 211 203 223 161 143 151 140 146 152 167 157 168
127 113 125 119 123 147 154 138 130 125 121 115 216 332 440 489 539 572 567 615 579 538 498 429 413 392 409 403 334 322 301 240 209 206 145 124 134 150 153 171 186 182 150
73 63 54 54 78 90 109 130 152 118 152 213 235 312 414 514 533 514 501 489 482 459 425 401 365 371 382 317 346 287 301 252 193 129 110 148 141 139 159 176 191 191 197
-18 9 26 22 53 99 143 205 191 177 196 249 277 329 391 458 466 444 447 402 406 376 372 362 346 372 346 263 270 251 252 215 160 129 137 116 127 146 162 191 184 188 212
-31 -5 -14 27 28 47 97 129 226 304 338 295 299 312 335 321 367 354 371 348 360 338 368 370 369 352 317 242 233 254 199 198 164 92 96 112 134 143 168 164 162 178 172
-1 -12 7 1 23 42 83 90 129 223 440 474 413 336 328 317 327 330 361 326 334 359 376 391 386 314 318 260 356 157 219 179 116 117 127 134 148 153 151 154 155 165 173
27 31 20 39 48 126 116 79 150 252 361 414 430 381 347 287 295 288 310 305 351 407 446 450 385 319 259 259 255 192 141 140 150 152 134 148 133 126 134 141 143 160 187
54 50 38 59 58 47 115 185 259 301 291 403 417 429 334 314 299 339 337 402 439 470 454 448 351 300 220 178 123 126 135 153 137 137 152 147 140 124 125 153 159 180 195
83 46 69 69 39 61 123 180 204 224 250 323 399 374 354 371 370 338 402 459 504 510 380 283 245 239 108 96 133 127 134 136 150 145 157 157 155 161 160 149 143 149 185
108 74 82 50 47 73 94 146 217 266 282 288 332 350 359 406 355 417 448 449 403 368 398 217 138 97 97 109 123 146 140 136 133 136 137 140 135 132 145 140 133 176 153
118 113 105 75 58 70 125 140 173 210 302 379 373 346 376 320 312 333 367 300 280 233 145 85 61 89 106 117 118 125 122 123 118 108 109 117 113 122 106 159 206 206 175
123 105 118 111 122 126 118 138 136 148 174 158 150 179 159 231 249 270 213 219 148 52 25 57 86 88 88 85 91 104 101 101 109 104 107 104 98 93 122 178 205 186 166
117 98 121 161 181 157 188 202 155 83 57 86 76 102 229 279 253 129 93 1 18 34 67 77 66 76 72 60 82 86 84 102 103 93 86 87 125 133 134 182 186 180 149
106 97 91 106 91 72 126 137 118 109 39 103 129 164 140 94 71 30 9 7 59 69 59 85 98 106 103 96 85 103 98 78 77 75 90 120 131 130 141 133 170 142 100
102 77 94 93 61 84 137 106 107 75 144 141 74 16 16 12 5 19 36 38 37 56 80 90 106 108 110 113 110 106 102 101 95 95 118 138 100 128 119 135 97 77 82
21 23 28 22 -14 -35 22 77 69 17 20 32 28 3 3 30 22 18 2 24 49 74 85 90 95 96 93 88 94 103 104 99 116 132 111 134 126 122 118 80 73 66 85
-18 -40 -45 -36 -58 -97 -47 -11 -40 -11 5 13 -5 -21 -25 -19 4 18 33 58 72 78 77 86 89 78 75 79 82 84 101 117 136 117 146 136 124 109 88 75 70 87 88
-14 -18 -24 -26 -43 -39 -23 -30 -32 -19 -6 -13 -6 1 14 32 54 60 56 67 61 68 75 68 63 68 75 77 96 106 113 125 139 158 135 121 113 105 88 66 71 79 85
8 -0 2 2 -9 -14 -7 -19 -16 9 30 37 7 16 38 47 58 71 83 87 83 78 71 68 65 63 62 102 118 118 131 171 156 153 132 110 94 83 59 53 62 88 79

GFSMW_con_3kmhel_063.txt.gz
Helicity
-26 17 5 7 111 167 197 225 220 198 300 344 324 271 210 217 198 170 148 153 171 168 187 198 219 258 267 216 217 219 188 183 152 145 146 150 147 144 114 101 100 82 96
24 8 31 39 71 103 183 218 219 174 250 294 326 360 286 211 216 244 180 179 198 215 226 249 261 290 313 276 260 252 242 203 174 161 154 169 137 163 152 119 101 109 151
27 17 41 52 72 87 107 192 176 160 163 200 306 455 442 395 298 294 231 204 260 250 237 266 307 325 349 320 302 270 271 242 194 158 166 191 136 153 162 129 126 161 175
64 37 33 24 31 68 91 101 139 181 177 209 371 401 397 382 304 257 344 319 354 324 316 294 346 366 399 386 349 309 285 281 238 195 194 214 190 161 153 106 146 176 171
152 161 142 132 121 102 115 106 119 135 139 190 292 355 369 354 450 473 406 412 413 413 368 337 376 422 433 388 362 318 313 297 251 244 225 217 204 212 184 147 125 133 135
196 190 173 167 180 166 151 151 155 144 165 177 207 249 295 391 436 489 410 395 398 431 446 419 402 403 442 403 366 304 276 302 262 255 233 225 188 176 216 178 141 135 155
190 178 180 183 185 189 191 176 160 152 131 150 173 217 263 311 352 359 412 465 470 476 458 515 486 442 438 422 391 299 322 309 292 249 280 241 223 227 204 167 132 143 136
139 128 119 127 137 153 149 147 143 158 173 128 105 162 223 271 324 328 403 434 493 511 525 558 511 469 434 421 356 333 368 369 361 268 329 250 248 191 169 136 155 157 162
111 94 92 76 70 70 76 78 83 93 112 117 133 151 200 264 304 333 406 460 514 535 545 514 498 463 408 360 348 327 336 375 332 308 344 203 201 175 132 129 136 142 149
56 48 38 41 37 59 80 98 100 91 102 113 128 172 220 281 330 385 394 433 477 518 529 502 467 435 365 347 353 370 372 343 295 241 290 233 168 124 106 123 145 151 165
-39 -46 -38 -34 -23 28 77 120 159 198 204 175 179 206 224 264 317 360 385 368 419 422 453 414 373 368 379 361 377 354 341 374 278 255 182 199 137 116 113 123 136 151 198
-78 -71 -43 -42 -34 14 91 106 106 115 164 290 335 299 248 273 306 330 358 331 357 351 335 335 364 402 391 378 344 365 309 244 240 224 156 155 150 136 114 132 144 172 175
-26 -12 -3 -19 23 82 75 130 142 104 167 249 372 359 298 266 228 246 260 266 279 318 349 395 432 465 448 404 423 385 416 308 230 144 112 139 120 123 133 145 147 162 171
16 24 -1 34 35 40 61 148 145 144 201 260 329 358 321 246 232 244 234 254 277 319 360 418 470 478 400 428 395 405 285 270 177 124 103 115 128 146 154 135 132 151 171
50 39 31 25 30 43 68 168 109 135 179 214 260 315 298 249 239 276 286 302 347 400 441 504 524 490 423 312 351 310 181 115 117 113 125 145 141 128 122 138 139 154 173
59 42 23 24 37 29 74 47 114 110 136 175 196 263 307 325 305 339 373 401 427 491 511 519 427 478 342 353 273 152 100 96 109 136 144 120 136 146 135 127 126 135 184
65 45 40 41 32 45 38 91 108 159 171 206 246 265 310 358 367 383 354 416 457 514 465 426 397 305 243 184 82 81 98 121 102 88 104 121 118 127 125 116 127 167 140
59 53 40 42 34 54 42 58 65 137 159 169 171 257 240 291 250 290 391 327 392 350 288 274 190 176 80 25 46 111 100 63 77 95 97 99 102 102 107 142 174 168 146
69 65 69 51 52 58 56 48 57 64 53 75 98 72 127 180 244 257 218 166 236 195 240 112 51 -1 41 70 75 76 61 91 104 97 99 80 91 96 109 129 157 160 155
71 74 68 95 104 70 44 48 56 72 87 111 156 149 138 213 169 99 180 176 144 92 33 15 34 51 63 56 57 72 90 90 93 87 89 107 112 86 89 161 169 178 163
82 57 61 79 69 47 74 88 73 84 65 87 126 138 115 115 95 166 26 39 11 9 39 70 73 74 78 79 83 115 90 77 81 85 96 106 86 93 122 137 181 159 123
69 58 51 74 71 65 78 74 70 21 22 38 95 71 28 12 43 4 -17 5 23 41 42 65 77 82 89 90 99 98 104 106 94 84 93 105 91 122 128 152 128 106 97
28 7 28 31 13 24 39 50 -28 -26 -1 7 18 11 10 12 2 -2 8 20 26 41 42 52 57 61 71 75 98 112 110 98 100 100 108 134 134 138 144 117 105 87 70
-16 -22 -19 -27 -45 -70 -82 -51 -69 -53 -8 23 27 11 8 -4 -8 -6 6 24 35 46 49 55 59 63 78 86 87 86 94 94 119 132 149 145 141 133 114 101 80 65 61
2 -12 -23 -43 -43 -43 -40 -41 -31 -13 18 7 -1 -2 0 8 15 23 23 35 34 43 52 62 71 79 80 80 96 103 107 123 134 161 145 141 137 132 114 85 64 60 65
1 5 3 -7 -25 -30 -32 -28 -20 -7 9 18 5 4 15 13 26 46 56 67 68 71 82 90 83 78 76 100 108 122 134 152 149 171 155 136 116 97 75 49 53 69 58

GFSMW_con_3kmhel_066.txt.gz
Helicity
116 107 77 94 117 150 170 190 222 200 280 291 249 196 179 186 182 168 152 154 155 170 151 141 159 184 196 191 209 246 221 206 180 185 152 131 129 129 126 148 143 135 142
72 79 99 72 104 122 157 203 220 218 270 289 279 274 202 193 206 212 169 182 195 199 188 186 181 198 228 245 271 277 264 230 184 181 173 145 140 154 172 162 165 162 148
35 42 51 88 99 134 145 158 168 168 231 274 328 413 357 316 289 247 186 197 262 226 213 210 214 218 234 265 273 285 284 280 224 185 194 175 137 163 171 166 170 173 154
87 56 70 118 129 135 154 149 148 130 171 226 302 281 296 280 274 254 247 273 305 252 227 242 266 250 270 291 329 373 328 255 221 186 212 242 201 182 173 186 186 184 156
178 130 143 175 200 177 154 161 170 140 123 162 245 268 279 289 305 321 293 386 357 307 270 268 315 320 318 329 375 378 319 295 270 244 218 260 262 245 266 204 179 192 170
184 164 157 193 237 240 235 224 214 192 147 145 181 212 221 288 336 333 355 366 400 375 291 299 320 347 352 352 364 350 300 277 296 265 251 260 267 238 270 255 270 196 192
193 182 184 175 179 172 152 152 198 226 221 184 169 185 200 261 279 285 329 356 379 366 326 375 380 396 410 408 409 376 328 295 269 298 310 290 233 293 268 259 265 218 203
157 126 112 106 100 102 99 101 122 127 133 151 164 163 184 254 266 261 278 314 287 329 401 426 457 465 466 433 428 387 339 304 306 283 316 319 350 289 278 243 226 212 208
87 76 69 54 54 58 58 49 51 55 62 90 114 122 130 177 233 276 298 299 309 353 355 438 464 439 416 416 391 361 359 372 375 334 330 255 348 302 199 233 187 164 172
41 28 4 -10 -7 16 31 44 49 50 52 61 100 126 138 147 170 226 261 315 353 350 377 414 430 440 406 385 377 387 381 397 405 374 342 348 296 278 212 171 170 169 175
9 -12 -35 -49 -31 -3 10 31 35 50 85 115 132 159 190 212 203 213 242 291 309 303 352 380 380 390 396 386 411 421 419 420 382 393 346 353 291 282 217 187 131 125 134
-44 -51 -65 -33 -47 -50 5 50 76 95 74 96 142 215 256 259 237 197 190 214 241 261 295 320 345 373 418 434 461 495 501 461 318 275 381 262 272 250 183 139 110 105 112
-37 -39 -16 -12 -42 5 60 68 77 96 91 121 176 231 280 283 247 183 164 176 212 229 265 330 367 377 402 441 414 404 341 383 346 358 330 262 226 121 99 105 107 116 137
-2 -5 7 -25 8 51 30 46 81 87 107 138 181 211 246 255 250 176 172 188 226 256 294 321 372 409 449 441 444 460 432 384 306 311 288 262 136 103 94 82 96 118 132
27 38 12 17 35 60 69 61 80 79 73 111 172 202 218 219 245 227 237 246 267 283 313 371 426 462 484 460 465 381 354 178 185 176 124 75 55 63 91 110 106 121 135
39 29 38 41 26 61 70 50 98 130 89 123 226 232 212 209 237 258 254 288 295 308 363 480 446 460 422 396 322 228 211 166 114 61 57 67 100 124 126 127 98 100 123
40 49 31 29 36 74 60 69 84 98 128 132 121 157 169 224 244 252 286 273 300 342 376 344 291 300 262 224 207 137 127 64 41 66 79 96 102 106 96 76 88 107 98
52 53 23 23 41 70 89 87 53 41 58 76 68 94 132 157 216 223 260 217 273 293 276 268 246 220 200 188 99 64 56 41 52 69 76 77 74 71 74 97 111 120 138
43 47 43 42 37 55 68 48 42 6 13 46 42 53 92 141 168 179 233 206 273 254 268 233 227 154 66 34 36 35 35 65 78 71 65 58 65 65 58 108 138 141 150
28 52 61 64 47 26 34 45 45 23 27 25 31 31 83 145 195 176 180 156 163 167 108 71 67 24 -9 14 18 60 56 64 68 68 63 67 74 69 85 150 156 153 133
28 78 57 58 40 33 38 34 14 -1 9 33 63 84 119 103 97 91 65 65 42 30 22 37 6 25 48 61 77 61 51 56 59 60 63 75 91 117 134 124 157 135 114
65 70 44 68 55 66 49 37 26 17 20 16 40 42 20 14 19 29 -10 6 1 6 20 44 61 59 60 71 71 73 75 65 57 63 86 106 111 113 109 135 114 104 112
47 20 33 46 47 43 32 45 29 -1 -21 -35 -31 -16 -10 -6 -18 -9 10 11 18 32 34 35 37 40 41 55 76 76 72 80 98 99 108 116 126 134 138 119 117 107 72
3 8 15 10 -23 -35 -29 -56 -23 -31 -15 -21 -12 -9 2 -6 -7 -1 4 18 23 30 32 36 44 49 51 50 55 66 82 97 115 125 142 141 140 132 116 110 90 55 30
15 5 18 -1 -9 -24 -26 -47 -40 -36 -7 -7 -4 -1 6 13 21 25 18 24 20 23 37 42 46 54 62 65 86 94 106 119 115 147 142 155 148 140 117 86 53 35 41
47 35 35 26 10 -8 -16 -31 -27 -26 1 15 6 10 17 18 20 32 48 55 49 60 74 69 63 63 73 91 102 111 116 138 147 173 162 146 119 84 42 20 36 51 53

GFSMW_con_3kmhel_069.txt.gz
Helicity
100 133 110 106 122 150 156 157 162 129 190 208 167 164 150 130 145 143 121 111 103 108 98 97 100 136 150 145 138 186 179 202 193 179 145 123 121 114 111 127 149 155 155
99 117 133 146 162 160 169 184 185 184 195 207 208 220 155 146 141 145 134 130 119 120 126 125 119 139 168 159 186 237 250 227 202 189 179 127 116 136 143 149 158 163 176
87 99 122 129 154 183 185 197 190 192 217 228 233 246 262 233 175 152 152 176 192 185 171 164 164 165 198 202 220 239 252 303 234 211 209 191 142 127 143 148 154 177 179
92 103 138 160 151 146 190 186 205 227 210 223 271 253 259 238 224 188 164 181 197 219 205 209 216 215 232 224 242 270 271 336 318 248 204 236 232 254 114 137 188 189 194
165 181 201 198 228 249 246 237 199 185 196 189 178 201 205 237 238 216 161 202 201 198 206 232 272 268 274 260 289 277 281 290 317 342 310 274 320 313 244 163 230 239 211
185 175 164 170 197 210 233 246 248 242 239 199 167 129 141 134 184 230 196 222 234 234 238 257 269 276 292 302 309 298 296 322 307 292 273 297 277 285 354 276 209 223 245
155 141 160 160 141 148 156 157 193 218 261 289 240 173 134 137 173 174 203 224 246 251 239 267 272 288 289 298 321 329 315 332 320 289 285 279 254 256 314 357 247 271 294
140 135 126 108 102 100 95 106 116 133 141 143 161 168 145 154 164 182 224 235 234 220 183 244 253 246 266 290 313 331 329 370 357 305 309 331 304 241 294 363 219 296 324
109 102 92 87 88 90 85 76 83 81 84 104 111 122 127 121 106 107 150 190 212 241 220 205 245 257 262 275 296 352 367 364 352 325 314 356 395 413 390 344 270 276 325
77 67 56 48 45 48 47 56 73 83 90 85 92 108 125 131 126 136 137 156 183 195 174 177 222 257 267 296 349 382 386 399 388 372 373 378 405 438 306 313 340 339 304
39 24 14 4 -3 4 12 44 80 105 112 101 104 119 149 188 203 209 211 195 189 173 169 167 209 276 320 321 366 381 386 413 430 431 443 446 445 527 315 333 246 223 284
-3 -10 -17 -24 -16 -5 0 47 82 92 99 102 111 144 160 184 227 238 230 195 176 152 170 211 232 281 340 370 379 410 399 433 485 525 543 558 481 520 266 221 162 154 116
-13 -31 -47 -38 -26 -51 23 81 108 110 94 110 129 150 162 180 237 272 240 192 169 166 182 228 283 323 388 412 408 427 445 439 422 411 403 338 267 199 162 115 119 112 95
-23 -28 -19 -27 -41 -12 85 107 93 83 89 89 82 80 116 162 221 253 241 220 203 223 260 282 317 330 396 416 407 414 399 377 319 321 302 255 192 154 116 79 90 93 91
6 -11 -2 -13 4 38 77 62 68 93 84 52 100 139 166 206 223 236 222 198 224 251 250 335 349 353 369 324 387 369 316 290 273 268 236 142 98 76 53 66 65 64 80
13 40 38 18 29 43 70 86 88 86 122 142 146 134 140 154 170 169 170 204 214 242 287 313 385 405 379 280 255 271 234 202 241 173 95 54 82 70 65 55 45 63 88
36 34 33 40 31 47 60 66 56 64 122 102 80 101 111 136 157 146 171 221 229 247 242 221 199 155 148 151 166 188 219 191 147 75 63 75 50 68 63 68 92 99 90
42 42 30 48 40 45 52 40 35 63 75 60 64 76 90 79 74 101 207 199 190 232 203 239 248 281 236 181 149 164 129 82 65 74 51 57 76 69 62 58 76 93 122
40 39 61 54 18 34 38 39 32 60 58 73 78 86 67 70 78 146 180 167 156 209 158 160 173 155 127 142 117 73 50 61 71 56 40 40 59 57 66 114 121 114 121
44 55 83 50 41 39 31 35 16 -22 16 38 63 41 44 67 66 101 122 145 144 122 121 131 95 79 67 52 50 40 47 59 44 50 66 80 75 79 105 128 121 110 103
58 65 76 58 41 40 45 47 18 1 0 37 28 15 42 54 36 51 69 62 56 45 35 26 22 23 14 37 46 31 33 45 54 63 69 80 87 104 105 111 137 124 115
40 53 48 50 58 66 55 38 31 22 61 43 45 63 38 9 -4 12 -1 5 14 24 23 27 28 28 41 51 48 52 54 58 55 68 77 90 105 122 149 156 128 119 107
26 39 45 52 71 86 67 65 51 13 12 1 1 -10 -28 -15 -6 4 7 6 10 22 22 27 30 29 28 37 55 62 70 74 88 86 121 137 148 148 140 120 102 72 40
3 3 23 20 20 9 16 47 7 -20 -2 13 5 -15 -4 0 -6 0 2 14 19 24 26 30 34 34 38 43 47 56 69 97 110 133 139 152 151 133 106 71 32 7 4
-10 -13 7 -5 -11 2 16 7 3 3 17 3 0 -3 -4 7 13 17 16 29 17 19 32 33 38 41 43 47 76 85 85 98 111 150 148 144 134 104 55 7 -12 1 16
3 7 28 33 17 17 27 14 5 8 14 14 -3 -2 8 13 26 41 49 55 54 59 57 46 44 45 64 77 85 98 122 140 150 142 126 104 63 18 -21 -22 -5 14 26

GFSMW_con_3kmhel_072.txt.gz
Helicity
87 111 107 102 118 125 127 109 110 86 108 154 193 184 162 160 115 101 86 85 84 78 84 89 94 108 117 117 120 121 138 159 158 171 155 131 115 116 119 120 114 126 125
104 131 130 124 121 139 142 163 166 124 131 140 152 156 147 141 123 125 105 84 77 91 107 100 104 112 130 123 137 162 181 166 185 188 175 168 142 131 133 141 138 133 144
88 108 129 123 160 166 168 173 179 183 174 170 180 183 194 164 153 138 136 118 99 100 116 125 124 124 145 161 162 181 181 217 188 196 214 241 192 194 172 141 163 153 172
79 105 131 153 164 180 222 224 224 224 222 200 224 224 245 224 197 167 139 117 134 121 119 127 142 150 184 168 198 209 194 212 241 254 215 271 272 189 205 210 167 218 230
153 148 171 206 222 229 216 209 216 223 229 236 226 235 222 226 221 206 188 159 148 156 160 149 160 178 206 197 212 227 213 229 244 271 303 231 239 253 270 237 240 268 214
182 181 181 195 229 236 230 233 227 248 213 182 186 164 151 143 165 159 163 179 194 196 143 156 183 207 200 196 224 230 238 251 230 222 274 353 311 244 251 236 262 203 185
159 164 177 180 186 195 190 184 193 191 206 200 164 138 119 112 122 111 135 131 146 158 159 154 198 233 211 213 246 242 243 278 294 260 277 309 329 309 296 311 337 310 269
159 147 140 125 119 116 112 114 123 128 131 134 137 149 152 159 157 145 140 143 141 119 91 120 146 179 204 226 216 242 264 281 326 302 339 388 365 363 333 370 381 314 260
131 121 105 91 84 83 79 72 76 85 97 108 110 109 109 111 110 91 123 142 135 145 136 136 168 196 241 251 271 305 270 290 330 315 322 384 378 382 395 263 294 340 365
86 76 70 72 72 68 62 57 58 70 89 107 118 125 133 135 132 130 118 119 146 155 138 159 170 191 225 258 272 288 303 334 366 406 421 481 449 427 390 434 452 447 490
70 51 58 61 59 58 50 50 71 93 105 117 127 138 154 184 202 206 200 178 173 169 154 150 149 153 185 258 340 342 344 379 414 437 498 520 348 385 388 420 390 342 307
42 32 31 36 35 25 16 51 72 86 104 122 143 158 161 170 187 212 224 226 236 223 190 164 161 168 180 210 292 339 352 377 401 384 375 359 361 297 256 303 282 290 209
22 25 26 24 11 -1 12 54 77 100 107 106 109 135 171 188 200 214 232 243 247 246 219 178 159 165 218 260 283 349 406 389 338 318 271 251 220 222 219 211 231 194 152
12 10 -2 -20 -28 -16 13 64 88 98 92 99 113 134 138 129 143 175 220 253 253 235 222 201 197 206 265 319 341 367 388 374 371 311 262 242 206 183 195 247 227 131 138
22 -3 -14 3 -8 -2 29 73 75 83 89 74 98 135 136 150 172 186 201 202 228 213 204 234 271 241 296 346 376 368 351 298 288 281 253 202 202 224 163 123 91 84 98
28 22 32 33 37 35 49 64 57 64 50 63 95 125 144 146 142 130 135 168 181 199 211 266 300 357 313 316 281 217 325 199 240 163 186 158 150 99 85 77 61 67 71
24 35 41 43 62 44 53 60 63 54 72 73 92 119 113 133 109 81 90 131 139 177 258 282 243 195 151 120 105 129 149 135 118 128 143 124 112 87 72 71 57 51 63
44 41 72 56 53 32 59 50 40 58 57 62 86 93 109 123 89 86 101 134 108 214 199 215 193 191 190 204 176 156 150 97 108 108 98 85 70 73 65 77 80 73 77
64 67 61 63 47 25 50 50 56 45 49 54 79 70 66 97 71 67 85 79 109 103 130 164 165 187 145 115 85 79 95 86 83 70 64 62 71 76 59 77 96 94 113
76 60 54 87 57 43 45 46 41 23 35 37 58 47 28 57 71 65 94 110 102 81 104 100 90 62 49 46 66 72 43 41 52 53 53 59 72 81 108 113 119 123 127
54 72 86 81 56 42 34 43 32 51 36 47 57 52 47 76 82 76 85 103 72 66 69 51 38 30 24 32 36 33 38 49 58 63 73 86 96 111 119 124 128 118 116
55 59 67 67 58 55 43 50 53 37 62 96 80 88 70 55 36 24 14 21 20 32 31 35 30 26 32 43 49 53 58 55 54 71 86 102 110 125 137 135 129 103 70
41 44 54 65 71 65 58 41 29 34 67 58 36 37 26 11 1 4 17 17 16 21 26 27 31 34 31 35 47 55 55 61 66 93 126 131 138 134 127 115 77 27 6
37 27 40 53 70 58 32 18 18 17 22 44 33 29 23 16 10 0 2 15 21 29 33 36 36 36 35 41 50 61 71 88 90 123 131 145 134 108 77 39 6 -7 4
24 3 2 11 19 26 20 -5 -2 16 37 38 33 32 19 16 21 17 18 24 21 19 33 36 39 44 55 64 73 78 89 113 130 132 137 131 107 70 20 -16 -13 2 17
29 6 5 12 19 23 25 17 19 28 37 45 36 28 28 27 25 34 50 57 58 59 64 58 55 61 66 78 95 99 108 115 131 124 124 98 59 10 -22 -15 -3 12 22

GFSMW_con_3kmhel_075.txt.gz
Helicity
75 68 81 90 113 118 123 125 127 100 103 131 180 184 176 149 119 120 107 95 87 81 109 119 108 125 149 145 126 136 152 163 167 193 188 182 150 144 155 153 157 155 147
83 78 95 119 126 101 105 121 122 121 115 124 123 159 186 179 166 192 158 120 117 130 137 138 125 129 147 137 140 155 179 184 205 255 193 187 169 157 172 179 172 169 180
115 110 67 103 126 123 142 136 144 123 120 114 148 106 127 160 182 183 168 169 157 166 151 152 155 159 153 175 171 203 188 230 223 210 280 261 263 237 185 205 214 197 227
89 120 146 174 157 145 174 195 169 176 167 186 187 153 172 198 178 160 143 155 148 162 172 180 185 176 197 205 204 226 247 254 266 254 195 284 362 260 257 211 199 207 233
100 93 105 151 177 166 161 188 195 202 228 235 226 242 248 254 222 224 192 188 173 177 170 158 170 183 205 219 229 234 274 285 271 299 336 290 299 315 340 313 268 270 275
123 132 139 146 157 178 199 203 189 189 202 215 216 240 234 218 209 182 186 190 193 168 152 177 202 207 220 229 255 248 274 286 253 308 293 343 378 357 395 342 380 296 252
137 158 166 181 202 213 220 222 238 194 188 190 179 159 166 163 161 129 120 128 153 166 156 134 165 196 190 211 244 264 285 301 287 297 323 345 369 398 376 408 420 414 420
164 162 165 173 183 189 188 179 174 166 159 157 155 148 136 154 165 147 138 134 139 122 135 126 118 141 161 181 226 273 317 332 308 309 362 432 436 397 410 469 449 463 446
153 151 135 136 132 127 124 118 114 104 100 101 102 102 108 104 112 135 126 137 172 189 182 152 160 146 160 187 222 285 318 345 361 489 578 565 495 505 545 575 337 342 341
127 116 106 98 81 73 72 61 53 60 72 90 99 102 117 127 125 119 124 131 129 164 174 200 186 167 181 208 262 317 392 474 517 526 502 475 453 516 453 460 332 441 232
102 79 72 66 60 62 60 49 54 71 88 106 126 138 156 184 203 195 210 249 222 163 161 180 190 176 175 205 256 305 338 383 398 380 398 416 403 408 373 391 207 166 134
77 60 55 52 56 52 36 40 65 86 92 100 117 133 143 152 162 169 179 167 160 156 158 179 197 197 198 201 210 237 235 269 323 354 379 333 281 254 203 131 182 205 198
37 35 38 48 55 43 33 46 75 82 87 101 123 138 145 152 175 208 232 248 262 279 280 256 237 205 181 175 205 224 257 291 298 303 278 242 213 196 148 144 119 123 132
31 35 38 43 40 22 28 42 63 78 83 85 101 128 160 180 190 209 214 227 249 263 283 291 284 259 233 224 221 268 314 370 381 323 278 240 182 134 136 123 114 129 125
26 38 44 37 32 26 34 44 61 74 77 73 99 135 143 152 176 192 210 225 235 224 214 210 186 169 186 183 256 249 306 305 308 277 287 179 172 153 124 108 120 120 123
32 43 65 48 51 38 31 36 60 72 67 91 116 125 137 134 135 146 159 153 142 131 122 149 160 173 136 170 200 213 275 246 218 178 198 165 158 124 142 150 119 119 120
64 36 45 47 52 44 46 52 62 58 67 58 89 111 99 106 109 106 102 85 117 136 151 163 167 179 213 216 175 177 201 123 135 116 96 105 74 100 95 90 78 70 60
34 50 42 70 84 51 44 49 47 43 49 64 69 71 72 92 105 83 92 100 127 112 139 120 155 179 140 147 149 134 86 71 78 75 79 87 81 71 66 72 71 85 82
69 92 91 81 72 58 24 39 42 52 55 64 67 62 77 88 95 110 100 78 96 139 121 131 143 144 142 126 88 60 57 70 70 60 49 45 50 80 76 92 95 94 116
98 108 98 66 82 50 31 39 42 52 67 69 77 73 87 98 108 68 46 90 88 97 73 83 76 60 55 52 56 56 36 31 35 47 62 74 86 90 90 99 112 129 147
71 78 79 84 80 59 44 53 60 67 70 75 90 93 94 103 77 66 67 59 42 43 43 37 33 36 37 40 48 49 45 47 55 57 65 74 88 103 112 124 138 145 129
52 62 69 61 65 55 63 73 91 72 71 86 98 86 80 57 41 29 8 11 15 26 32 36 33 28 37 44 51 61 63 52 55 74 92 112 121 122 125 126 112 78 46
44 44 53 59 55 68 74 90 87 71 76 93 67 45 32 9 4 19 20 22 12 26 34 28 29 32 27 43 49 58 62 78 76 95 107 98 114 126 116 108 58 10 -6
40 34 52 71 79 83 83 69 45 50 42 33 15 12 17 21 25 21 17 17 28 33 32 30 33 42 43 47 47 46 46 68 63 115 119 126 117 101 86 50 7 -5 8
44 32 26 19 16 16 31 12 7 -2 9 9 17 28 29 32 39 57 41 35 44 32 35 43 46 47 54 74 80 82 89 109 119 116 123 118 113 91 60 11 -4 8 22
46 39 31 28 29 7 -3 -7 -9 -0 16 29 34 31 34 38 43 53 66 89 68 71 78 74 65 65 91 86 93 91 93 99 111 118 125 118 95 57 25 13 19 21 27

GFSMW_con_3kmhel_078.txt.gz
Helicity
100 82 87 78 114 146 202 190 142 142 137 174 195 164 131 156 160 139 137 134 183 180 189 175 147 145 181 188 200 200 212 218 227 226 250 235 188 176 187 192 207 240 239
110 134 124 89 105 144 144 175 189 176 160 217 213 193 180 120 131 179 179 169 208 226 216 218 183 193 212 206 215 230 238 235 244 286 295 243 236 189 200 210 225 246 271
160 156 107 138 166 202 177 156 145 178 191 208 199 198 185 172 190 145 141 190 219 225 247 255 245 203 239 245 250 248 272 276 256 306 334 248 238 221 215 227 241 278 317
199 173 236 309 233 244 288 277 294 201 198 190 234 228 195 180 179 199 187 156 166 216 225 249 265 259 245 248 244 271 293 363 301 313 243 279 296 259 255 237 233 258 312
130 115 177 244 256 249 241 230 244 276 289 303 254 257 199 168 186 184 148 130 149 146 155 241 219 236 248 236 244 266 308 348 392 382 385 229 259 310 338 305 305 313 302
201 223 180 118 155 199 196 184 160 168 203 234 254 265 279 301 288 242 196 176 152 120 95 91 165 188 221 215 230 238 288 330 363 416 408 378 359 322 385 392 397 373 409
198 127 111 130 160 180 203 218 286 264 272 262 247 228 214 221 246 277 227 173 145 179 137 116 117 161 176 196 183 210 256 303 379 359 387 393 338 349 345 377 404 433 525
136 151 161 151 166 181 204 212 218 210 210 212 218 231 251 209 194 208 231 190 144 152 178 168 133 120 121 142 173 204 217 249 295 343 386 431 495 479 451 398 411 450 519
157 163 160 169 174 174 173 174 177 165 153 143 138 146 155 168 154 157 178 218 219 214 215 158 126 114 109 122 135 164 191 244 299 388 441 473 504 530 487 453 442 449 393
151 155 155 146 138 129 121 113 104 98 92 107 127 132 126 134 135 141 154 183 208 210 200 188 185 180 183 183 185 234 279 348 416 448 455 467 468 475 435 388 361 344 342
144 129 127 118 107 95 86 72 59 51 42 58 98 127 146 167 183 209 220 210 207 188 154 161 199 226 228 219 225 241 244 279 317 349 366 369 345 327 301 260 241 196 205
130 122 112 88 94 85 67 43 39 47 43 70 99 128 142 164 188 220 235 192 188 211 206 221 249 261 255 243 231 240 247 264 282 284 297 302 291 283 230 210 158 179 120
110 100 81 86 81 63 35 15 31 61 80 108 121 139 165 175 202 227 251 268 276 278 288 264 247 250 253 268 279 279 258 249 244 234 235 238 222 219 192 233 174 112 117
64 65 78 76 67 52 36 33 42 71 75 97 99 121 142 150 158 177 203 223 214 205 203 214 220 224 223 231 220 201 204 207 234 234 230 228 230 215 231 206 144 103 119
56 76 96 93 76 52 57 51 51 70 75 75 82 103 116 131 137 142 146 152 162 167 167 173 171 149 127 110 131 138 188 198 267 301 329 260 240 115 112 189 113 81 107
74 94 148 129 88 72 55 40 40 68 71 62 74 93 112 115 117 122 126 138 144 141 143 155 140 134 97 123 140 173 162 192 207 228 208 257 124 128 154 148 125 106 108
125 155 112 88 93 107 66 47 65 67 71 66 80 95 97 105 109 98 110 130 122 137 164 159 149 143 123 118 114 129 108 126 107 107 100 84 81 75 73 52 62 45 52
134 144 130 104 73 81 85 75 77 70 65 76 82 87 78 90 93 103 112 117 113 129 130 144 100 110 89 87 108 118 78 76 62 62 52 41 36 43 41 49 60 80 100
123 136 144 126 85 71 81 67 64 59 64 75 75 54 73 78 92 86 100 98 119 125 146 95 103 86 68 76 65 51 43 41 34 34 31 35 54 61 82 108 117 117 129
154 166 147 123 106 91 78 49 48 69 72 70 67 70 88 107 99 93 108 107 115 86 55 46 28 41 33 50 46 25 13 28 27 27 57 90 106 119 120 122 127 147 154
117 123 104 106 116 109 97 107 100 86 69 72 79 88 103 108 102 112 87 76 49 23 20 36 33 22 27 33 44 47 48 45 53 68 80 93 112 106 109 125 149 142 121
79 92 121 106 96 84 109 117 98 80 77 89 92 100 106 91 77 72 28 7 9 17 24 37 38 24 22 36 41 51 61 71 72 72 83 102 105 118 132 143 124 93 58
69 87 87 85 70 72 92 94 81 76 84 112 111 96 72 36 10 1 3 7 17 25 30 30 30 24 22 29 45 49 53 58 65 77 85 110 127 132 135 111 72 43 18
75 62 67 74 86 97 83 87 81 79 107 112 70 29 11 -8 -7 1 4 12 18 40 36 35 38 26 30 37 32 43 51 67 95 100 86 100 110 110 103 82 52 25 25
74 52 61 74 46 61 71 65 47 63 66 37 11 -8 -12 17 43 59 16 67 54 30 37 37 44 46 55 60 77 77 78 84 80 85 89 103 114 118 110 79 46 35 40
71 62 59 69 66 49 29 22 9 7 13 16 3 4 14 30 45 64 103 82 71 75 90 81 68 75 89 83 82 81 80 81 82 91 88 105 115 113 108 87 58 52 53

GFSMW_con_3kmhel_081.txt.gz
Helicity
93 103 67 73 62 95 179 151 160 112 152 169 168 170 186 190 168 123 120 120 124 144 162 169 167 171 172 171 181 209 198 208 251 264 240 205 190 183 201 209 250 254 221
76 135 104 99 113 95 115 171 164 185 162 145 157 197 195 171 184 169 157 138 165 189 193 203 197 199 190 175 199 241 258 215 275 293 278 229 229 207 195 220 247 274 314
88 77 148 153 139 128 164 161 146 160 173 180 206 213 215 187 169 147 159 166 190 179 229 245 238 235 218 190 225 257 271 248 258 298 294 258 219 202 206 194 240 277 320
204 231 257 331 316 345 327 314 309 298 262 191 213 228 224 216 181 149 147 144 207 231 236 236 262 257 267 232 230 261 287 346 262 318 288 334 273 217 193 196 176 231 252
145 207 249 276 354 377 361 338 296 283 300 317 250 227 224 187 182 175 161 146 160 173 197 248 243 227 270 252 238 263 277 297 312 322 366 333 363 346 307 225 241 271 279
182 203 236 268 300 313 303 291 241 245 246 271 295 277 261 253 243 203 193 181 163 140 126 149 187 183 207 233 237 224 239 267 283 335 387 399 371 331 378 361 290 273 350
191 132 142 153 165 213 227 221 249 276 268 259 267 289 270 245 258 269 262 214 177 143 81 95 94 150 152 166 171 181 194 210 253 320 335 352 368 387 340 324 330 359 421
163 120 86 94 142 193 233 243 252 254 258 258 260 252 261 240 216 219 271 290 262 212 151 133 166 164 142 126 119 130 138 164 196 226 286 370 387 401 399 345 369 340 334
137 98 111 149 194 225 245 232 229 228 224 217 222 234 224 217 216 231 224 257 277 264 281 206 162 167 134 120 128 135 141 153 178 213 293 382 435 443 440 406 379 353 303
149 158 173 174 186 184 185 181 171 158 144 145 151 156 173 183 176 169 176 175 200 219 229 262 250 231 211 195 186 176 179 206 236 281 330 390 404 403 352 327 306 294 258
129 146 153 147 147 146 141 130 120 102 98 94 102 129 149 163 183 201 199 192 200 211 225 226 238 250 244 229 222 233 244 253 265 285 294 290 260 272 275 258 235 227 211
111 132 127 126 121 113 98 82 65 54 46 63 93 129 156 177 201 240 251 239 237 236 230 233 235 234 231 237 242 242 236 238 244 238 242 231 220 239 232 250 276 264 247
147 137 128 117 107 97 83 66 40 25 32 65 87 110 136 154 168 189 202 212 202 201 207 197 198 196 200 214 224 227 238 245 259 249 265 278 279 280 274 275 260 199 253
106 114 115 110 104 92 75 51 37 21 34 74 90 92 106 127 147 162 178 185 180 173 183 182 173 177 182 186 184 183 197 224 239 231 228 215 217 220 202 213 249 161 222
82 95 109 108 103 100 78 58 47 31 42 71 78 76 104 131 150 169 180 186 201 194 180 181 191 179 168 140 143 144 129 158 175 219 214 202 200 178 163 165 143 141 136
70 108 131 114 106 98 81 79 60 33 43 72 69 89 121 131 146 158 164 171 171 165 165 162 153 148 126 132 123 121 129 130 138 160 157 125 147 118 102 91 94 84 92
106 172 168 135 125 101 92 79 66 15 69 83 92 111 119 132 127 115 130 139 148 145 140 147 117 115 101 114 115 100 85 76 70 66 57 66 63 67 63 54 68 71 69
167 182 153 133 124 106 103 112 91 68 87 94 112 115 125 122 101 110 134 156 149 129 125 129 97 86 82 105 90 95 69 57 46 36 43 44 44 50 65 87 98 110 107
138 147 124 119 120 125 113 111 88 81 80 82 93 92 84 95 93 97 114 112 121 118 113 106 83 87 67 64 50 42 30 34 31 35 44 59 66 74 97 117 138 159 175
133 128 128 142 139 138 112 98 69 79 72 70 79 83 93 99 86 80 100 112 107 81 57 66 54 48 26 34 34 25 15 30 29 29 50 80 92 107 121 139 154 166 160
106 130 134 121 135 140 124 111 85 63 65 77 82 94 96 94 88 93 84 72 43 28 21 31 23 21 21 29 43 43 32 33 44 53 64 74 103 111 133 151 159 145 129
96 107 115 124 121 139 163 118 88 69 75 82 89 89 86 82 74 78 61 37 35 32 19 28 25 11 17 34 45 51 54 56 53 53 70 79 83 97 109 125 125 120 109
74 85 96 105 101 113 116 108 82 82 80 82 80 84 80 71 57 30 5 13 10 13 20 31 33 25 17 18 38 43 49 54 55 62 58 66 73 88 109 115 119 120 94
64 67 82 83 91 115 100 94 99 77 70 76 76 79 58 30 -7 -6 -4 4 3 15 28 33 33 26 23 22 27 43 51 66 76 67 62 67 82 100 105 113 113 94 63
69 75 65 58 56 81 96 101 102 85 85 79 63 26 19 12 13 -2 -5 3 -7 24 37 27 35 45 37 30 46 56 59 59 54 72 76 88 98 100 105 107 104 85 63
90 80 72 73 60 50 56 68 68 58 56 44 24 10 27 36 32 53 69 41 40 44 35 46 55 38 52 65 64 62 60 58 59 82 82 89 95 98 108 110 103 91 79

GFSMW_con_3kmhel_084.txt.gz
Helicity
156 165 97 73 64 114 118 129 145 145 222 268 234 209 180 157 110 115 121 122 112 133 152 149 145 160 167 167 175 187 167 171 188 224 207 176 159 170 200 204 219 217 211
134 139 131 116 103 89 118 133 132 171 167 212 241 248 215 184 153 116 115 122 129 148 159 163 162 176 188 171 182 219 216 175 223 261 247 195 172 192 207 232 239 230 251
97 100 132 124 132 131 132 141 133 125 131 162 227 266 243 229 210 195 183 162 141 134 141 167 196 202 219 191 195 231 235 213 213 253 255 230 169 150 134 149 206 229 252
152 102 117 176 218 189 165 167 179 187 187 197 210 222 207 188 194 203 180 170 167 167 173 178 203 231 240 226 218 234 227 287 229 275 227 311 274 216 169 134 121 157 203
128 104 63 200 341 343 338 299 273 262 236 205 183 200 230 223 208 179 163 153 155 183 203 196 216 238 268 244 235 260 233 235 240 307 313 292 367 354 326 221 214 206 208
155 203 230 236 305 358 373 356 339 343 317 284 247 184 174 192 192 173 163 163 178 193 204 219 230 233 222 215 218 228 268 260 239 266 269 303 311 295 374 328 324 275 256
224 226 218 236 278 302 307 308 325 350 322 288 284 265 239 216 202 199 194 176 185 203 186 192 216 218 173 207 210 213 213 225 227 224 262 276 267 321 357 333 354 330 360
299 248 201 171 169 210 234 250 268 288 294 267 247 263 272 254 234 231 225 216 187 159 155 156 177 165 152 170 161 161 154 162 168 174 198 231 239 296 286 288 354 339 298
282 238 200 152 126 143 173 170 204 262 298 281 269 262 246 229 206 204 204 217 246 255 249 208 186 190 207 191 168 166 171 177 190 206 228 266 309 319 303 303 350 337 317
242 211 164 121 125 136 173 216 222 216 225 220 214 205 213 211 199 185 183 190 209 238 266 298 316 324 301 228 210 199 189 182 179 180 202 225 235 257 250 256 270 257 259
201 207 183 161 166 197 209 206 190 176 178 157 137 141 151 161 176 182 187 186 198 208 224 237 259 259 265 283 275 243 205 199 204 224 237 261 245 264 260 266 236 243 228
130 144 144 152 173 180 170 154 134 125 109 93 92 104 119 144 171 196 213 210 216 231 229 239 249 258 262 255 246 240 236 225 239 237 241 244 239 231 209 204 223 231 240
153 142 132 128 125 124 116 104 90 73 67 63 77 101 117 136 165 199 224 230 233 235 241 239 241 233 240 248 255 240 231 223 214 199 197 185 183 205 222 213 221 221 209
125 129 116 103 99 95 88 87 80 57 40 31 58 90 123 143 172 196 214 217 208 207 211 223 230 237 241 239 219 212 217 218 209 191 192 192 208 186 228 179 169 145 148
113 102 106 99 100 103 93 89 72 50 33 35 50 70 95 135 160 182 194 202 207 198 198 216 227 213 186 162 175 177 173 167 181 196 173 163 144 165 133 98 105 106 116
54 71 102 106 108 100 96 88 67 55 47 33 40 67 108 138 154 178 191 202 210 203 197 193 178 173 157 145 144 127 130 134 140 147 142 140 138 118 103 107 108 100 100
49 87 110 117 119 108 111 91 76 70 56 35 61 88 120 142 149 169 183 195 190 178 181 166 157 143 130 130 130 141 116 100 82 72 77 76 68 68 66 74 82 91 99
85 157 184 155 126 132 133 117 85 80 68 59 94 118 135 151 143 150 171 164 155 157 143 131 115 113 96 100 106 103 82 80 72 62 58 57 57 53 74 94 116 132 137
117 190 207 183 155 152 145 147 116 100 87 89 105 113 124 132 123 119 127 123 136 138 121 113 125 94 83 85 79 69 67 67 55 50 50 55 68 83 100 111 129 151 162
119 155 184 165 156 154 164 152 119 95 61 81 92 109 118 106 103 90 105 109 110 92 107 134 83 68 47 43 45 41 35 41 36 45 57 69 80 93 96 114 123 128 133
131 149 144 136 148 158 159 138 116 71 51 84 95 102 99 96 93 95 86 87 90 83 78 82 63 56 35 29 33 35 26 28 36 43 47 56 78 82 91 113 117 113 135
86 107 123 134 146 153 164 140 109 112 91 85 88 94 91 95 92 97 74 62 54 43 47 53 58 49 39 41 36 39 38 38 45 46 48 55 67 79 88 108 104 117 148
72 73 98 116 129 138 145 148 111 120 96 83 79 87 92 94 75 72 66 53 34 41 38 52 48 33 19 25 37 38 45 48 50 50 46 57 60 71 91 98 104 136 131
37 69 91 94 100 109 128 124 125 108 100 67 79 85 85 79 60 51 27 23 22 30 36 37 35 31 21 25 30 35 45 53 59 58 51 47 61 86 89 106 122 122 123
48 79 72 72 66 83 102 121 119 118 103 80 78 87 75 52 32 9 3 -0 -0 22 32 25 38 49 32 22 37 48 46 44 39 62 59 70 84 90 95 104 118 133 134
66 68 59 64 60 68 56 73 98 104 99 97 92 79 66 40 26 35 38 6 1 3 9 20 44 24 23 40 46 45 46 49 49 72 68 73 82 86 93 102 116 133 137

GFSMW_con_3kmhel_087.txt.gz
Helicity
62 113 86 87 101 95 101 103 161 180 175 212 215 161 115 117 110 89 80 109 112 126 136 130 110 114 121 129 147 161 135 142 144 170 144 128 124 137 160 175 188 194 189
79 130 121 123 113 99 76 95 127 204 180 204 251 212 196 150 147 122 97 99 122 147 150 147 131 144 160 154 176 213 201 171 209 209 211 154 130 157 163 188 201 191 191
131 163 160 165 123 133 105 83 124 155 182 216 269 252 226 190 185 166 159 128 115 139 153 153 158 168 197 188 213 233 235 219 214 231 238 215 152 128 107 92 93 136 153
165 155 150 156 161 126 155 134 110 158 200 219 237 236 230 208 195 191 184 153 136 135 148 148 173 179 213 207 208 226 256 290 226 242 200 268 280 232 178 138 117 99 133
168 163 151 115 169 172 186 181 158 142 168 170 183 189 178 189 196 193 179 176 165 154 159 157 176 195 225 210 232 267 269 252 243 289 294 280 329 313 279 195 234 225 214
133 173 187 140 137 203 251 261 256 257 199 156 157 140 149 158 170 180 176 175 161 158 155 162 179 185 204 213 230 234 239 233 250 272 298 310 270 267 283 242 239 257 222
131 181 188 173 154 175 269 309 285 274 255 246 231 198 161 155 141 139 148 156 157 166 160 167 175 196 189 202 202 217 206 212 231 228 221 230 238 278 280 277 258 231 234
158 193 206 207 211 216 236 279 283 284 271 248 249 247 224 186 164 160 167 168 168 154 144 151 176 181 184 185 186 180 165 165 164 154 153 169 184 206 222 209 252 227 219
188 238 254 243 235 217 215 227 260 255 230 207 211 224 218 205 187 188 175 165 166 157 163 149 154 180 193 194 206 219 238 225 199 177 181 192 209 213 219 216 214 195 207
200 250 271 269 274 223 199 196 194 198 207 204 207 197 221 219 195 187 179 172 180 191 210 225 242 283 316 327 304 267 229 207 187 167 181 184 184 209 206 205 215 206 211
162 204 229 233 223 224 209 180 174 176 198 199 215 216 202 184 170 165 176 171 175 185 192 199 225 264 297 309 307 288 296 277 242 220 211 223 224 238 245 231 221 219 190
112 142 163 176 173 165 168 172 192 211 225 207 183 167 151 148 150 156 174 187 197 216 218 228 242 260 277 288 273 275 286 268 237 227 234 232 232 245 232 226 210 194 182
147 162 172 152 140 137 151 165 167 171 149 120 112 115 122 126 131 146 175 193 195 215 245 256 264 266 271 278 285 279 269 272 244 218 196 190 188 194 189 189 169 182 192
104 109 115 115 106 109 103 101 109 103 88 79 76 77 92 99 113 148 182 200 206 210 219 225 231 229 225 234 231 238 256 250 239 225 201 173 168 173 182 179 173 189 164
82 97 103 99 82 89 89 84 85 81 71 68 57 55 63 89 117 158 191 202 205 204 200 204 215 211 209 196 215 232 228 232 218 206 176 160 164 167 130 108 116 113 118
61 64 90 93 90 88 82 75 69 67 61 59 48 48 64 92 120 147 177 197 207 214 213 218 213 212 196 183 188 194 192 187 176 174 175 169 156 130 128 112 105 94 86
63 65 81 98 103 81 84 76 79 81 61 52 32 29 44 93 127 142 159 177 189 197 203 199 192 189 173 155 141 145 142 142 139 128 107 120 96 90 84 89 102 109 121
39 72 130 140 120 110 123 117 106 86 61 54 42 50 71 116 129 133 146 166 173 183 163 154 148 140 128 120 134 122 116 123 107 89 80 71 61 61 75 86 101 120 143
39 74 152 208 199 166 143 144 131 114 108 72 68 73 93 117 114 106 128 142 144 152 142 130 137 142 124 107 110 117 118 103 90 65 48 50 63 74 87 95 103 117 132
83 91 150 205 205 167 163 150 131 124 107 90 76 80 107 113 107 104 112 117 129 137 135 142 121 107 92 87 82 78 70 74 58 50 47 60 65 77 81 89 96 107 112
85 116 147 165 162 157 157 148 132 97 118 127 79 99 109 113 105 105 98 104 132 133 126 138 115 85 60 61 66 60 46 43 43 42 46 50 61 61 60 73 83 85 106
104 105 125 131 135 153 157 127 101 126 161 150 59 79 99 102 96 108 97 87 114 117 103 92 86 71 59 62 57 47 41 39 43 41 42 41 42 54 58 76 59 78 125
67 71 90 117 135 119 128 129 121 155 146 136 92 77 98 104 98 100 91 90 93 90 67 60 51 52 61 63 43 40 46 47 45 42 36 36 36 52 71 62 64 106 112
70 72 81 87 87 93 101 109 159 156 130 114 98 76 91 98 91 90 85 81 68 58 46 42 43 48 41 32 38 51 51 47 54 54 49 43 55 65 66 74 90 95 108
25 32 58 67 65 88 96 121 170 162 125 105 99 68 72 79 90 74 63 46 26 33 37 23 39 52 37 24 34 44 47 48 43 62 56 61 70 68 69 74 83 101 115
35 36 47 60 67 85 83 100 114 115 118 110 106 90 84 90 87 93 81 18 17 3 6 13 40 31 34 35 39 37 41 42 50 73 65 62 63 65 72 81 94 113 115

GFSMW_con_3kmhel_090.txt.gz
Helicity
106 58 47 85 74 64 92 125 144 150 140 127 120 94 80 76 81 74 67 86 95 105 115 104 99 102 97 95 114 119 115 110 117 132 100 97 102 109 119 126 131 136 130
37 88 57 61 71 64 64 87 104 134 143 147 149 143 143 108 106 80 79 93 102 115 135 128 106 120 131 120 130 163 161 144 169 185 193 146 117 119 103 118 124 125 142
72 101 109 58 54 71 82 90 92 112 143 171 191 185 162 151 138 89 86 99 109 117 123 131 140 138 156 155 179 199 202 184 187 218 242 217 141 126 101 91 84 98 130
92 81 111 111 106 92 123 142 135 135 143 196 167 176 189 171 156 142 133 115 110 115 128 143 147 164 186 179 191 205 219 259 218 241 203 240 289 228 210 166 124 125 128
136 109 112 92 136 161 144 163 175 178 182 160 167 176 177 179 171 164 131 135 135 140 145 139 159 151 190 164 190 222 222 238 238 271 272 259 293 281 254 209 190 188 157
118 99 132 160 194 212 202 181 204 207 176 160 154 147 144 135 131 136 127 127 136 147 140 146 152 158 166 176 170 193 222 216 239 251 281 284 270 234 249 213 197 211 174
135 142 172 192 217 198 210 221 218 231 199 193 179 154 131 115 106 108 104 104 118 131 123 131 136 155 153 159 179 198 200 215 235 226 239 238 228 254 209 218 209 190 204
120 138 166 178 178 201 200 199 244 279 274 243 236 208 183 158 138 123 121 120 126 128 146 135 143 154 169 183 207 232 215 216 206 191 193 199 205 183 179 190 201 206 194
134 127 160 205 226 201 187 185 192 252 284 281 260 237 221 197 166 149 140 134 136 141 161 168 146 148 160 183 210 233 269 300 275 230 211 189 163 154 165 181 191 200 214
70 111 184 232 260 272 275 259 242 229 246 264 259 240 224 204 186 176 167 175 165 163 181 180 186 200 222 225 287 356 360 305 264 203 182 168 162 177 179 167 182 200 196
84 134 212 229 241 267 261 256 244 227 218 194 185 184 200 210 212 204 221 196 182 178 176 176 183 197 216 249 300 328 301 279 249 217 209 217 158 179 183 193 202 208 200
102 125 160 186 201 210 216 224 223 216 211 193 195 194 189 205 209 201 189 178 170 183 170 174 183 197 220 240 254 261 262 245 243 231 247 210 200 219 209 199 200 197 188
118 136 145 136 137 150 161 167 174 187 192 200 199 191 183 168 150 143 143 153 157 167 179 182 196 212 228 248 274 273 276 280 273 240 212 214 218 198 185 172 177 179 171
110 111 118 113 121 129 140 152 153 156 154 145 140 133 119 100 90 94 114 137 155 167 175 182 188 201 212 227 237 249 264 273 260 245 248 227 190 159 148 165 171 146 142
80 75 90 83 92 91 93 105 95 85 84 80 75 72 68 67 75 98 114 134 163 172 170 179 186 191 190 187 209 226 232 239 255 263 239 193 161 151 140 111 109 108 109
43 64 82 86 76 68 64 75 82 76 83 75 58 48 45 45 55 87 110 135 168 179 176 180 174 186 174 171 183 201 223 226 219 215 212 189 165 138 132 114 94 75 70
73 82 68 71 80 75 79 76 86 99 91 81 59 39 20 17 32 90 117 148 156 161 172 174 183 191 179 167 175 186 202 192 179 160 148 137 105 110 108 98 109 103 100
62 68 67 87 98 96 109 121 121 111 107 87 50 27 15 30 59 110 136 150 158 162 162 178 178 181 164 145 133 142 157 151 131 112 84 77 82 77 75 78 91 93 108
26 19 57 122 166 171 174 160 135 116 115 92 88 79 33 48 86 104 111 120 132 146 156 158 161 146 132 116 118 120 120 116 100 73 57 69 62 75 80 78 80 87 95
52 49 62 134 198 219 209 179 146 108 94 97 110 112 91 77 105 103 99 112 130 145 146 150 124 109 109 100 93 102 88 85 66 59 59 67 63 71 67 70 73 86 80
86 93 101 114 155 199 200 169 143 111 114 133 139 134 110 101 112 118 109 106 133 144 144 141 117 103 85 81 69 57 52 42 46 48 51 58 61 56 53 63 61 60 74
91 110 107 117 130 146 166 150 117 122 135 154 158 148 98 91 109 119 116 116 122 135 129 120 118 99 70 50 49 42 36 39 48 44 46 41 41 51 52 58 32 47 94
71 89 103 93 103 117 126 126 110 147 162 164 154 137 103 70 100 118 114 122 104 105 97 92 92 74 69 59 39 42 43 48 52 46 40 32 33 46 58 39 41 82 78
35 58 60 53 73 81 86 85 133 163 175 161 141 136 117 101 101 111 113 109 95 86 85 73 57 51 48 44 50 52 54 48 58 53 54 46 54 54 53 60 69 68 73
39 27 48 50 53 68 65 87 135 171 182 161 128 113 102 85 93 90 87 80 63 67 77 42 48 58 40 17 31 47 54 56 46 62 58 59 58 55 55 59 62 67 78
15 27 21 27 45 70 86 92 122 154 164 128 113 115 105 99 88 90 95 40 41 17 17 24 43 34 34 30 34 37 44 47 56 75 68 60 56 56 61 61 61 73 75

GFSMW_con_3kmhel_093.txt.gz
Helicity
67 142 137 59 68 75 79 114 120 127 126 130 141 114 102 96 80 57 64 51 43 51 52 53 60 68 60 62 75 85 79 79 92 99 79 82 75 83 89 89 86 84 84
20 99 114 103 78 91 59 97 90 75 85 104 93 95 93 58 74 76 54 29 37 53 63 61 66 68 69 69 84 106 123 104 125 144 138 101 100 104 92 84 79 74 70
68 60 113 129 66 96 54 83 78 83 79 109 151 114 97 81 83 73 64 56 46 60 70 67 69 78 92 96 112 133 134 121 149 146 188 172 128 134 114 88 77 79 87
57 88 49 74 92 86 48 48 69 77 114 132 116 128 124 113 120 115 110 110 78 62 65 75 73 80 108 115 133 142 134 152 149 191 161 195 260 216 199 178 142 132 114
65 55 43 70 91 62 60 12 63 92 100 103 100 113 112 125 96 96 83 93 105 76 99 113 105 112 142 124 141 147 165 159 185 206 248 221 245 258 252 219 178 137 160
82 44 57 77 83 112 108 99 77 138 159 152 145 132 113 110 121 110 124 112 113 107 105 122 114 137 143 152 153 161 163 174 186 195 219 265 272 259 252 229 187 178 156
82 79 74 80 86 97 113 132 139 167 173 166 149 134 124 114 128 127 113 113 106 108 96 98 106 124 127 123 127 140 152 163 184 186 214 224 216 255 250 237 194 161 185
64 105 128 119 123 144 134 172 178 201 197 195 196 177 166 144 141 129 122 119 118 113 128 128 113 103 111 119 135 161 168 175 202 193 196 199 196 200 216 222 211 166 189
131 127 152 155 166 210 199 207 238 252 245 224 215 220 206 181 170 153 133 128 130 136 139 139 140 134 132 142 161 192 194 215 214 222 239 251 219 180 165 158 152 192 183
126 141 172 195 214 232 275 264 241 263 289 268 249 251 233 224 203 184 163 149 136 136 138 143 159 170 190 189 184 233 279 321 338 314 281 242 186 160 155 147 151 170 172
108 113 165 217 244 244 234 249 249 238 238 242 253 263 269 253 230 200 180 164 163 169 166 172 168 174 181 192 219 269 314 350 337 300 255 235 179 169 171 164 172 173 173
86 94 160 225 249 235 213 198 197 199 207 215 224 226 212 204 204 209 206 198 199 200 183 167 163 161 182 185 188 209 240 250 269 265 247 230 227 231 203 164 181 165 162
105 99 111 139 165 175 175 166 158 158 155 158 171 190 203 211 215 204 200 188 173 171 167 153 158 163 177 192 209 220 248 281 278 259 249 226 212 203 183 189 162 143 140
85 117 128 121 121 131 131 129 137 137 138 141 149 156 160 166 176 167 154 140 129 128 150 160 152 155 173 200 216 235 266 292 290 276 259 227 203 189 167 160 138 127 131
54 65 80 88 102 116 123 130 136 137 139 145 156 140 120 97 83 76 80 90 97 110 111 127 152 162 184 189 205 222 231 254 275 279 252 230 199 182 149 117 116 109 108
39 51 65 75 76 79 92 104 96 96 89 86 95 86 77 66 46 30 33 55 79 100 145 154 154 154 162 160 174 199 223 228 232 242 246 221 190 151 144 133 123 91 83
55 58 58 69 67 59 68 75 84 95 90 91 97 96 75 52 23 4 12 48 99 114 143 148 149 170 162 143 170 188 222 219 204 176 180 171 148 147 128 123 112 105 105
61 54 56 64 63 67 67 88 97 94 101 102 98 104 85 52 -9 -33 10 74 124 130 139 158 171 167 163 152 160 190 201 193 165 138 125 115 102 84 80 70 79 85 99
62 48 39 59 97 114 120 134 121 108 105 102 97 101 98 88 36 -9 52 91 113 137 158 155 156 154 145 138 120 141 151 144 129 114 93 78 66 68 60 67 71 76 85
59 43 48 61 87 132 188 190 148 123 101 93 95 98 129 115 103 58 91 108 102 123 127 141 131 108 104 90 92 100 100 109 105 85 60 53 51 55 63 60 63 71 72
73 66 68 68 78 135 192 179 161 117 123 132 145 138 123 111 132 115 130 122 117 129 138 134 118 103 84 83 74 79 84 73 63 49 48 47 53 53 54 55 56 60 68
62 72 84 95 102 118 138 147 131 142 154 160 143 142 144 139 137 121 133 121 120 119 119 116 112 92 80 65 66 64 50 42 46 42 42 43 45 47 48 53 39 45 72
42 59 86 109 104 114 109 100 92 138 158 147 145 138 144 139 120 90 121 130 119 109 106 102 103 85 75 73 45 42 35 41 49 46 44 40 36 37 48 44 39 64 55
31 29 68 68 62 59 36 43 93 111 130 132 144 153 153 136 122 122 119 125 114 107 89 76 72 70 64 57 59 49 50 45 56 53 53 45 45 45 50 57 58 51 51
29 13 27 34 43 70 60 62 82 104 126 135 146 155 130 119 129 114 109 94 83 84 85 66 75 71 47 27 35 49 52 55 52 68 62 57 56 56 51 45 46 48 51
25 17 7 12 17 42 48 67 95 107 131 132 137 135 116 128 108 104 95 45 55 42 32 44 56 44 42 24 25 30 34 40 50 71 65 64 60 54 50 48 51 54 51

GFSMW_con_3kmhel_096.txt.gz
Helicity
71 186 128 69 264 138 91 75 122 86 117 158 214 201 145 139 142 113 85 77 81 84 90 92 78 68 60 55 58 74 74 74 75 88 75 74 65 63 67 74 79 87 82
60 106 209 145 304 198 75 83 85 107 76 64 131 169 153 120 109 100 74 66 61 66 58 56 57 52 63 60 66 75 88 86 95 108 115 95 102 95 90 83 81 68 72
55 123 207 248 274 172 65 79 94 112 119 62 97 148 125 89 73 85 90 62 43 39 47 46 47 54 60 68 72 82 92 104 108 91 121 123 106 148 134 114 111 112 116
66 180 261 306 193 144 98 111 77 94 131 112 131 156 268 176 87 68 88 79 56 56 54 54 50 50 59 58 81 95 90 109 130 143 126 120 205 151 165 170 180 161 149
58 113 240 174 68 85 134 117 66 71 119 10 69 120 114 164 165 88 48 63 62 69 63 52 66 59 68 64 82 106 129 156 155 158 189 165 173 182 211 212 186 179 158
56 65 104 106 67 45 13 90 66 78 96 94 97 117 79 76 127 87 107 77 96 93 83 84 90 83 81 85 126 120 135 144 147 156 158 186 238 208 236 217 179 187 161
80 44 70 17 32 -2 -16 50 56 53 74 87 65 73 110 67 39 89 94 112 105 134 125 92 93 129 126 111 120 128 145 163 168 165 193 189 188 213 254 235 187 181 205
57 69 64 51 53 59 77 76 85 99 109 146 156 133 82 116 93 98 115 117 166 140 134 109 112 109 107 106 112 134 143 145 160 143 168 199 202 214 205 210 180 189 179
27 34 67 73 97 115 108 117 125 142 148 133 175 197 186 176 141 121 129 137 140 142 132 126 122 124 119 117 138 161 158 170 184 178 191 207 232 233 225 193 179 178 168
50 34 62 91 138 167 168 183 196 190 218 224 249 258 249 236 199 176 157 156 158 159 151 152 146 143 144 141 153 180 195 196 256 280 278 308 277 264 227 169 150 166 173
85 84 98 143 184 203 205 213 228 232 230 227 234 255 281 273 257 240 221 210 200 187 169 160 152 154 158 171 174 179 211 231 278 298 308 308 259 259 226 177 161 172 165
110 109 117 139 168 193 189 201 198 196 201 201 192 192 198 214 227 225 216 203 188 170 157 140 141 155 177 183 175 179 195 216 251 287 277 255 297 261 234 210 187 192 183
83 99 106 112 127 154 173 187 188 182 168 156 149 148 146 142 145 139 131 129 130 142 145 138 151 167 180 179 187 189 211 242 255 239 230 264 249 257 234 211 203 193 182
78 79 82 107 134 154 164 157 155 151 149 145 142 139 143 148 154 153 149 144 149 148 158 166 161 155 149 147 159 185 213 249 274 274 254 240 240 214 196 209 195 160 148
55 66 75 84 95 108 120 131 131 121 116 123 138 155 160 163 159 154 148 134 132 128 120 120 119 110 118 139 148 176 208 230 266 285 287 274 249 223 186 164 151 141 128
39 50 56 66 75 83 97 114 122 126 132 147 155 152 155 151 143 118 94 74 67 70 73 81 97 108 121 140 171 194 221 222 234 271 268 241 232 225 206 183 169 136 110
25 26 44 66 80 89 104 112 121 120 111 108 107 104 106 108 105 88 58 23 6 29 75 84 101 118 132 136 164 200 245 259 257 247 245 225 211 181 151 150 151 142 130
29 29 42 54 62 71 74 77 79 78 80 84 88 94 102 111 109 89 59 -17 -39 11 63 99 118 134 135 140 162 193 217 242 215 200 164 157 142 122 107 93 96 87 91
59 63 64 58 54 52 59 72 78 77 78 79 87 97 108 112 103 89 93 53 -30 36 86 113 121 130 133 125 149 190 208 186 172 147 131 118 101 92 69 65 61 66 81
91 85 84 79 58 58 79 94 96 95 83 83 91 106 107 120 108 106 119 147 70 51 90 117 105 108 114 100 120 128 129 135 138 126 105 86 75 61 48 46 50 58 62
75 58 62 74 83 84 91 104 123 113 118 123 121 117 110 129 118 121 136 147 127 114 99 116 121 104 88 82 80 82 97 105 100 84 73 57 49 42 49 60 65 68 63
71 58 65 79 86 96 112 122 130 142 138 132 133 142 132 142 149 147 143 134 150 132 108 113 116 97 75 70 68 72 80 74 74 62 53 46 38 44 51 49 63 55 61
68 49 35 69 96 99 102 101 121 124 135 128 139 153 155 147 153 138 144 143 146 142 117 108 111 101 89 69 62 59 62 58 59 55 47 45 38 43 51 57 48 50 48
55 40 23 57 108 94 66 78 91 108 117 122 123 128 132 141 152 141 131 127 134 140 128 109 102 96 82 67 55 59 52 52 57 54 54 51 49 55 52 53 54 47 43
34 34 17 29 27 35 43 62 78 96 93 94 89 105 107 129 150 126 115 123 123 123 128 107 104 99 64 55 45 50 55 47 48 60 61 57 57 56 54 51 47 48 46
39 35 29 16 21 30 31 42 54 62 80 88 89 93 110 136 136 118 94 73 75 45 58 69 78 68 66 46 33 34 37 38 49 69 60 56 58 55 54 57 58 53 45

GFSMW_con_3kmhel_099.txt.gz
Helicity
52 85 66 82 90 53 91 63 106 83 113 179 117 131 153 178 161 171 142 103 83 78 82 102 102 118 120 94 82 83 84 81 78 80 70 69 63 74 78 80 79 109 104
60 78 94 131 125 115 115 111 80 95 115 175 218 222 167 172 173 136 134 88 78 86 79 89 110 100 110 85 84 85 96 93 92 95 102 96 84 88 86 94 99 86 124
80 84 85 122 189 176 185 183 127 93 128 145 206 283 211 196 199 192 137 114 96 82 78 79 86 77 76 80 79 82 96 94 97 85 122 128 101 164 150 118 129 129 147
72 123 82 125 162 209 240 204 145 148 158 181 182 212 211 187 159 190 138 127 88 89 80 70 70 68 76 63 71 82 84 82 107 132 124 111 171 189 162 205 167 195 205
100 96 97 146 199 211 245 264 136 139 167 134 90 226 228 216 243 191 182 155 150 110 134 77 58 79 75 83 74 87 84 100 114 135 146 143 171 187 206 227 269 224 221
85 74 96 209 253 283 300 269 172 116 169 91 60 95 178 297 272 252 271 199 291 241 155 116 73 54 43 73 101 88 63 94 144 171 187 220 233 214 241 224 224 242 286
66 64 61 163 250 226 206 311 262 148 93 97 111 81 95 98 137 133 95 184 118 137 91 96 93 94 62 77 109 87 172 192 176 189 213 213 215 256 255 259 256 252 278
51 64 63 101 213 164 261 319 71 95 134 102 45 95 73 79 62 73 72 52 76 101 36 65 92 66 84 98 103 112 166 198 190 179 179 184 208 226 301 279 256 278 234
59 48 67 67 75 95 113 -20 -56 49 50 112 165 222 190 143 173 216 225 208 184 178 124 52 149 116 119 113 140 156 153 160 155 163 168 192 236 271 272 276 284 269 217
51 46 54 56 76 97 111 103 83 97 131 131 121 176 200 194 183 172 202 204 178 159 188 150 170 140 136 137 136 151 158 170 210 239 229 264 322 340 321 283 253 210 183
114 119 82 92 75 148 162 140 137 161 171 200 206 186 217 221 232 262 237 238 213 203 212 213 196 169 162 155 162 169 189 189 224 252 245 293 319 289 320 256 280 230 191
87 79 87 160 146 152 175 190 199 187 179 184 183 199 191 200 210 217 219 195 187 183 178 180 185 179 173 180 163 154 170 180 187 209 248 270 292 314 272 262 271 251 213
87 95 97 93 99 132 180 200 206 179 164 165 148 146 154 158 155 159 169 169 161 156 149 145 148 152 157 160 165 176 193 205 211 214 223 240 265 273 293 284 262 241 222
71 70 69 74 89 117 141 160 174 166 163 155 156 159 156 159 157 156 149 143 137 128 126 138 144 157 165 180 175 191 192 196 213 251 261 244 235 264 256 256 219 218 204
51 60 67 74 87 108 126 139 155 161 160 155 153 155 150 149 145 142 143 141 140 137 132 122 131 147 164 163 159 156 157 179 212 267 309 330 328 312 261 232 211 203 204
48 57 68 77 80 89 103 121 130 135 140 149 150 144 141 145 151 150 145 132 111 85 66 72 86 97 122 136 150 156 172 202 211 244 263 267 279 265 259 292 275 203 165
36 36 45 55 65 75 81 88 102 119 126 132 133 131 134 136 133 128 119 111 98 79 48 33 55 96 116 102 113 169 192 225 256 254 263 265 232 223 236 241 232 219 199
42 33 37 44 53 67 79 90 99 102 108 106 105 101 96 98 98 102 114 118 107 95 55 20 11 89 132 120 122 139 181 207 224 227 230 220 223 201 165 162 164 150 144
68 73 67 52 45 43 52 62 71 73 76 76 76 82 92 103 111 121 129 122 118 124 104 39 -2 89 123 101 93 138 189 214 222 200 188 166 148 114 116 114 100 102 80
96 86 82 75 63 52 55 64 68 71 69 77 89 97 105 108 104 109 138 127 127 125 127 84 40 85 104 80 86 132 173 176 172 160 159 125 110 102 92 68 68 55 56
104 87 81 83 90 84 69 67 79 94 120 123 129 147 127 121 115 116 122 115 131 131 132 120 116 98 97 81 69 87 103 122 132 125 122 101 83 76 77 70 71 71 76
78 75 67 72 80 88 92 95 122 186 162 164 163 151 140 132 121 113 111 133 137 139 139 147 134 101 90 68 60 63 72 77 104 103 104 73 53 55 51 67 62 66 73
76 78 69 50 67 84 96 105 127 134 127 126 131 126 135 122 140 147 151 170 141 144 164 148 146 105 94 81 55 56 66 70 97 98 68 52 38 45 49 53 51 49 55
77 63 51 32 43 72 134 164 153 128 116 121 109 118 128 136 136 149 163 167 150 145 157 138 135 129 104 80 79 76 77 70 95 74 70 52 45 41 49 55 51 51 56
60 60 58 41 35 57 58 70 74 65 73 74 93 97 96 100 125 138 157 157 128 129 163 157 148 144 104 80 55 67 87 80 70 67 87 73 67 60 59 58 59 63 66
39 40 42 40 35 32 38 44 63 65 63 61 71 80 84 85 115 112 137 90 83 68 86 90 95 103 68 49 45 58 59 38 36 77 72 66 66 68 68 70 72 68 65

GFSMW_con_3kmhel_102.txt.gz
Helicity
28 136 114 121 99 71 53 77 110 115 134 196 246 193 201 184 151 151 215 132 99 111 111 124 126 135 135 117 114 115 118 104 105 123 93 64 56 73 75 78 80 90 139
62 176 142 69 64 85 60 77 102 132 153 171 230 202 197 189 175 194 201 222 134 144 138 118 123 120 134 113 114 119 122 102 90 103 99 79 80 67 77 90 82 87 126
113 148 190 101 117 103 95 154 143 131 164 181 220 261 326 226 297 225 243 177 141 109 112 105 116 115 134 128 109 103 120 107 84 85 102 96 75 83 85 83 125 142 168
117 143 177 223 152 181 214 251 239 163 158 194 195 192 229 254 224 230 217 269 133 91 94 121 112 110 121 119 98 94 126 123 97 103 90 83 105 108 105 156 161 221 247
123 114 125 229 196 130 200 267 270 255 244 273 192 248 233 250 224 199 291 341 209 203 157 106 138 172 121 107 112 104 131 114 94 95 132 118 121 122 158 191 236 266 266
141 123 139 264 310 229 219 237 268 284 298 269 242 190 173 206 228 225 201 254 314 410 404 225 148 97 108 131 152 92 79 97 119 136 124 167 123 141 203 217 234 251 275
199 174 159 215 259 233 212 228 261 286 264 244 177 119 95 124 169 93 93 149 207 225 363 206 236 214 189 203 158 171 89 109 134 151 180 155 153 195 213 258 212 234 299
165 159 141 189 186 201 226 237 220 303 271 245 168 80 83 129 113 123 86 78 111 10 71 172 80 119 130 117 54 77 125 97 -31 32 146 180 174 207 266 288 267 250 269
145 163 158 149 190 180 198 189 164 143 127 84 160 162 144 118 79 73 60 70 98 37 37 67 22 5 -33 -45 -18 -9 -67 -19 25 71 100 149 187 209 240 280 290 271 309
140 150 158 158 151 152 149 154 142 186 184 194 222 204 160 191 214 203 156 188 180 194 146 116 92 69 34 50 71 103 104 106 119 153 159 178 205 223 260 291 311 289 240
167 165 165 150 162 217 200 162 164 161 122 182 144 171 166 206 269 272 289 246 270 222 233 203 233 232 211 187 166 192 196 177 185 193 198 205 228 261 268 301 281 217 283
207 251 240 281 293 234 189 174 187 176 168 176 189 153 136 134 192 203 205 190 202 234 226 213 211 206 198 176 188 188 191 175 161 156 176 195 235 281 303 261 255 256 288
212 239 271 274 209 168 170 195 182 172 196 203 185 173 141 156 164 167 182 189 186 183 203 207 205 202 192 187 189 183 165 161 158 154 171 194 217 242 256 248 284 264 302
134 157 174 159 120 105 165 194 242 226 213 212 200 194 189 179 173 165 165 173 161 154 157 167 163 164 156 162 147 159 166 178 195 213 207 203 202 209 221 251 277 238 248
85 91 109 125 121 124 114 143 161 186 206 202 207 204 199 192 176 168 156 148 151 141 134 123 125 136 155 157 179 153 152 164 178 215 241 255 254 245 228 251 244 235 232
62 83 94 98 97 100 100 108 114 129 143 154 169 175 164 164 159 156 153 156 159 159 146 140 126 116 102 117 134 154 156 159 167 193 220 236 271 296 295 294 276 241 246
43 41 43 45 50 51 80 86 95 111 124 141 146 141 139 144 148 155 154 142 131 125 118 111 104 96 73 39 97 175 177 189 187 200 220 252 262 264 282 289 318 319 285
41 40 40 55 63 79 79 87 103 99 116 125 118 115 120 129 131 129 132 147 142 138 130 123 113 97 63 3 80 137 178 186 196 207 208 217 230 206 228 234 273 280 262
90 82 58 46 54 62 64 96 90 83 95 94 97 99 101 110 113 123 137 138 136 131 124 113 118 115 90 8 59 117 161 176 188 178 192 187 180 151 154 181 206 198 182
131 113 111 113 76 50 71 88 73 77 70 71 76 95 109 115 112 124 134 122 119 118 119 126 130 118 113 67 88 90 127 163 168 160 142 118 128 108 113 119 120 124 93
100 87 101 101 106 129 82 80 79 81 80 113 150 166 144 139 135 157 145 112 117 118 113 122 136 140 127 112 74 80 101 113 123 119 124 122 83 92 89 88 91 67 60
103 93 74 67 74 95 110 119 133 152 195 189 183 152 143 154 154 153 141 139 134 136 127 135 138 127 131 117 88 78 73 72 95 84 84 78 68 74 80 73 71 54 65
76 75 59 45 60 85 113 115 117 150 161 157 144 133 123 126 125 125 121 130 142 156 159 137 132 130 120 117 93 76 70 56 72 68 69 57 53 49 57 52 54 60 74
68 58 63 58 47 44 70 97 110 124 129 115 127 124 113 111 93 105 134 138 151 163 171 155 150 149 123 126 116 93 82 61 76 63 65 56 51 53 44 55 55 61 55
56 51 53 48 35 29 41 69 73 83 82 64 79 60 71 83 85 97 114 124 137 159 179 164 156 157 140 119 103 87 98 105 85 98 91 87 79 74 66 64 56 54 62
49 50 52 50 32 42 42 42 48 49 56 59 58 54 63 64 74 80 82 75 93 104 90 72 98 126 98 57 64 49 63 68 66 108 109 98 75 69 77 74 72 70 63

GFSMW_con_3kmhel_105.txt.gz
Helicity
116 141 129 129 141 138 147 129 140 169 202 198 176 129 114 160 218 163 94 93 120 118 125 123 143 153 160 140 134 145 133 126 130 134 95 68 44 44 42 51 55 62 95
150 179 127 145 118 106 106 125 90 133 161 208 244 248 256 262 257 176 166 148 120 132 141 134 126 142 159 145 133 144 148 116 108 132 131 112 104 67 46 57 61 62 88
133 193 200 147 118 101 84 92 84 86 139 211 236 244 302 260 271 255 329 218 179 172 212 174 154 141 145 139 127 129 130 138 122 100 133 136 106 93 84 54 63 63 107
138 176 188 172 127 99 116 125 141 141 141 195 244 213 247 253 204 231 259 323 242 230 189 154 154 162 151 124 101 128 146 171 148 129 70 85 107 109 94 92 121 133 166
175 206 228 174 156 156 142 153 200 213 193 210 229 257 291 264 267 293 343 374 275 264 184 185 171 233 265 237 260 172 127 157 165 140 263 127 116 116 129 122 112 183 237
132 155 242 239 243 217 197 199 231 222 221 234 257 271 301 319 286 239 259 262 272 293 283 268 287 428 208 160 242 260 242 219 160 201 315 236 197 116 129 173 115 125 197
184 211 269 262 252 209 199 201 223 244 241 223 215 212 195 194 195 144 121 146 183 219 253 211 347 387 319 382 294 313 203 159 171 208 165 198 182 167 105 89 106 146 214
162 188 223 267 221 228 206 197 200 204 206 205 169 167 170 156 145 119 132 125 155 189 218 163 110 130 70 84 134 288 266 179 180 129 156 122 98 52 81 131 169 190 213
179 231 251 261 207 172 154 141 153 149 135 158 180 153 156 161 126 120 114 126 160 175 218 93 82 21 108 93 59 77 60 41 41 44 10 70 79 119 153 188 234 220 213
143 221 237 202 166 128 147 156 145 101 90 113 108 126 134 152 160 164 114 68 99 86 71 53 26 -6 2 -1 -25 3 -8 -8 8 46 76 90 88 111 159 209 226 268 223
124 184 209 167 146 125 166 165 168 177 163 154 216 213 206 185 147 137 105 77 116 121 135 146 108 120 87 100 86 82 104 78 73 85 87 85 121 154 172 199 237 270 283
167 195 256 270 245 196 209 213 194 188 179 195 193 177 169 114 131 135 113 131 112 140 173 179 203 249 235 188 155 138 131 111 101 94 111 127 165 169 195 215 251 202 236
313 313 326 357 298 263 242 220 179 151 137 162 136 116 126 129 113 129 147 168 205 218 207 200 209 204 192 182 186 175 156 149 150 148 152 156 173 168 206 224 238 231 266
226 276 349 338 296 231 198 185 156 137 140 149 145 142 147 147 144 128 147 127 130 148 169 180 177 168 165 170 161 161 157 162 170 170 165 174 177 188 192 200 197 222 255
162 181 227 236 223 198 178 154 152 159 162 161 174 180 182 171 158 177 161 161 155 152 149 159 162 158 158 157 155 143 135 141 157 191 201 201 178 161 165 194 201 225 242
89 122 152 150 127 106 101 110 123 139 156 162 172 176 176 167 170 168 155 153 150 145 148 148 135 136 131 122 105 88 85 92 115 134 158 170 200 200 203 194 187 200 241
59 74 76 84 92 88 91 90 90 113 134 142 137 137 146 154 148 146 142 138 134 139 140 135 119 106 89 85 84 73 57 84 126 152 146 158 174 197 215 237 288 286 239
28 37 45 45 39 58 69 73 79 92 101 100 99 107 117 120 120 121 128 145 143 131 123 112 106 102 107 111 110 89 36 61 117 137 147 156 177 194 209 211 227 233 214
42 24 24 39 55 52 63 79 77 83 86 78 83 86 94 104 109 122 128 133 136 134 129 127 123 121 118 108 99 118 73 69 126 146 157 158 159 151 159 178 183 197 202
83 90 83 70 64 50 68 81 63 68 64 69 68 74 84 90 91 99 106 116 123 118 115 99 86 87 93 79 107 122 108 99 124 136 136 127 129 103 108 140 134 151 128
93 99 112 106 97 95 59 67 64 56 50 60 82 92 99 98 100 107 119 127 138 137 122 103 107 105 98 105 99 105 137 102 114 113 113 107 80 73 70 83 91 82 76
106 96 91 94 94 94 91 76 66 63 86 120 131 130 129 134 139 139 141 135 145 151 135 130 124 132 111 101 84 87 94 86 109 103 94 77 47 55 59 70 45 47 59
91 86 72 70 83 88 87 87 97 124 149 153 141 138 137 132 134 148 140 147 143 133 139 142 143 139 120 114 91 76 84 86 101 90 70 48 50 45 63 55 40 50 66
87 83 86 84 81 83 81 76 77 95 114 115 123 139 140 128 120 123 127 119 122 132 134 132 134 156 139 113 118 123 121 91 97 76 55 56 74 67 54 53 49 69 61
70 62 59 53 53 54 56 47 67 79 81 93 96 84 82 87 64 68 79 82 91 116 128 125 143 156 132 103 118 158 114 107 93 120 119 107 96 88 76 61 52 47 54
56 65 62 52 40 47 53 47 51 62 73 73 64 73 74 71 68 73 64 52 44 54 64 73 93 103 60 52 82 103 53 71 92 128 118 111 112 101 74 58 54 61 46

GFSMW_con_3kmhel_108.txt.gz
Helicity
176 136 83 121 148 165 165 173 177 158 241 253 308 254 192 158 151 111 102 112 107 77 91 103 119 127 155 145 143 162 149 139 131 135 95 73 60 50 47 47 50 67 75
163 95 91 123 144 170 160 171 132 169 180 244 268 317 121 178 169 119 92 87 122 119 123 128 129 150 163 169 171 184 183 146 148 154 156 131 121 82 47 57 44 55 79
234 91 73 115 114 129 136 123 150 172 215 254 277 242 163 218 225 165 136 164 179 165 134 137 134 139 149 159 165 169 164 147 143 146 174 179 149 144 133 102 72 72 78
190 130 54 117 85 75 87 109 143 90 142 153 196 148 245 240 221 328 296 313 249 271 195 212 263 194 176 167 139 138 164 167 125 153 115 138 146 189 186 156 143 107 107
193 185 90 111 102 96 79 120 146 155 176 225 179 202 241 243 280 292 306 280 279 267 172 201 175 181 197 155 216 262 300 182 162 189 202 143 184 172 166 243 167 135 132
88 6 40 171 209 159 133 144 151 149 143 170 180 196 204 222 263 293 330 322 288 266 215 207 282 243 317 322 285 189 324 304 190 260 294 303 286 218 282 306 317 217 134
48 125 169 195 197 148 135 152 158 125 150 166 166 175 179 156 166 196 208 237 285 257 226 238 255 254 256 308 437 360 190 202 339 264 319 340 217 283 330 329 183 144 90
126 166 182 196 169 159 148 134 116 146 158 174 169 151 141 142 137 139 145 131 140 174 136 161 176 170 178 198 202 187 239 173 293 348 257 254 250 129 126 138 87 120 65
114 156 200 210 195 179 139 124 131 151 144 139 138 121 113 99 88 89 98 102 105 97 106 131 139 134 74 89 124 134 111 58 87 100 53 91 172 99 92 111 164 162 97
114 170 180 199 177 140 148 156 150 112 109 126 139 133 103 97 95 75 75 80 90 77 76 79 64 62 44 17 9 -13 28 46 -3 -11 5 17 62 78 97 100 125 150 167
133 146 182 166 134 158 141 130 140 126 111 105 120 113 85 87 82 93 97 94 89 84 85 82 69 56 83 67 50 57 68 82 69 74 78 74 91 86 84 99 124 155 203
122 164 135 176 169 150 141 108 123 129 110 119 125 114 127 100 94 91 113 97 87 114 119 91 97 123 140 167 149 122 118 85 63 50 60 64 78 81 101 119 160 176 215
123 253 263 207 174 165 152 127 144 154 155 130 131 127 127 118 123 133 129 126 136 145 116 133 118 122 124 134 151 134 122 118 107 104 97 86 98 107 129 152 174 202 225
126 236 252 254 245 216 193 183 198 187 165 148 115 116 94 104 114 122 128 121 125 148 150 139 139 144 138 132 129 124 130 122 119 117 109 112 122 134 149 166 180 194 206
164 228 322 308 282 261 237 204 181 163 149 135 134 124 131 139 142 150 159 147 142 145 149 145 139 136 139 133 135 133 122 116 112 108 115 131 148 160 166 178 172 194 214
126 159 190 228 245 229 207 186 155 142 149 142 135 147 153 153 162 170 149 144 144 141 132 127 131 129 124 144 146 133 111 94 76 64 62 83 130 161 175 176 170 163 180
57 99 124 133 136 122 112 101 110 142 153 167 165 163 156 164 149 134 129 131 123 128 133 139 139 141 131 123 125 128 107 96 79 51 30 64 133 179 196 232 254 252 244
54 62 79 97 108 121 116 104 99 107 117 124 129 133 140 135 132 135 127 123 123 125 128 129 127 118 110 105 92 94 97 89 80 59 27 34 99 158 188 208 222 227 228
46 46 55 73 74 77 86 91 89 84 89 91 99 101 106 112 110 106 107 122 129 125 118 116 108 99 91 86 87 103 97 95 98 94 61 47 93 122 147 160 162 186 217
55 48 55 67 67 65 65 79 76 78 72 80 83 87 91 93 101 106 107 114 115 108 115 111 112 105 97 84 79 105 113 113 110 112 80 89 106 99 103 123 126 139 135
64 79 97 88 76 53 46 52 60 55 55 60 67 74 78 81 83 96 110 110 112 115 112 109 118 124 120 117 91 73 107 115 113 108 81 99 84 76 75 87 99 99 101
95 84 85 88 88 84 52 55 49 55 58 71 81 86 88 96 109 110 123 124 115 113 114 123 119 110 99 89 75 64 63 90 107 110 99 92 81 68 55 56 53 54 71
100 97 93 96 98 97 85 76 75 78 90 106 106 106 109 115 121 131 129 136 121 113 108 108 99 103 123 116 106 81 48 73 106 119 95 72 56 57 58 50 34 53 66
114 94 87 88 88 93 95 79 70 78 94 108 109 110 106 110 119 129 141 135 132 106 86 84 69 83 99 117 139 127 105 81 107 115 86 71 47 77 68 63 54 82 71
95 86 74 67 64 74 84 82 65 59 78 85 91 98 100 101 102 96 97 88 76 81 81 85 90 91 86 116 126 126 118 133 142 115 112 116 108 103 86 81 69 53 61
85 87 80 72 67 64 65 66 66 62 72 87 90 94 90 87 85 91 82 74 59 49 45 42 75 89 62 61 80 66 54 91 107 144 139 115 108 101 105 94 87 71 50

GFSMW_con_3kmhel_111.txt.gz
Helicity
287 267 250 222 143 75 169 175 205 191 231 234 187 150 107 83 81 62 44 43 40 37 33 37 60 69 67 53 71 110 113 102 116 132 110 86 71 77 73 69 64 66 63
206 220 199 183 196 118 118 110 169 241 240 232 194 163 151 162 141 118 104 100 85 73 62 60 63 78 102 114 136 160 160 134 144 157 158 125 120 112 90 95 84 80 85
236 266 213 166 114 67 68 81 127 202 217 235 317 295 299 232 211 129 118 131 122 98 100 99 122 125 123 139 147 167 171 171 143 167 172 158 132 133 147 141 109 100 92
216 250 292 214 92 89 193 95 177 220 275 254 319 334 378 341 199 231 133 122 105 83 124 116 158 148 140 168 160 141 190 209 158 172 167 171 141 185 233 205 205 167 112
225 341 284 164 97 107 83 81 154 159 173 181 232 238 189 209 120 146 255 163 129 104 147 160 180 178 135 176 219 273 219 135 171 279 295 370 213 182 318 279 199 239 149
87 249 236 115 110 56 60 56 103 106 100 127 135 59 3 40 71 115 172 189 165 166 216 191 165 158 134 191 235 191 253 194 228 226 230 348 242 199 327 311 251 225 190
150 288 192 143 145 93 99 88 88 86 73 78 57 93 113 147 139 162 161 219 215 179 210 222 212 216 175 189 170 238 188 135 198 183 379 232 228 271 286 375 356 254 182
310 287 95 13 80 69 111 105 74 76 65 94 114 137 148 160 137 175 195 185 182 192 152 136 170 163 146 150 164 200 189 182 161 89 44 121 183 263 276 198 151 150 152
247 122 72 72 104 82 96 86 76 53 76 104 118 106 114 129 97 98 115 108 110 115 113 111 125 145 156 125 103 91 69 86 140 123 92 67 91 54 53 100 138 159 154
66 71 70 102 91 104 98 116 89 78 86 107 123 126 106 108 92 87 82 77 84 85 89 92 107 103 103 78 39 38 18 32 46 68 42 54 105 81 74 71 84 124 138
47 58 84 92 110 120 101 92 80 89 100 109 112 115 105 90 85 76 60 45 39 63 75 75 91 108 82 58 63 62 58 48 63 62 63 50 60 33 62 57 66 71 99
75 66 78 115 123 130 105 69 65 79 116 129 126 110 87 76 75 70 64 60 53 67 74 85 97 111 120 121 112 116 103 82 63 69 71 72 37 25 45 56 69 91 108
93 109 125 125 122 116 103 76 69 67 107 112 113 109 108 99 88 84 83 93 104 103 119 131 148 160 167 164 155 123 118 88 79 74 82 74 70 60 63 66 89 117 138
106 136 165 166 152 153 144 119 98 80 113 121 128 119 99 80 75 78 85 104 113 118 123 152 156 151 154 138 124 126 125 113 99 80 69 67 59 50 55 65 80 108 132
103 78 136 196 213 200 191 162 134 127 144 142 135 125 106 101 94 98 112 125 136 131 127 132 127 120 127 130 133 133 130 122 116 110 89 76 64 47 43 68 111 135 159
82 81 146 174 199 189 175 149 137 135 129 128 127 118 120 131 135 144 142 151 161 154 150 139 119 125 123 145 151 136 132 126 118 112 109 93 85 55 48 116 161 168 192
80 92 86 130 153 154 160 154 134 124 126 122 121 113 118 134 138 145 155 161 163 159 165 157 151 151 145 142 139 145 112 110 107 102 97 90 75 55 26 91 178 230 258
60 69 100 122 140 148 155 147 128 119 124 131 132 141 149 153 162 167 172 160 155 163 150 143 142 136 126 115 117 111 90 80 80 83 89 87 79 66 27 72 124 175 209
58 72 79 93 107 111 114 130 130 120 112 107 112 123 133 143 145 139 132 131 138 135 131 131 133 127 113 104 96 81 72 59 56 68 98 104 100 84 45 82 119 152 168
50 52 61 75 85 86 83 94 87 84 83 89 91 97 99 109 107 107 110 125 125 127 125 130 120 105 98 95 74 80 94 95 59 66 92 97 113 105 63 102 105 120 119
60 61 71 73 75 59 57 73 73 72 75 80 84 88 90 93 99 110 124 113 122 124 115 104 101 102 103 113 87 81 117 105 82 65 102 90 101 113 92 104 86 95 106
53 52 60 78 82 78 53 59 65 73 71 74 80 86 93 98 102 101 110 116 112 109 106 106 106 105 101 102 113 96 88 95 92 82 99 88 88 116 117 110 66 58 76
72 63 57 57 70 82 78 61 68 75 76 84 89 100 112 114 109 111 116 129 122 120 119 118 108 97 96 108 59 58 67 78 119 112 75 69 79 108 112 79 61 38 104
75 67 70 75 87 94 87 76 83 88 94 95 105 115 116 120 123 128 127 129 127 121 121 129 98 71 67 59 64 76 102 110 116 117 95 84 96 83 89 75 71 86 85
99 99 94 89 87 84 88 96 96 83 82 89 97 107 109 108 113 113 117 111 112 113 91 71 74 70 64 60 62 78 103 122 124 131 131 124 130 119 115 103 79 79 80
72 84 91 85 80 77 83 88 85 85 80 80 82 96 106 113 115 107 104 72 79 76 72 50 58 70 39 36 58 63 59 58 84 148 150 127 129 124 109 104 101 93 87

GFSMW_con_3kmhel_114.txt.gz
Helicity
406 360 156 181 108 118 177 194 199 235 282 242 239 188 130 108 86 74 53 43 33 36 38 38 43 53 45 40 45 74 75 77 101 117 91 81 82 100 107 95 95 91 77
364 329 188 189 178 182 13 76 150 175 196 237 205 222 189 129 100 97 68 49 47 48 42 58 53 57 61 65 86 108 107 96 116 130 129 96 99 103 102 127 119 95 96
286 323 217 214 223 159 113 83 100 166 186 231 252 275 250 201 157 114 98 85 79 75 65 63 77 74 86 83 90 103 121 113 98 134 137 119 79 76 60 110 123 120 121
272 310 211 208 236 208 206 160 102 37 188 244 220 254 231 219 169 128 121 127 92 97 100 103 104 102 99 107 97 134 122 131 149 153 99 160 212 142 171 122 108 118 124
362 352 202 244 212 156 202 208 153 132 91 219 255 349 365 352 224 180 158 124 110 69 77 131 108 106 87 91 110 118 140 191 138 189 160 181 266 247 217 162 192 131 196
354 209 208 184 179 131 169 245 192 160 4 187 172 496 594 460 312 240 217 161 127 105 128 59 133 139 113 111 117 97 137 159 135 178 187 202 249 324 270 209 176 184 242
145 231 250 196 187 144 106 125 189 158 167 125 106 113 54 64 29 114 193 131 157 176 109 57 63 74 93 79 130 87 110 146 155 138 126 98 227 245 267 235 325 278 275
165 207 262 217 220 115 36 -23 -25 44 -19 26 26 -7 -61 18 -37 -47 49 31 120 29 113 30 63 115 87 65 109 126 149 155 134 127 88 106 51 84 164 187 56 102 82
190 249 326 174 138 73 43 -0 -38 -126 -54 -17 15 13 19 26 42 -50 27 78 119 179 233 181 127 126 147 124 126 113 118 111 100 59 80 60 119 97 24 46 102 65 118
223 219 248 147 71 83 71 25 25 6 3 49 67 87 111 100 92 100 98 76 101 80 85 87 79 92 99 111 101 97 58 52 55 73 63 63 63 87 106 110 114 128 105
137 261 120 -14 43 75 79 3 25 37 51 76 86 95 75 95 76 84 109 98 87 82 81 72 70 73 66 93 88 88 91 78 76 73 60 66 69 61 69 62 60 87 98
171 198 61 54 90 79 78 74 69 52 55 66 87 85 108 103 93 99 96 79 79 71 66 67 78 89 107 119 113 131 103 82 96 103 95 101 97 108 88 61 64 60 94
137 61 59 51 62 82 95 92 77 65 59 62 87 103 99 106 112 96 80 78 79 78 103 114 120 129 137 152 147 130 119 120 129 114 123 119 111 110 90 85 84 79 96
95 71 81 85 87 97 126 125 109 76 64 76 105 101 107 110 107 101 85 83 85 87 102 116 134 157 190 194 175 158 143 128 115 102 96 86 77 65 61 54 49 67 99
163 127 94 115 128 136 157 166 149 113 77 99 112 109 111 109 103 100 83 92 109 121 133 159 175 169 163 141 144 133 117 113 113 118 108 103 91 78 65 49 40 40 75
142 120 92 85 153 185 177 174 161 142 105 109 121 116 113 105 99 95 98 119 140 153 162 169 158 162 152 145 131 111 112 114 115 111 103 93 100 106 123 132 122 85 61
117 139 114 111 127 151 139 155 153 138 124 112 104 112 115 120 119 120 132 147 160 167 180 177 159 151 140 137 145 134 113 106 96 86 83 98 110 126 129 132 123 99 89
63 91 107 122 150 150 153 150 143 141 125 112 115 124 134 144 131 132 147 158 161 161 164 154 143 140 131 127 139 143 125 119 109 84 70 64 89 114 138 143 126 99 82
75 65 56 86 105 130 126 126 133 129 126 118 128 139 138 135 149 159 164 177 179 174 161 156 159 151 144 145 149 146 147 117 96 77 64 58 89 88 116 143 137 102 92
55 76 77 69 82 101 97 104 111 105 94 84 90 106 125 137 138 149 158 175 170 161 153 146 145 142 125 108 105 115 114 94 82 93 94 59 50 63 97 132 128 110 97
63 66 83 80 86 76 73 82 84 89 81 80 91 97 103 106 106 115 131 135 141 140 132 122 103 96 91 91 77 71 95 100 118 126 123 106 48 43 79 120 129 107 106
57 58 61 70 69 68 60 70 76 79 74 76 83 87 95 110 114 114 124 123 124 120 111 107 105 102 92 67 61 61 72 102 116 103 103 94 67 44 74 115 105 107 123
57 68 60 56 72 77 69 58 63 54 56 69 80 89 95 100 101 106 106 118 106 110 106 109 105 110 101 95 62 63 67 56 85 105 96 89 85 60 81 86 101 93 111
75 74 88 89 77 77 76 68 69 70 68 75 80 88 97 107 110 111 111 110 107 111 121 130 122 125 114 114 79 70 70 57 73 94 98 105 83 74 77 94 112 114 106
91 92 80 75 79 83 86 94 90 80 83 84 85 90 97 98 107 105 110 116 120 131 126 118 123 109 94 74 52 50 47 60 65 112 134 130 117 116 122 121 108 111 111
40 48 69 77 83 81 86 93 93 86 79 77 78 78 86 91 101 110 121 100 81 83 72 72 90 93 58 56 52 36 11 39 55 122 140 138 131 122 125 131 116 116 112

GFSMW_con_3kmhel_117.txt.gz
Helicity
12 134 125 123 170 106 -10 157 232 214 310 299 262 194 136 128 128 106 64 51 39 39 35 28 20 17 18 28 38 60 49 45 61 63 50 52 60 76 80 79 88 101 96
134 61 115 272 153 0 -47 95 196 235 240 230 178 200 172 166 143 133 96 60 48 42 46 35 38 34 44 49 58 64 74 61 70 74 72 61 57 74 58 58 82 93 140
283 70 118 230 292 23 72 269 275 221 197 161 182 238 257 232 199 139 126 96 77 58 57 47 59 54 62 68 65 57 61 75 83 72 87 64 56 96 58 64 93 58 109
158 45 175 342 179 59 41 82 123 161 146 164 196 211 263 227 157 144 141 116 81 79 78 75 76 75 85 69 63 73 86 55 87 115 94 137 142 69 22 82 95 61 102
56 144 229 213 85 60 108 -11 101 64 87 206 173 230 239 246 188 188 155 134 114 90 93 104 103 110 104 82 82 83 92 107 117 134 102 76 112 113 139 98 147 105 95
99 235 309 187 91 129 129 100 8 1 122 144 111 200 386 276 248 200 208 192 172 153 114 100 92 95 80 87 89 81 62 107 10 15 33 95 113 134 77 179 259 178 118
119 203 285 149 151 143 193 275 206 156 105 7 -75 43 419 422 315 203 234 241 202 156 148 136 114 116 141 62 70 102 76 21 13 40 98 113 95 94 111 90 161 284 119
186 314 250 155 114 46 69 127 175 200 139 198 209 138 66 178 289 239 337 244 204 159 99 86 68 41 106 70 48 17 24 69 112 138 160 119 120 136 109 96 66 50 104
117 152 264 162 118 84 -25 15 107 108 181 117 97 -10 -12 30 95 159 78 161 146 78 101 56 101 104 41 75 96 27 76 93 123 143 127 121 107 125 81 124 97 27 107
125 300 275 211 163 71 -14 -19 -28 -45 83 101 7 0 -15 -53 -69 -72 -13 -34 42 -1 -15 -11 31 50 83 109 105 86 85 95 101 89 79 80 74 73 80 89 94 101 94
120 104 75 166 171 73 18 27 -1 -34 -73 -39 -8 6 48 45 42 33 20 -6 36 84 98 96 78 65 64 79 98 110 124 121 104 105 104 97 88 91 101 106 118 120 119
192 221 176 211 124 105 72 24 -21 -41 -30 40 59 51 79 69 75 92 122 89 96 69 69 65 71 68 79 88 91 126 133 136 148 121 98 96 100 110 113 113 116 103 101
213 201 223 128 109 37 37 53 12 25 53 63 81 100 105 107 103 102 89 70 66 49 64 82 90 92 103 107 113 119 129 137 124 105 106 112 108 105 94 90 88 87 90
233 146 84 71 59 83 70 52 58 57 54 78 90 89 85 79 90 94 93 86 73 85 83 108 132 148 157 177 189 204 197 180 166 148 128 110 101 90 87 85 81 74 68
110 129 71 74 79 94 113 113 113 91 76 96 111 111 96 98 110 112 104 99 93 98 119 144 161 165 165 161 168 167 159 157 155 142 123 103 90 86 81 83 85 81 71
137 109 93 115 120 125 126 157 148 108 92 98 105 100 108 114 110 120 113 112 105 106 129 142 157 171 179 160 163 157 155 144 123 102 90 88 87 86 99 112 126 107 82
126 135 121 126 149 169 165 161 163 148 145 137 113 110 112 128 126 113 109 105 116 138 148 157 166 178 184 172 161 153 141 137 117 95 78 70 63 64 72 115 154 158 156
110 120 139 113 127 151 185 172 156 151 139 144 122 108 109 121 133 147 157 156 152 151 164 178 183 197 184 163 152 128 116 106 88 81 67 60 44 52 94 124 148 147 137
32 45 76 100 110 136 121 121 146 132 118 111 113 119 134 145 155 163 173 173 156 178 183 181 181 169 151 133 118 117 113 109 92 92 85 82 76 65 60 96 117 136 140
39 41 38 48 82 106 122 131 129 127 126 115 116 124 133 149 153 164 173 192 197 202 196 182 148 126 122 98 101 112 121 115 121 129 115 93 100 67 27 38 63 110 123
56 47 46 45 65 78 83 104 116 128 119 114 121 124 112 102 109 124 133 142 153 159 144 144 126 116 103 87 61 74 114 129 128 130 109 105 78 74 47 32 84 93 116
74 63 57 75 77 68 54 55 71 65 61 67 74 80 88 92 98 99 109 110 122 130 129 126 125 121 116 101 96 92 103 104 102 111 112 89 68 92 88 71 78 73 127
75 62 61 55 77 104 87 74 82 72 62 66 67 71 80 87 93 101 109 119 116 121 125 128 123 122 120 119 105 106 79 62 93 92 82 86 76 80 89 62 57 77 115
105 94 93 98 97 87 78 75 77 77 69 74 74 74 77 85 91 101 105 110 107 111 120 125 125 129 140 131 128 128 97 51 53 64 71 85 86 86 90 81 89 121 110
91 91 105 106 113 115 107 94 81 71 66 68 74 81 84 85 87 90 93 97 103 122 130 122 129 131 128 125 119 112 106 80 59 77 98 109 115 110 112 114 113 118 115
74 81 90 107 89 77 90 91 93 89 80 72 63 63 72 84 94 98 99 82 96 85 87 94 105 109 89 105 120 106 77 74 60 72 85 88 101 110 123 117 114 116 103